[[{"header":{"parameterUnit":"m.s-1","parameterCategory":1,"la1":30.6,"la2":29.2853,"lo1":-89.7004,"lo2":-87.6739,"dy":0.0162,"dx":0.0183,"nx":112,"ny":82,"refTime":"2024-09-06T06:00:00:Z","depth":0,"parameterNumber":2,"parameterNumberName":"U-component_of_WINDS"},"data":[0.0,0.0,0.0,0.0,0.0,0.0,0.0,0.0,0.0,0.0,0.0,0.0,0.0,0.0,0.0,0.0,0.0,0.0,0.0,0.0,0.0,0.0,0.0,0.0,0.0,0.0,0.0,0.0,0.0,0.0,0.0,0.0,0.0,0.0,0.0,0.0,0.0,0.0,0.0,0.0,0.0,0.0,0.0,0.0,0.0,0.0,0.0,0.0,0.0,0.0,0.0,0.0,0.0,0.0,0.0,0.0,0.0,0.0,0.0,0.0,0.0,0.0,0.0,0.0,0.0,0.0,0.0,0.0,0.0,0.0,0.0,0.0,0.0,0.0,0.0,0.0,0.0,0.0,0.0,0.0,0.0,0.0,0.0,0.0,0.0,0.0,0.0,0.0,0.0,0.0,0.9897,1.0561,1.0995,1.1212,1.1165,1.105,1.0649,0.9869,0.0,0.0,0.0,0.0,0.0,0.0,0.0,0.0,0.0,0.0,0.0,0.0,0.0,0.0,0.0,0.0,0.0,0.0,0.0,0.0,0.0,0.0,0.0,0.0,0.0,0.0,0.0,0.0,0.0,0.0,0.0,0.0,0.0,0.0,0.0,0.0,0.0,0.0,0.0,0.0,0.0,0.0,0.0,0.0,0.0,0.0,0.0,0.0,0.0,0.0,0.0,0.0,0.0,0.0,0.0,0.0,0.0,0.0,0.0,0.0,0.0,0.0,0.0,0.0,0.0,0.0,0.0,0.0,0.0,0.0,0.0,0.0,0.0,0.0,0.0,0.0,0.0,0.0,0.0,0.0,0.0,0.0,0.0,0.0,0.0,0.0,0.0,0.0,0.0,0.0,0.0,0.0,0.0,0.0,0.0,0.0,0.0,0.0,0.0,0.0,0.0,0.0,0.0,0.0,1.0168,1.1151,1.143,1.1443,1.1185,1.1145,1.0758,0.9876,0.0,0.0,0.0,0.0,0.0,0.0,0.0,0.0,0.0,0.0,0.0,0.0,0.0,0.0,0.0,0.0,0.0,0.0,0.0,0.0,0.0,0.0,0.0,0.0,0.0,0.0,0.0,0.0,0.0,0.0,0.0,0.0,0.0,0.0,0.0,0.0,0.0,0.0,0.0,0.0,0.0,0.0,0.0,0.0,0.0,0.0,0.0,0.0,0.0,0.0,0.0,0.0,0.0,0.0,0.0,0.0,0.0,0.0,0.0,0.0,0.0,0.0,0.0,0.0,0.0,0.0,0.0,0.0,0.0,0.0,0.0,0.0,0.0,0.0,0.0,0.0,0.0,0.0,0.0,0.0,0.0,0.0,0.0,0.0,0.0,0.0,0.0,0.0,0.0,0.0,0.0,0.0,0.0,0.0,0.0,0.0,0.0,0.0,0.0,0.0,0.0,0.0,0.0,1.0127,1.0588,1.1314,1.1531,1.1497,1.1192,1.1234,1.0744,0.9768,0.9564,0.0,0.0,0.0,0.0,0.0,0.0,0.0,0.0,0.0,0.0,0.0,0.0,0.0,0.0,0.0,0.0,0.0,0.0,0.0,0.0,0.0,0.0,0.0,0.0,0.0,0.0,0.0,0.0,0.0,0.0,0.0,0.0,0.0,0.0,0.0,0.0,0.0,0.0,0.0,0.0,0.0,0.0,0.0,0.0,0.0,0.0,0.0,0.0,0.0,0.0,0.0,0.0,0.0,0.0,0.0,0.0,0.0,0.0,0.0,0.0,0.0,0.0,0.0,0.0,0.0,0.0,0.0,0.0,0.0,0.0,0.0,0.0,0.0,0.0,0.0,0.0,0.0,0.0,0.0,0.0,0.0,0.0,0.0,0.0,0.0,0.0,0.0,0.0,0.0,0.0,0.0,0.0,0.0,0.0,0.0,0.0,0.0,0.0,0.0,0.0,0.0,0.0,1.0663,1.0982,1.1402,1.1552,1.1497,1.1192,1.1132,1.0602,0.9666,0.9367,0.0,0.0,0.0,0.0,0.0,0.0,0.0,0.0,0.0,0.0,0.0,0.0,0.0,0.0,0.0,0.0,0.0,0.0,0.0,0.0,0.0,0.0,0.0,0.0,0.0,0.0,0.0,0.0,0.0,0.0,0.0,0.0,0.0,0.0,0.0,0.0,0.0,0.0,0.0,0.0,0.0,0.0,0.0,0.0,0.0,0.0,0.0,0.0,0.0,0.0,0.0,0.0,0.0,0.0,0.0,0.0,0.0,0.0,0.0,0.0,0.0,0.0,0.0,0.0,0.0,0.0,0.0,0.0,0.0,0.0,0.0,0.0,0.0,0.0,0.0,0.0,0.0,0.0,0.0,0.0,0.0,0.0,0.0,0.0,0.0,0.0,0.0,0.0,0.0,0.0,0.0,0.0,0.0,0.0,0.0,0.0,0.0,0.0,0.0,0.0,0.0,0.0,1.0785,1.1253,1.1572,1.1613,1.1497,1.1192,1.0778,1.027,0.9646,0.9076,0.0,0.0,0.0,0.0,0.0,0.0,0.0,0.0,0.0,0.0,0.0,0.0,0.0,0.0,0.0,0.0,0.0,0.0,0.0,0.0,0.0,0.0,0.0,0.0,0.0,0.0,0.0,0.0,0.0,0.0,0.0,0.0,0.0,0.0,0.0,0.0,0.0,0.0,0.0,0.0,0.0,0.0,0.0,0.0,0.0,0.0,0.0,0.0,0.0,0.0,0.0,0.0,0.0,0.0,0.0,0.0,0.0,0.0,0.0,0.0,0.0,0.0,0.0,0.0,0.0,0.0,0.0,0.0,0.0,0.0,0.0,0.0,0.0,0.0,0.0,0.0,0.0,0.0,0.0,0.0,0.0,0.0,0.0,0.0,0.0,0.0,0.0,0.0,0.0,0.0,0.0,0.0,0.0,0.0,0.0,0.0,0.0,0.0,0.0,0.0,0.0,0.0,1.0717,1.1179,1.1579,1.1619,1.1497,1.1192,1.1009,1.05,0.953,0.0,0.0,0.0,0.0,0.0,0.0,0.0,0.0,0.0,0.0,0.0,0.0,0.0,0.0,0.0,0.0,0.0,0.0,0.0,0.0,0.0,0.0,0.0,0.0,0.0,0.0,0.0,0.0,0.0,0.0,0.0,0.0,0.0,0.0,0.0,0.0,0.0,0.0,0.0,0.0,0.0,0.0,0.0,0.0,0.0,0.0,0.0,0.0,0.0,0.0,0.0,0.0,0.0,0.0,0.0,0.0,0.0,0.0,0.0,0.0,0.0,0.0,0.0,0.0,0.0,0.0,0.0,0.0,0.0,0.0,0.0,0.0,0.0,0.0,0.0,0.0,0.0,0.0,0.0,0.0,0.0,0.0,0.0,0.0,0.0,0.0,0.0,0.0,0.0,0.0,0.0,0.0,0.0,0.0,0.0,0.0,0.0,0.0,0.0,0.0,0.0,0.0,1.027,1.0785,1.1226,1.1579,1.1619,1.1497,1.1192,1.1029,1.05,0.9449,0.0,0.0,0.0,0.0,0.0,0.0,0.0,0.0,0.0,0.0,0.0,0.0,0.0,0.0,0.0,0.0,0.0,0.0,0.0,0.0,0.0,0.0,0.0,0.0,0.0,0.0,0.0,0.0,0.0,0.0,0.0,0.0,0.0,0.0,0.0,0.0,0.0,0.0,0.0,0.0,0.0,0.0,0.0,0.0,0.0,0.0,0.0,0.0,0.0,0.0,0.0,0.0,0.0,0.0,0.0,0.0,0.0,0.0,0.0,0.0,0.0,0.0,0.0,0.0,0.0,0.0,0.0,0.0,0.0,0.0,0.0,0.0,0.0,0.0,0.0,0.0,0.0,0.0,0.0,0.0,0.0,0.0,0.0,0.0,0.0,0.0,0.0,0.0,0.0,0.0,0.0,0.0,0.0,0.0,0.0,0.0,0.0,0.0,0.0,0.0,0.0,0.0,1.0419,1.1016,1.145,1.1606,1.1619,1.1497,1.1192,1.0758,1.0181,0.0,0.0,0.0,0.0,0.0,0.0,0.0,0.0,0.0,0.0,0.0,0.0,0.0,0.0,0.0,0.0,0.0,0.0,0.0,0.0,0.0,0.0,0.0,0.0,0.0,0.0,0.0,0.0,0.0,0.0,0.0,0.0,0.0,0.0,0.0,0.0,0.0,0.0,0.0,0.0,0.0,0.0,0.0,0.0,0.0,0.0,0.0,0.0,0.0,0.0,0.0,0.0,0.0,0.0,0.0,0.0,0.0,0.0,0.0,0.0,0.0,0.0,0.0,0.0,0.0,0.0,0.0,0.0,0.0,0.0,0.0,0.0,0.0,0.0,0.0,0.0,0.0,0.0,0.0,0.0,0.0,0.0,0.0,0.0,0.0,0.0,0.0,0.0,0.0,0.0,0.0,0.0,0.0,0.0,0.0,0.0,0.0,0.0,0.0,0.0,0.0,0.0,0.0,1.046,1.1111,1.1572,1.1613,1.1619,1.1497,1.1192,1.1043,1.0514,0.9449,0.0,0.0,0.0,0.0,0.0,0.0,0.0,0.0,0.0,0.0,0.0,0.0,0.0,0.0,0.0,0.0,0.0,0.0,0.0,0.0,0.0,0.0,0.0,0.0,0.0,0.0,0.0,0.0,0.0,0.0,0.0,0.0,0.0,0.0,0.0,0.0,0.0,0.0,0.0,0.0,0.0,0.0,0.0,0.0,0.0,0.0,0.0,0.0,0.0,0.0,0.0,0.0,0.0,0.0,0.0,0.0,0.0,0.0,0.0,0.0,0.0,0.0,0.0,0.0,0.0,0.0,0.0,0.0,0.0,0.0,0.0,0.0,0.0,0.0,0.0,0.0,0.0,0.0,0.0,0.0,0.0,0.0,0.0,0.0,0.0,0.0,0.0,0.0,0.0,0.0,0.0,0.0,0.0,0.0,0.0,0.0,0.0,0.0,0.0,0.0,0.0,0.0,1.0629,1.1226,1.164,1.1694,1.1653,1.1518,1.1274,1.1199,1.0704,0.9625,0.0,0.0,0.0,0.0,0.0,0.0,0.0,0.0,0.0,0.0,0.0,0.0,0.0,0.0,0.0,0.0,0.0,0.0,0.0,0.0,0.0,0.0,0.0,0.0,0.0,0.0,0.0,0.0,0.0,0.0,0.0,0.0,0.0,0.0,0.0,0.0,0.0,0.0,0.0,0.0,0.0,0.0,0.0,0.0,0.0,0.0,0.0,0.0,0.0,0.0,0.0,0.0,0.0,0.0,0.0,0.0,0.0,0.0,0.0,0.0,0.0,0.0,0.0,0.0,0.0,0.0,0.0,0.0,0.0,0.0,0.0,0.0,0.0,0.0,0.0,0.0,0.0,0.0,0.0,0.0,0.0,0.0,0.0,0.0,0.0,0.0,0.0,0.0,0.0,0.0,0.0,0.0,0.0,0.0,0.0,0.0,0.0,0.0,0.0,0.0,0.0,0.0,1.0826,1.1362,1.1687,1.1816,1.1714,1.1572,1.1402,1.1253,1.0792,0.9917,0.0,0.0,0.0,0.0,0.0,0.0,0.0,0.0,0.0,0.0,0.0,0.0,0.0,0.0,0.0,0.0,0.0,0.0,0.0,0.0,0.0,0.0,0.0,0.0,0.0,0.0,0.0,0.0,0.0,0.0,0.0,0.0,0.0,0.0,0.0,0.0,0.0,0.0,0.0,0.0,0.0,0.0,0.0,0.0,0.0,0.0,0.0,0.0,0.0,0.0,0.0,0.0,0.0,0.0,0.0,0.0,0.0,0.0,0.0,0.0,0.9062,0.8743,0.0,0.0,0.0,0.0,0.0,0.0,0.0,0.0,0.0,0.0,0.0,0.0,0.0,0.0,0.0,0.0,0.0,0.0,0.0,0.0,0.0,0.0,0.0,0.0,0.0,0.0,0.0,0.0,0.0,0.0,0.0,0.0,0.0,0.0,0.0,0.0,0.0,0.0,0.0,0.0,1.1056,1.1511,1.1796,1.183,1.1803,1.1681,1.1416,1.1253,1.088,1.0222,0.9897,0.0,0.0,0.0,0.0,0.0,0.0,0.0,0.0,0.0,0.0,0.0,0.0,0.0,0.0,0.0,0.0,0.0,0.0,0.0,0.0,0.0,0.0,0.0,0.0,0.0,0.0,0.0,0.0,0.0,0.0,0.0,0.0,0.0,0.0,0.0,0.0,0.0,0.0,0.0,0.0,0.0,0.0,0.0,0.0,0.0,0.0,0.0,0.0,0.0,0.0,0.0,0.0,0.0,0.0,0.0,0.0,0.0,0.0,0.0,0.9686,0.9303,0.0,0.0,0.0,0.0,0.0,0.0,0.0,0.0,0.0,0.0,0.0,0.0,0.0,0.0,0.0,0.0,0.0,0.0,0.0,0.0,0.0,0.0,0.0,0.0,0.0,0.0,0.0,0.0,0.0,0.0,0.0,0.0,0.0,0.0,0.0,0.0,0.0,0.0,0.0,0.0,1.1206,1.1599,1.1884,1.2033,1.1918,1.1769,1.1613,1.1402,1.105,1.0527,1.0209,0.0,0.0,0.0,0.0,0.0,0.0,0.0,0.0,0.0,0.0,0.0,0.0,0.0,0.0,0.0,0.0,0.0,0.0,0.0,0.0,0.0,0.0,0.0,0.0,0.0,0.0,0.0,0.0,0.0,0.0,0.0,0.0,0.0,0.0,0.0,0.0,0.0,0.0,0.0,0.0,0.0,0.0,0.0,0.0,0.0,0.0,0.0,0.0,0.0,0.0,0.0,0.0,0.0,1.0527,1.0663,1.088,1.088,1.0962,1.0995,1.0381,1.0168,1.0071,0.9713,0.0,0.0,0.0,0.0,0.0,0.0,0.0,0.0,0.0,0.0,0.0,0.0,0.0,0.0,0.0,0.0,0.0,0.0,0.0,0.0,0.0,0.0,1.0697,1.0717,1.1009,1.105,1.0215,0.0,0.0,0.0,0.0,0.0,0.0,0.0,0.0,0.0,0.0,0.0,1.1396,1.1728,1.2006,1.2264,1.206,1.1891,1.1837,1.1586,1.126,1.086,1.0534,1.0175,0.0,0.0,0.0,0.0,0.0,0.0,0.0,0.0,0.0,0.0,0.0,0.0,0.0,0.0,0.0,0.0,0.0,0.0,0.0,0.0,0.0,0.0,0.0,0.0,0.0,0.0,0.0,0.0,0.0,0.0,0.0,0.0,0.9476,0.9517,0.0,0.0,0.0,0.0,0.0,0.0,0.0,0.0,0.0,0.0,0.0,0.0,0.0,1.05,1.0705,1.105,1.1206,1.1246,1.1504,1.1586,1.1504,1.1504,1.1579,1.1708,1.1606,0.0,1.0609,1.029,0.0,0.0,0.0,0.0,0.0,0.0,0.0,0.0,0.0,0.0,0.0,0.0,0.0,0.0,0.0,0.0,0.0,0.0,0.0,0.0,0.0,0.0,1.1504,1.1626,1.1701,1.1742,1.1742,1.1158,1.0568,1.0358,1.0249,1.0127,0.0,0.0,0.0,0.0,0.0,0.0,1.1714,1.204,1.2244,1.2284,1.225,1.2121,1.185,1.1681,1.1504,1.1314,1.09,1.0575,1.0385,0.9985,0.0,0.0,0.0,0.0,0.0,0.0,0.0,0.0,0.0,0.0,0.0,0.0,0.0,0.0,0.0,0.0,0.0,0.0,0.0,0.0,0.0,0.0,0.0,0.0,0.0,0.0,0.0,0.0,0.0,0.9564,0.9951,0.9869,1.0059,1.0019,0.0,0.0,0.0,0.0,0.0,0.0,0.0,0.0,0.0,1.1233,1.1328,1.1477,1.1701,1.1911,1.206,1.2142,1.2277,1.2352,1.2372,1.2372,1.2406,1.2461,1.2372,1.2149,1.1803,1.1165,1.0812,1.0702,0.0,0.0,0.0,0.0,1.0435,1.0509,1.0697,1.0724,1.0649,1.0337,0.0,0.0,0.0,0.0,0.0,0.0,0.0,1.0819,1.1145,1.1606,1.2033,1.2176,1.2338,1.2488,1.2549,1.2257,1.1809,1.124,1.1212,1.107,1.0412,1.0439,0.0,0.0,0.0,1.145,1.1904,1.2155,1.2318,1.24,1.2338,1.2237,1.2101,1.187,1.1674,1.1531,1.1253,1.0989,1.0758,1.048,1.0188,0.0,0.0,0.0,0.0,0.0,0.0,0.0,0.0,0.0,0.0,0.0,0.0,0.0,0.0,0.0,0.0,0.0,0.0,0.0,0.0,0.0,0.0,0.0,0.0,0.0,0.0,0.0,0.0,1.01,1.0453,1.0233,1.0575,1.0588,0.0,0.0,0.0,0.0,0.0,0.0,1.1267,1.1396,1.166,1.2108,1.223,1.2379,1.2569,1.2678,1.2773,1.284,1.284,1.2901,1.3017,1.3056,1.2983,1.301,1.2854,1.2786,1.2732,1.1945,1.1531,1.1425,1.0982,1.088,1.0962,1.1008,1.1076,1.115,1.1518,1.1565,1.145,1.1111,1.0955,1.0812,1.0405,0.0,0.0,0.0,0.0,1.1211,1.1728,1.2094,1.2393,1.2576,1.2793,1.2983,1.3057,1.3071,1.284,1.2054,1.2054,1.1911,1.109,1.1111,0.0,1.1077,1.1382,1.1742,1.2081,1.2284,1.2427,1.2494,1.244,1.2372,1.2298,1.2047,1.183,1.1681,1.1497,1.1294,1.107,1.0914,1.0697,1.0399,0.0,0.0,0.0,0.0,0.0,0.0,0.0,0.0,0.0,0.0,0.0,0.0,0.0,0.0,0.0,0.0,0.0,0.0,0.0,0.0,0.0,0.0,0.0,0.0,0.0,0.0,0.0,0.0,0.0,1.0853,1.1294,0.0,0.0,0.0,0.0,1.1314,1.1463,1.1748,1.2196,1.223,1.244,1.2888,1.2915,1.3057,1.3342,1.3349,1.3288,1.3152,1.3152,1.3152,1.3159,1.3024,1.3037,1.3152,1.301,1.2949,1.2915,1.244,1.2155,1.1999,1.183,1.1687,1.1572,1.1586,1.1674,1.1769,1.166,1.1701,1.1803,1.1782,1.1586,1.1375,1.1497,1.1328,0.0,0.0,1.1674,1.1891,1.2338,1.2474,1.2569,1.2868,1.2949,1.3037,1.3315,1.3376,1.3241,1.2766,1.2569,1.242,1.223,0.0,1.2006,1.1993,1.2135,1.225,1.2277,1.2528,1.2657,1.2515,1.2623,1.2596,1.2318,1.2142,1.1986,1.183,1.1552,1.1382,1.1369,1.1219,1.1002,1.0704,1.0541,0.0,0.0,0.0,0.0,0.0,0.0,0.0,0.0,0.0,0.0,0.0,0.0,0.0,0.0,0.0,0.0,0.0,0.0,0.0,0.0,0.0,0.0,0.0,0.0,0.0,0.0,0.0,0.0,1.1396,1.1857,0.0,1.1484,1.1619,1.1843,1.2088,1.225,1.2528,1.2983,1.3098,1.3268,1.3519,1.3526,1.358,1.3682,1.3682,1.3654,1.36,1.36,1.36,1.36,1.3553,1.3553,1.36,1.3546,1.3526,1.3512,1.3356,1.303,1.2623,1.2467,1.244,1.2467,1.2372,1.2427,1.2549,1.2501,1.2515,1.2522,1.2325,1.2128,1.1979,1.2033,1.1972,1.1952,1.225,1.2372,1.2467,1.2732,1.2868,1.2983,1.3193,1.3322,1.3444,1.3641,1.3682,1.3634,1.3478,1.3247,1.2942,1.2501,1.2461,1.2461,1.2359,1.2393,1.2501,1.2698,1.2644,1.2603,1.2644,1.261,1.2542,1.2433,1.2203,1.1993,1.1843,1.1552,1.1348,1.1246,1.1104,1.0975,1.0799,1.0622,1.0317,0.0,0.0,0.0,0.0,0.0,0.0,0.0,0.0,0.0,0.0,0.0,0.0,0.0,0.0,0.0,0.0,0.0,0.0,0.0,0.0,0.0,0.0,0.0,0.0,0.0,1.1667,1.2101,1.2006,1.2474,1.2651,1.225,1.2393,1.2617,1.2861,1.2976,1.3186,1.3532,1.3648,1.377,1.3912,1.3919,1.3946,1.3994,1.3994,1.3966,1.3919,1.3919,1.3919,1.3919,1.3865,1.3871,1.3912,1.3865,1.3838,1.3838,1.3838,1.3607,1.3234,1.3037,1.299,1.3017,1.2861,1.2874,1.2963,1.2963,1.2963,1.2929,1.2725,1.2596,1.2515,1.2515,1.2515,1.2556,1.2752,1.2807,1.284,1.299,1.3139,1.3288,1.3444,1.3593,1.3743,1.3885,1.3919,1.3919,1.3919,1.3715,1.3424,1.3024,1.2996,1.2983,1.2827,1.2759,1.2786,1.2942,1.2827,1.2745,1.28,1.2759,1.2684,1.2589,1.2264,1.202,1.1918,1.1586,1.1348,1.1246,1.1151,1.105,1.088,1.0751,1.0595,1.05,0.0,0.0,0.0,0.0,0.0,0.0,0.0,0.0,0.0,0.0,0.0,0.0,0.0,0.0,0.0,0.0,0.0,0.0,0.0,0.0,0.0,0.0,0.0,1.1681,1.2291,1.2752,1.2759,1.3146,1.3302,1.3017,1.3247,1.3478,1.3634,1.3641,1.3702,1.3844,1.3858,1.3926,1.4075,1.4082,1.415,1.4299,1.4299,1.4224,1.4082,1.4082,1.4082,1.4075,1.3926,1.3939,1.4068,1.3919,1.3858,1.3858,1.3858,1.3858,1.3824,1.3532,1.3322,1.3173,1.3037,1.3056,1.2976,1.2976,1.2976,1.2976,1.2969,1.305,1.305,1.305,1.305,1.305,1.2976,1.3056,1.3017,1.3152,1.3302,1.3451,1.3607,1.3749,1.3892,1.4048,1.4082,1.4082,1.4082,1.396,1.3851,1.3844,1.3722,1.358,1.3431,1.3275,0.0,1.299,1.3085,1.3112,1.2983,1.3085,1.3044,1.2752,1.2325,1.2067,1.2054,1.1633,1.1389,1.1402,1.1396,1.126,1.0914,1.0907,1.1118,1.1396,0.0,0.0,0.0,0.0,0.0,0.0,0.0,0.0,0.0,0.0,0.0,0.0,0.0,0.0,0.0,0.0,0.0,0.0,0.0,0.0,0.0,1.2142,1.2637,1.2596,1.2956,1.3254,1.337,1.358,1.3688,1.3607,1.3675,1.3783,1.3939,1.3953,1.4014,1.4163,1.4177,1.419,1.4238,1.4238,1.4258,1.4299,1.4299,1.4278,1.4238,1.4238,1.4238,1.4238,1.419,1.4197,1.4238,1.419,1.4177,1.4177,1.4177,1.4177,1.4143,1.3838,1.3695,1.3641,1.3498,1.3376,1.3281,1.3281,1.3281,1.3261,1.3152,1.3112,1.3112,1.3112,1.3112,1.3139,1.3247,1.3363,1.3458,1.3492,1.3614,1.3756,1.3912,1.398,1.4048,1.4204,1.4238,1.4238,1.4238,1.4204,1.4102,1.3878,1.3722,1.3614,1.3573,1.3342,1.32,1.3268,1.3125,1.3044,1.3105,1.3057,1.2942,1.2745,1.242,1.2128,1.1911,1.1477,1.1369,1.1694,1.1504,1.145,1.1586,1.1514,1.1579,0.0,0.0,0.0,0.0,0.0,0.0,0.0,0.0,0.0,0.0,0.0,0.0,0.0,0.0,0.0,0.0,0.0,0.0,0.0,0.0,0.0,0.0,1.2908,1.3376,1.3505,1.3614,1.3743,1.3892,1.398,1.4034,1.4034,1.4034,1.4095,1.4245,1.4204,1.4231,1.438,1.4333,1.4299,1.4299,1.4299,1.4299,1.4299,1.436,1.436,1.4299,1.436,1.436,1.4299,1.4299,1.4299,1.4299,1.4299,1.4299,1.4299,1.4299,1.4299,1.4278,0.0,0.0,0.0,0.0,1.3661,1.358,1.3519,1.3498,1.3471,1.3315,1.3268,1.3268,1.3268,1.3268,1.3302,1.3451,1.3559,1.3641,1.3702,1.3824,1.396,1.4048,1.4122,1.419,1.4278,1.4299,1.4299,1.4299,1.4299,0.0,1.4061,1.3912,1.379,1.3729,1.3512,1.337,1.3397,1.3254,1.318,1.3261,1.3193,1.3085,1.2929,1.2644,0.0,0.0,0.0,1.1755,1.2013,1.1796,0.0,0.0,0.0,0.0,0.0,0.0,0.0,0.0,1.2515,1.2549,0.0,0.0,0.0,0.0,0.0,0.0,0.0,0.0,0.0,0.0,0.0,0.0,0.0,0.0,0.0,0.0,1.3661,1.3973,1.4278,1.4204,1.4163,1.4285,1.4299,1.4306,1.4326,1.4326,1.438,1.4529,1.4421,1.4407,1.4529,1.4421,0.0,0.0,0.0,1.4346,1.4346,1.4475,1.4475,1.4353,1.4475,1.4462,1.4326,1.4326,1.4319,1.4299,1.4299,1.4299,1.4299,1.4299,1.4299,1.4285,1.415,1.4089,1.4055,1.3919,1.3858,1.3738,1.3356,0.0,0.0,1.2733,1.2682,1.2669,1.2919,1.3008,1.3118,1.3509,1.3654,1.3709,1.3831,1.398,1.4095,1.4095,1.4204,1.4299,1.4299,1.4299,1.4299,1.4299,1.4299,1.4299,1.4299,1.4177,1.4027,1.3885,1.3743,1.3607,1.3464,1.3437,1.3431,1.3451,1.3437,0.0,1.3234,1.2969,1.2739,1.2589,1.2474,1.2406,1.2393,1.2311,1.244,1.282,1.2847,1.3112,1.3627,1.3682,1.377,1.3871,1.3078,1.299,0.0,0.0,0.0,0.0,0.0,0.0,0.0,0.0,0.0,0.0,0.0,0.0,0.0,0.0,0.0,1.3356,1.3756,1.4129,1.4428,1.4441,1.4394,1.4312,1.4299,1.4346,1.4462,1.4468,1.4529,1.4685,1.4672,1.4665,1.4692,1.4672,1.4658,1.4658,1.4658,1.4658,1.4658,1.4679,1.4679,1.4658,1.4679,0.0,1.4468,1.4468,1.4407,1.4299,1.4299,1.4299,1.4299,1.4299,1.4299,1.4299,1.4265,1.4183,1.4068,1.4041,1.3946,1.3488,1.1561,1.0945,1.0597,0.8607,0.8037,0.8315,1.0098,1.0778,0.0,1.3108,1.3804,1.3994,1.4021,1.4143,1.4258,1.4258,1.4278,1.4299,1.4299,1.4299,1.4299,1.4299,1.4299,1.4299,1.4299,1.4177,1.4061,1.4034,1.3899,1.379,1.3763,1.3654,1.3627,1.3743,1.3654,1.3573,1.3546,1.3376,1.3207,1.3051,1.3132,1.3132,1.3003,1.3322,1.3485,1.3458,1.3566,1.3627,1.3627,1.3994,1.4183,1.4204,1.4034,1.4014,0.0,0.0,0.0,0.0,0.0,0.0,0.0,0.0,0.0,0.0,0.0,1.2075,1.11,0.0,1.1322,1.0417,1.1489,1.2568,1.2668,1.3797,1.4597,1.4529,1.4523,1.455,1.4618,1.4624,1.4719,1.4943,1.4896,1.4889,1.4957,1.4896,1.4821,1.474,1.474,1.474,1.474,1.4814,1.4814,1.474,1.4821,1.4774,1.4624,1.4624,1.4584,1.4516,1.4441,1.4407,1.4311,1.2982,1.1788,1.0717,1.0717,1.1395,1.2226,1.1071,1.0507,1.0272,0.8996,0.8631,0.8362,0.7111,0.6729,0.687,0.7983,0.8415,0.8766,0.9931,1.0371,1.0472,1.0615,1.0672,1.0717,1.0717,1.0717,1.1072,1.2237,1.2503,1.2863,1.4033,1.4299,1.3938,1.2686,1.2449,1.2829,1.3907,1.4007,1.3926,1.3851,1.274,1.238,1.366,1.1624,1.0641,1.1839,1.0704,0.9958,0.9958,0.9958,0.9958,0.9958,1.0169,1.0259,1.0209,1.0277,1.0337,1.0374,1.0595,1.0705,1.0705,1.076,1.2119,0.0,0.0,0.0,0.0,0.0,0.0,0.0,1.1203,1.1321,1.1081,1.1324,1.1091,0.9558,0.9355,0.8922,0.7335,0.8824,1.0221,1.0234,1.2002,1.3309,1.3334,1.4127,1.4753,1.478,1.4808,1.4936,1.5208,1.5147,1.5153,1.5262,1.516,1.5045,1.4916,1.4889,1.4869,1.4869,1.4964,1.495,1.4828,1.495,1.493,1.4787,1.4787,1.4493,1.3899,1.33,1.3059,1.2867,1.0852,0.8842,0.7057,0.6611,0.7595,0.9108,0.7681,0.7057,0.705,0.646,0.6262,0.6168,0.5594,0.5398,0.5475,0.5908,0.6082,0.6178,0.6754,0.6956,0.698,0.7044,0.7057,0.7057,0.7057,0.7057,0.7595,0.9557,1.0002,1.054,1.2509,1.2863,1.2237,1.0357,1.0002,1.0593,1.2448,1.2698,1.2661,1.2545,1.0853,1.033,1.2268,0.9034,0.7559,0.948,0.7772,0.6646,0.6792,0.6653,0.6653,0.6815,0.6784,0.6816,0.6921,0.6948,0.7016,0.7121,0.718,0.7125,0.7141,0.7383,0.9507,0.8097,0.8132,0.8998,1.1122,1.185,1.1687,0.0,0.9958,0.938,0.7633,0.7429,0.7442,0.727,0.7349,0.732,0.717,0.7361,0.7569,0.7735,0.8024,0.824,0.841,1.2102,1.4794,1.493,1.5059,1.5201,1.5371,1.5499,1.5567,1.5588,1.5574,1.5554,1.554,1.5404,1.5337,1.5337,1.5215,1.5153,1.5133,1.5153,1.5086,1.4943,1.4943,1.3653,1.1222,0.8928,0.7892,0.7888,0.7624,0.7324,0.6879,0.4829,0.4116,0.4651,0.6436,0.7057,0.679,0.4733,0.393,0.3573,0.143,0.0711,0.1146,0.3079,0.378,0.4395,0.6329,0.6993,0.7047,0.7057,0.7057,0.7057,0.7057,0.7057,0.7146,0.7413,0.7506,0.7591,0.7862,0.7862,0.7862,0.7591,0.7506,0.7591,0.7847,0.7847,0.7844,0.7832,0.7505,0.7399,0.7825,0.7237,0.7047,0.7382,0.7204,0.7027,0.7033,0.7027,0.7057,0.7041,0.7051,0.7084,0.7059,0.7079,0.7115,0.7081,0.7277,0.741,0.7379,0.7484,0.7823,0.6549,0.6661,0.7174,0.8058,0.8577,0.8648,0.796,0.7864,0.7696,0.6966,0.6892,0.6603,0.5214,0.5059,0.4623,0.3165,0.419,0.5227,0.528,0.6603,0.7541,0.7625,0.9385,1.0629,1.0645,1.0787,1.1458,1.32,1.3366,1.4085,1.5666,1.5764,1.5723,1.5642,1.5581,1.5499,1.5411,1.535,1.5269,1.5181,1.5181,1.439,1.2923,1.2923,1.1444,0.8817,0.772,0.6389,0.5084,0.5029,0.4204,0.2866,0.1882,0.1524,0.1614,0.2597,0.2955,0.2866,0.1883,0.1524,0.1345,0.0359,0.0,0.0178,0.1069,0.1425,0.1692,0.258,0.2945,0.2955,0.2955,0.2955,0.2955,0.2955,0.2955,0.3318,0.4778,0.5029,0.5465,0.6845,0.7087,0.67,0.5276,0.5097,0.4561,0.3224,0.5365,0.7057,0.7057,0.5875,0.4451,0.3133,0.4188,0.4451,0.3043,0.2955,0.2962,0.298,0.2982,0.2996,0.2936,0.2954,0.2961,0.2956,0.3007,0.2936,0.2932,0.3061,0.3084,0.3096,0.3174,0.3169,0.5399,0.5365,0.5295,0.577,0.6187,0.6325,0.5611,0.5704,0.5643,0.5102,0.5072,0.4665,0.2953,0.2593,0.2047,0.0282,0.1505,0.2737,0.2756,0.4363,0.5473,0.5527,0.5545,0.5493,0.5469,0.6849,0.8469,1.0585,1.0725,1.1634,1.3621,1.372,1.3679,1.3493,1.3452,1.3388,1.3295,1.326,1.3179,1.314,1.314,1.2172,1.0342,0.9586,0.8225,0.6383,0.567,0.4336,0.2567,0.2623,0.1621,0.0,0.0,0.0,0.0,0.0,0.0,0.0,0.0,0.0,0.0,0.0,0.0,0.0,0.0,0.0,0.0,0.0,0.0,0.0,0.0,0.0,0.0,0.0,0.0,0.0452,0.2188,0.2634,0.3075,0.481,0.5146,0.4576,0.2867,0.2597,0.1971,0.0269,0.2955,0.5186,0.5186,0.3669,0.1971,0.0179,0.1524,0.1882,0.018,0.0,0.0,0.0,0.0,0.0,0.0,0.0,0.0,0.0,0.0,0.0,0.0,0.0,0.0,0.0,0.0,0.0,0.4956,0.4333,0.3601,0.5482,0.6333,0.6076,0.3861,0.3576,0.2999,0.0728,0.0184,0.0185,0.0093,0.0093,0.0094,0.0,0.0095,0.0095,0.0095,0.0189,0.0188,0.0188,0.0186,0.0187,0.0191,0.4836,0.7841,0.7919,0.7994,0.8138,0.8238,0.8238,0.8235,0.8235,0.8059,0.8021,0.8018,0.7949,0.7876,0.78,0.78,0.7759,0.7595,0.513,0.3991,0.38,0.132,0.0188,0.0094,0.0092,0.0091,0.0,0.0,0.0,0.0,0.0,0.0,0.0,0.0,0.0,0.0,0.0,0.0,0.0,0.0,0.0,0.0,0.0,0.0,0.0,0.0,0.0,0.0,0.0,0.0,0.0,0.0092,0.0093,0.0092,0.0183,0.0182,0.0182,0.009,0.009,0.009,0.0,0.009,0.0179,0.0179,0.018,0.009,0.0,0.009,0.009,0.0,0.0,0.0,0.0,0.0,0.0,0.0,0.0,0.0,0.0,0.0,0.0,0.0,0.0,0.0,0.0,0.0,0.0,0.1687,0.144,0.1163,0.1868,0.2176,0.2041,0.1247,0.1172,0.1002,0.0182,0.0,0.0,0.0,0.0,0.0,0.0,0.0,0.0,0.0,0.0,0.0,0.0,0.0,0.0,0.0,0.1617,0.3395,0.5151,0.5275,0.6114,0.7907,0.7965,0.7961,0.8012,0.7941,0.7877,0.7827,0.7803,0.7658,0.7589,0.5899,0.5119,0.5038,0.2409,0.125,0.125,0.0381,0.0,0.0,0.0,0.0,0.0,0.0,0.0,0.0,0.0,0.0,0.0,0.0,0.0,0.0,0.0,0.0,0.0,0.0,0.0,0.0,0.0,0.0,0.0,0.0,0.0,0.0,0.0,0.0,0.0,0.0,0.0,0.0,0.0,0.0,0.0,0.0,0.0,0.0,0.0,0.0,0.0,0.0,0.0,0.0,0.0,0.0,0.0,0.0,0.0,0.0,0.0,0.0,0.0,0.0,0.0,0.0,0.0,0.0,0.0,0.0,0.0,0.0,0.0,0.0,0.0,0.0,0.0,0.0,0.0,0.0,0.0,0.0,0.0,0.0,0.0,0.0,0.0,0.0,0.0,0.0,0.0,0.0,0.0,0.0,0.0,0.0,0.0,0.0,0.0,0.0,0.0,0.0674,0.2456,0.2574,0.3301,0.5072,0.5165,0.5172,0.51,0.5174,0.5135,0.4985,0.4985,0.4953,0.4891,0.319,0.2415,0.234,0.0776,0.0,0.0,0.0,0.0,0.0,0.0,0.0,0.0,0.0,-0.0555,-0.1388,-0.1388,-0.1934,-0.2466,-0.0634,0.0,0.0,0.0,0.0,0.0,0.0,0.0,0.0,0.0,0.0,0.0,0.0,0.0,0.0,0.0,0.0,0.0,0.0,0.0,0.0,0.0,0.0,0.0,0.0,0.0,0.0,0.0,0.0,0.0,0.0,0.0,0.0,0.0,0.0,0.0,0.0,0.0,0.0,0.0,0.0,0.0,0.0,0.0,0.0,0.0,0.0,0.0,0.0,0.0,0.0,0.0,0.0,0.0,0.0,0.0,0.0,0.0,0.0,0.0,0.0,0.0,0.0,0.0,0.0,0.0,0.0,0.0,0.0,0.0,0.0,0.0,0.0,0.0,0.0,0.0,0.0,0.0,0.0,0.0,0.0,0.0,0.0,0.0,0.0,0.0,0.0,0.0,0.0,0.0,0.0,0.0,0.0,0.0,0.0,0.0,0.0,0.0,0.0,0.0,0.0,-0.0097,-0.0193,-0.019,-0.0282,-0.0376,-0.0372,-0.1852,-0.3976,-0.3976,-0.5539,-0.6905,-0.2104,-0.0272,-0.018,-0.018,-0.009,0.0,0.0,0.0,0.0,0.0,0.0,0.0,0.0,0.0,0.0,0.0,0.0,0.0,0.0,0.0,0.0,0.0,0.0,0.0,0.0,0.0,0.0,0.0,0.0,0.0,0.0,0.0,0.0,0.0,0.0,0.0,0.0,0.0,0.0,0.0,0.0,0.0,0.0,0.0,0.0,0.0,0.0,0.0,0.0,0.0,0.0,0.0,0.0,0.0,0.0,0.0,0.0,0.0,0.0,0.0,0.0,0.0,0.0,0.0,0.0,0.0,0.0,0.0,0.0,0.0,0.0,0.0,0.0,0.0,0.0,0.0,0.0,0.0,0.0,0.0,0.0,0.0,0.0,0.0,0.0,0.0,0.0,0.0,0.0,0.0,0.0,0.0,0.0,0.0,0.0,0.0,0.0,0.0,0.0,0.0,0.0,-0.1063,-0.2797,-0.2858,-0.3979,-0.5677,-0.5664,-0.6033,-0.6597,-0.6597,-0.7032,-0.7449,-0.6134,-0.441,-0.2805,-0.2694,-0.1434,0.0,0.0,0.0,0.0,0.0,0.0,0.0,0.0,0.0,0.0,0.0,0.0,0.0,0.0,0.0,0.0,0.0,0.0,0.0,0.0,0.0,0.0,0.0,0.0,0.0,0.0,0.0,0.0,0.0,0.0,0.0,0.0,0.0,0.0,0.0,0.0,0.0,0.0,0.0,0.0,0.0,0.0,0.0,0.0,0.0,0.0,0.0,0.0,0.0,0.0,0.0,0.0,0.0,0.0,0.0,0.0,0.0,0.0,0.0,0.0,0.0,0.0,0.0,0.0,0.0,0.0,0.0,0.0,0.0,0.0,0.0,0.0,0.0,0.0,0.0,0.0,0.0,0.0,0.0,0.0,0.0,0.0,0.0,0.0,0.0,0.0,0.0,0.0,0.0,0.0,0.0,0.0,0.0,-0.0583,-0.1666,-0.165,-0.3089,-0.549,-0.5437,-0.6266,-0.7595,-0.7595,-0.8258,-0.9299,-0.9299,-1.0018,-1.0904,-1.086,-0.9187,-0.6882,-0.57,-0.4324,-0.3063,-0.1884,-0.1619,-0.1356,-0.0273,0.0,0.0,0.0,0.0,0.0,0.0,0.0,0.0,0.0,0.0,0.0,0.0,0.0,0.0,0.0,0.0,0.0,0.0,0.0,0.0,0.0,0.0,0.0,0.0,0.0,0.0,0.0,0.0,0.0,0.0,0.0,0.0,0.0,0.0,0.0,0.0,0.0,0.0,0.0,0.0,0.0,0.0,0.0,0.0,0.0,0.0,0.0,0.0,0.0,0.0,0.0,0.0,0.0,0.0,0.0,0.0,0.0,0.0,0.0,0.0,0.0,0.0,0.0,0.0,0.0,0.0,0.0,0.0,0.0,0.0,0.0,0.0,0.0,0.0,0.0,0.0,0.0,0.0,0.0,0.0,0.0,0.0,0.0,0.0,0.0,-0.0195,-0.049,-0.0485,-0.1939,-0.4296,-0.4351,-0.5776,-0.8085,-0.8101,-0.8258,-0.8637,-0.8637,-0.9964,-1.1862,-1.1862,-1.3281,-1.5167,-1.5038,-1.3678,-1.148,-0.8771,-0.7624,-0.698,-0.4765,-0.4058,-0.3547,-0.1199,-0.0466,-0.0375,-0.0094,0.0,0.0,0.0,0.0,0.0,0.0,0.0,0.0,0.0,0.0,0.0,0.0,0.0,0.0,0.0,0.0,0.0,0.0,0.0,0.0,0.0,0.0,0.0,0.0,0.0,0.0,0.0,0.0,0.0,0.0,0.0,0.0,0.0,0.0,0.0,0.0,0.0,0.0,0.0,0.0,0.0,0.0,0.0,0.0,0.0,0.0,0.0,0.0,0.0,0.0,0.0,0.0,0.0,0.0,0.0,0.0,0.0,0.0,0.0,0.0,0.0,0.0,0.0,0.0,0.0,0.0,0.0,0.0,0.0,0.0,0.0,0.0,0.0,0.0,0.0,0.0,0.0,0.0,0.0,0.0,0.0,0.0,-0.1073,-0.3096,-0.316,-0.4502,-0.6951,-0.6979,-0.8409,-1.0768,-1.0763,-1.1956,-1.3852,-1.3852,-1.4134,-1.4516,-1.4516,-1.4805,-1.5181,-1.5153,-1.4859,-1.4033,-1.1255,-0.898,-0.7352,-0.6887,-0.6668,-0.603,-0.3765,-0.3052,-0.2507,-0.0563,0.0,0.0,0.0,0.0,0.0,0.0,0.0,0.0,0.0,0.0,0.0,0.0,0.0,0.0,0.0,0.0,0.0,0.0,0.0,0.0,0.0,0.0,0.0,0.0,0.0,0.0,0.0,0.0,0.0,0.0,0.0,0.0,0.0,0.0,0.0,0.0,0.0,0.0,0.0,0.0,0.0,0.0,0.0,0.0,0.0,0.0,0.0,0.0,0.0,0.0,0.0,0.0,0.0,0.0,0.0,0.0,0.0,0.0,0.0,0.0,0.0,0.0,0.0,0.0,0.0,0.0,0.0,-0.0627,-0.2088,-0.2182,-0.1552,-0.0103,0.0,0.0,0.0,0.0,0.0,0.0,-0.1412,-0.2112,-0.2103,-0.3468,-0.4804,-0.5919,-0.5865,-0.7268,-0.9556,-0.9604,-1.1033,-1.3364,-1.3399,-1.414,-1.5181,-1.5181,-1.5181,-1.5181,-1.5181,-1.5181,-1.5181,-1.5181,-1.5181,-1.4932,-1.3364,-1.2204,-1.113,-0.9644,-0.9161,-0.8537,-0.6212,-0.4612,-0.3355,-0.2156,-0.0946,0.0,0.0,0.0,0.0,0.0,0.0,0.0,0.0,0.0,0.0,0.0,0.0,0.0,0.0,0.0,0.0,0.0,0.0,0.0,0.0,0.0,0.0,0.0,0.0,0.0,0.0,0.0,0.0,0.0,0.0,0.0,0.0,0.0,0.0,0.0,0.0,0.0,0.0,0.0,0.0,0.0,0.0,0.0,0.0,0.0,0.0,0.0,-0.0306,-0.0598,-0.0638,-0.057,-0.0724,-0.1165,-0.0906,-0.0778,-0.1179,-0.1308,-0.1205,-0.0734,-0.123,-0.147,-0.0926,-0.1464,-0.1792,-0.1792,-0.1792,-0.2738,-0.4942,-0.5117,-0.4156,-0.197,-0.1759,-0.1752,-0.1739,-0.1736,-0.1728,-0.1715,-0.3825,-0.4829,-0.4929,-0.697,-0.8183,-0.8589,-0.861,-0.9963,-1.2239,-1.2239,-1.3375,-1.5181,-1.5181,-1.5181,-1.5181,-1.5181,-1.5181,-1.5181,-1.5181,-1.5181,-1.5181,-1.5181,-1.5181,-1.5147,-1.4909,-1.4896,-1.4547,-1.2346,-1.1705,-1.1222,-0.8712,-0.6669,-0.4966,-0.3947,-0.2272,-0.0668,-0.0095,0.0,0.0,0.0,0.0,0.0,0.0,0.0,0.0,0.0,0.0,0.0,0.0,0.0,0.0,0.0,0.0,-0.0192,-0.0764,-0.0288,0.0,0.0,0.0,0.0,0.0,0.0,0.0,0.0,0.0,0.0,0.0,0.0,0.0,0.0,0.0,0.0,0.0,0.0,0.0,0.0,0.0,0.0,0.0,0.0,0.0,0.0,-0.1265,-0.2503,-0.2599,-0.2524,-0.304,-0.4918,-0.3829,-0.3251,-0.5131,-0.5733,-0.5145,-0.3113,-0.5282,-0.6274,-0.4077,-0.6163,-0.7737,-0.7737,-0.7737,-0.7843,-0.8054,-0.8154,-0.7986,-0.7754,-0.7588,-0.7553,-0.7544,-0.738,-0.7245,-0.7239,-0.754,-0.764,-0.7637,-0.7864,-0.9166,-1.1226,-1.121,-1.2539,-1.4899,-1.4899,-1.4993,-1.5181,-1.5181,-1.5181,-1.5181,-1.5181,-1.5181,-1.5181,-1.5181,-1.5181,-1.5181,-1.5181,-1.5181,-1.5174,-1.5153,-1.5065,-1.4936,-1.4493,-1.4355,-1.3865,-1.1662,-1.0717,-0.9462,-0.4923,-0.3611,-0.2855,-0.0572,0.0,0.0,0.0,0.0,0.0,0.0,0.0,0.0,0.0,0.0,0.0,0.0,0.0,0.0,0.0,0.0,-0.0859,-0.3234,-0.1335,0.0,0.0,0.0,0.0,0.0,0.0,0.0,0.0,0.0,0.0,0.0,0.0,0.0,0.0,0.0,0.0,0.0,0.0,0.0,0.0,0.0,0.0,0.0,-0.085,-0.1711,-0.1619,-0.3091,-0.4471,-0.4482,-0.4469,-0.4718,-0.5637,-0.5177,-0.496,-0.5822,-0.6082,-0.5888,-0.5095,-0.6276,-0.6917,-0.6226,-0.73,-0.8183,-0.847,-0.8487,-0.9228,-1.0918,-1.255,-1.3423,-1.3428,-1.0165,-0.8246,-0.8157,-0.8022,-0.7985,-0.8041,-0.964,-1.0445,-1.0445,-1.2107,-1.3279,-1.397,-1.4012,-1.4444,-1.5187,-1.5282,-1.5316,-1.5316,-1.5316,-1.5316,-1.5309,-1.5215,-1.5181,-1.5181,-1.5181,-1.5181,-1.5181,-1.5181,-1.5181,-1.5167,-1.5086,-1.5072,-1.5072,-1.4923,-1.4814,-1.4486,-1.3671,-1.232,-1.0757,-0.8735,-0.6052,-0.3518,-0.257,-0.1144,0.0,0.0,0.0,0.0,0.0,0.0,0.0,0.0,0.0,-0.0485,-0.205,-0.2353,-0.2946,-0.4406,-0.4665,-0.5018,-0.5945,-0.2401,-0.058,-0.2154,-0.2364,-0.2386,-0.2416,-0.3912,-0.4812,-0.4831,-0.3312,-0.2413,-0.2432,-0.0813,0.0,0.0,0.0,0.0,0.0,0.0,0.0,-0.1532,-0.1474,-0.1134,-0.181,-0.2931,-0.3864,-0.3651,-0.511,-0.6449,-0.6438,-0.6438,-0.6641,-0.7373,-0.7038,-0.6877,-0.7651,-0.788,-0.7799,-0.7421,-0.8272,-0.8909,-0.8653,-0.9457,-1.0301,-1.0761,-1.0975,-1.1873,-1.378,-1.5714,-1.6781,-1.6686,-1.2916,-1.0656,-1.0498,-1.0463,-1.0415,-1.0449,-1.2353,-1.3256,-1.3356,-1.5174,-1.5927,-1.5642,-1.5642,-1.5472,-1.5187,-1.5296,-1.5343,-1.5343,-1.5343,-1.5343,-1.533,-1.5221,-1.5181,-1.5181,-1.5181,-1.5181,-1.5181,-1.5181,-1.5181,-1.5167,-1.5065,-1.5072,-1.5106,-1.5052,-1.4957,-1.4869,-1.4869,-1.3073,-1.1268,-1.1268,-0.812,-0.4941,-0.4941,-0.352,-0.2285,-0.2285,-0.2285,-0.2285,-0.2285,-0.2285,-0.2285,-0.2285,-0.2208,-0.2896,-0.4628,-0.5085,-0.5715,-0.7433,-0.7699,-0.8053,-0.8672,-0.4904,-0.2991,-0.4771,-0.5013,-0.5158,-0.5104,-0.6926,-0.8041,-0.8041,-0.6235,-0.5244,-0.5273,-0.3466,-0.205,-0.1238,-0.1242,-0.0831,0.0,0.0,0.0,-0.5134,-0.482,-0.383,-0.5882,-0.6374,-0.6213,-0.5843,-0.7178,-0.8499,-0.8467,-0.8459,-0.9068,-1.1155,-0.9939,-0.9434,-1.1635,-1.2228,-1.1798,-1.0047,-1.2448,-1.3666,-1.1632,-1.3812,-1.572,-1.6172,-1.6617,-1.6873,-1.6978,-1.6978,-1.6842,-1.6537,-1.6421,-1.6354,-1.6212,-1.6064,-1.5983,-1.5983,-1.6083,-1.6083,-1.6083,-1.6083,-1.5927,-1.5642,-1.5642,-1.5472,-1.5181,-1.5181,-1.5181,-1.5181,-1.5181,-1.5181,-1.5181,-1.5181,-1.5181,-1.5181,-1.5181,-1.5181,-1.5181,-1.5181,-1.5181,-1.5181,-1.5181,-1.5086,-1.4997,-1.514,-1.5181,-1.5174,-1.5174,-1.3375,-1.1385,-1.1385,-0.9488,-0.7592,-0.7592,-0.7501,-0.7501,-0.7501,-0.7501,-0.7501,-0.7501,-0.7501,-0.7501,-0.7501,-0.7561,-0.7516,-0.7516,-0.7672,-0.7813,-0.7813,-0.7752,-0.8764,-1.1256,-0.9163,-0.7531,-0.7605,-0.7676,-0.775,-0.7725,-0.7897,-0.8041,-0.8041,-0.7938,-0.8008,-0.8253,-0.8191,-0.6894,-0.4195,-0.4157,-0.2706,0.0,0.0,0.0,-0.5328,-0.5198,-0.4926,-0.5615,-0.677,-0.7755,-0.7581,-0.9077,-1.0447,-1.048,-1.0505,-1.0715,-1.1449,-1.1181,-1.118,-1.2357,-1.2596,-1.2562,-1.243,-1.3526,-1.4293,-1.4077,-1.5493,-1.6612,-1.6754,-1.6897,-1.6978,-1.6978,-1.6788,-1.6625,-1.6524,-1.6327,-1.6198,-1.6157,-1.6103,-1.6083,-1.6083,-1.6083,-1.6083,-1.6083,-1.5974,-1.5825,-1.5635,-1.5533,-1.5371,-1.5187,-1.5296,-1.5337,-1.5337,-1.5337,-1.5337,-1.533,-1.5221,-1.5181,-1.5181,-1.5181,-1.5181,-1.5181,-1.5181,-1.5181,-1.5181,-1.5181,-1.5153,-1.5126,-1.5167,-1.5113,-1.5059,-1.5153,-1.461,-1.404,-1.404,-1.2145,-1.0153,-1.0153,-0.8826,-0.7595,-0.7595,-0.7595,-0.7595,-0.7595,-0.7595,-0.7595,-0.7595,-0.7612,-0.82,-0.9914,-1.0281,-1.1018,-1.2763,-1.3097,-1.3386,-1.4164,-1.3441,-1.2186,-1.039,-1.0326,-1.0417,-1.0487,-1.2316,-1.3469,-1.3555,-1.1823,-1.0978,-1.1042,-0.9292,-0.8016,-0.7121,-0.7145,-0.5696,-0.2861,-0.2861,-0.1805,-0.7628,-0.7199,-0.6815,-0.7645,-0.877,-0.9606,-0.9485,-1.0451,-1.1389,-1.1389,-1.1436,-1.1504,-1.1599,-1.1735,-1.1972,-1.2406,-1.2617,-1.2922,-1.3464,-1.398,-1.4543,-1.5194,-1.613,-1.6727,-1.6727,-1.6829,-1.6897,-1.6897,-1.6659,-1.6497,-1.6442,-1.6266,-1.6144,-1.6083,-1.6083,-1.6083,-1.6083,-1.6083,-1.6083,-1.6083,-1.5927,-1.5778,-1.5635,-1.5479,-1.5323,-1.5187,-1.5282,-1.5323,0.0,-1.5323,-1.5323,-1.5316,-1.5221,-1.5181,-1.5181,-1.5181,-1.5181,-1.5181,-1.5181,-1.5181,-1.5181,-1.5181,-1.5181,-1.5181,-1.5181,-1.512,-1.5072,-1.516,-1.5181,-1.5181,-1.5181,-1.404,-1.281,-1.281,-1.1668,-1.0437,-1.0437,-1.0437,-1.0437,-1.0437,-1.0437,-1.0437,-1.0437,-1.0437,-1.1003,-1.2616,-1.2913,-1.3573,-1.5221,-1.5493,-1.5513,-1.5418,-1.5357,-1.4672,-1.3083,-1.3039,-1.3131,-1.3194,-1.4982,-1.5981,-1.6076,-1.455,-1.3822,-1.3915,-1.2312,-1.1068,-1.0094,-0.8991,-0.7535,-0.5841,-0.4676,-0.3298,0.0,-1.0185,-0.9327,-1.1239,-1.166,-1.1538,-1.1396,-1.1369,0.0,-1.1375,-1.1497,-1.1613,-1.1647,-1.1762,-1.1918,-1.2121,-1.2508,-1.2935,-1.3383,-1.3994,-1.4665,-1.5391,-1.5988,-1.6341,-1.6341,-1.6578,-1.6734,-1.6748,-1.6598,-1.6449,-1.632,-1.63,-1.6232,-1.609,-1.6083,-1.6083,-1.6083,-1.6083,-1.6083,-1.6083,-1.5927,-1.5778,-1.5635,-1.5479,-1.5323,-1.5181,-1.5181,-1.5181,-1.5181,-1.5181,-1.5181,-1.5181,-1.5181,-1.5181,-1.5181,-1.5181,-1.5181,-1.5181,-1.5181,-1.5181,-1.5181,-1.5181,-1.5181,-1.5181,-1.5181,-1.5181,-1.5181,-1.5181,-1.5181,-1.5181,-1.5181,-1.5181,-1.5181,-1.5181,-1.5181,-1.5181,-1.5181,-1.5181,-1.5181,-1.5181,-1.5181,-1.5181,-1.5181,-1.5181,-1.5181,-1.5181,-1.5303,-1.5398,-1.5411,-1.5411,-1.5411,-1.5411,-1.5282,-1.5255,-1.5384,-1.5533,-1.5635,-1.5655,-1.5913,-1.6069,-1.6083,-1.609,-1.6225,-1.6503,-1.6524,-1.5312,-1.3022,-1.0386,-0.9016,-0.8699,-0.5841,-0.4357,-1.0711,0.0,-1.0363,-1.0846,-1.1043,-1.1029,0.0,-1.1138,-1.1219,-1.1219,-1.1341,-1.1552,-1.1891,-1.1986,-1.2244,-1.2969,-1.3173,-1.3403,-1.3851,-1.4726,-1.552,-1.6035,-1.6422,-1.6646,-1.6646,-1.6605,-1.6625,-1.6741,-1.651,-1.6347,-1.6313,-1.6198,-1.6117,-1.6083,-1.6083,-1.6083,-1.6083,-1.6083,-1.6083,-1.6083,-1.5927,-1.5778,-1.5635,-1.5479,-1.5323,-1.5181,-1.5181,-1.5181,-1.5181,-1.5181,-1.5181,-1.5181,-1.5181,-1.5181,-1.5181,-1.5181,-1.5181,-1.5181,-1.5181,-1.5181,-1.5181,-1.5181,-1.5181,-1.5181,-1.5181,-1.5181,-1.5181,-1.5181,-1.5181,-1.5181,-1.5181,-1.5181,-1.5181,-1.5181,-1.5181,-1.5181,-1.5181,-1.5181,-1.5181,-1.5181,-1.5181,-1.5181,-1.5181,-1.5181,-1.5181,-1.5181,-1.5215,-1.5276,-1.5398,-1.5411,-1.5411,-1.5411,-1.5377,-1.5323,-1.5242,-1.5377,-1.556,-1.5791,-1.5866,-1.5961,-1.6076,-1.6191,-1.6286,-1.6361,-1.6578,-1.6313,-1.5749,-1.5222,-1.3891,-1.1657,-0.8805,-0.6266,-1.0378,-1.0656,-1.0921,-1.0921,-1.0982,-1.1063,-1.1138,-1.1104,-1.1084,-1.1151,-1.1287,-1.1484,-1.1803,-1.2081,-1.2447,-1.3003,-1.3376,-1.3831,-1.4489,-1.5194,-1.5805,-1.6259,-1.651,-1.6646,-1.6646,-1.651,-1.6463,-1.6544,-1.6334,-1.6205,-1.6205,-1.613,-1.6083,-1.6083,-1.6083,-1.6083,-1.6083,-1.6083,-1.6083,-1.6083,-1.5927,-1.5778,-1.5635,-1.5479,-1.5323,-1.5181,-1.5181,-1.5181,-1.5181,-1.5181,-1.5181,-1.5181,-1.5181,-1.5181,-1.5181,-1.5181,-1.5181,-1.5181,-1.5181,-1.5181,-1.5181,-1.5181,-1.5181,-1.5181,-1.5181,-1.5181,-1.5181,-1.5181,-1.5181,-1.5181,-1.5181,-1.5181,-1.5181,-1.5181,-1.5181,-1.5181,-1.5181,-1.5181,-1.5181,-1.5181,-1.5181,-1.5181,-1.5181,-1.5181,-1.5181,-1.5181,-1.5181,-1.5215,-1.5296,-1.5303,-1.5303,-1.5303,-1.5303,-1.5303,-1.5289,-1.5364,-1.5506,-1.5744,-1.5818,-1.592,-1.6076,-1.6157,-1.6239,-1.6307,-1.6598,-1.6748,-1.6748,-1.6904,-1.6229,-1.4528,-1.0391,-0.7641,-1.0263,-1.0744,-1.1179,-1.1111,-1.1131,-1.1185,-1.1267,-1.109,-1.0887,-1.1097,-1.1253,-1.1436,-1.1701,-1.2162,-1.2589,-1.2854,-1.3471,-1.4211,-1.5065,-1.5445,-1.5791,-1.6191,-1.6388,-1.649,-1.649,-1.6361,-1.6286,-1.6307,-1.6171,-1.6083,-1.6083,-1.6083,-1.6083,-1.6083,-1.6056,-1.6049,-1.6049,-1.6069,-1.6083,-1.6083,-1.5947,-1.5811,-1.5669,-1.5513,-1.5364,-1.5215,-1.5194,-1.5181,-1.5181,-1.5181,-1.5181,-1.5181,-1.5181,-1.5181,-1.5181,-1.5181,-1.5181,-1.5181,-1.5181,-1.5181,-1.5181,-1.5181,-1.5181,-1.5181,-1.5181,-1.5181,-1.5181,-1.5181,-1.5181,-1.5181,-1.5181,-1.5181,-1.5181,-1.5181,-1.5181,-1.5181,-1.5181,-1.5181,-1.5181,-1.5181,-1.5181,-1.5181,-1.5181,-1.5181,-1.5181,-1.5181,-1.5181,-1.5181,-1.5181,-1.5181,-1.5181,-1.5181,-1.5181,-1.5235,-1.5364,-1.5377,-1.5438,-1.5594,-1.5744,-1.5886,-1.6042,-1.6069,-1.6144,-1.6273,-1.6564,-1.6714,-1.6714,-1.6897,-1.6978,-1.6873,-1.1556,-0.8911,-1.0385,-1.09,-1.1267,-1.088,-1.0975,-1.1104,-1.0873,-1.0785,-1.0799,-1.0948,-1.1097,-1.1436,-1.2223,-1.244,-1.2759,-1.3546,-1.3987,-1.4455,-1.5092,-1.5445,-1.571,-1.59,-1.6171,-1.6341,-1.6341,-1.6205,-1.6171,-1.63,-1.6171,-1.6083,-1.6083,-1.6083,-1.6083,-1.6083,-1.5954,-1.5886,-1.5886,-1.6015,-1.6083,-1.6083,-1.6056,-1.5967,-1.5818,-1.5669,-1.552,-1.5371,-1.5242,-1.5181,-1.5181,-1.5181,-1.5181,-1.5181,-1.5181,-1.5181,-1.5181,-1.5181,-1.5181,-1.5181,-1.5181,-1.5181,-1.5181,-1.5181,-1.5181,-1.5181,-1.5181,-1.5181,-1.5181,-1.5181,-1.5181,-1.5181,-1.5181,-1.5181,-1.5181,-1.5181,-1.5181,-1.5181,-1.5181,-1.5181,-1.5181,-1.5181,-1.5181,-1.5181,-1.5181,-1.5181,-1.5181,-1.5181,-1.5181,-1.5181,-1.5181,-1.5181,-1.5181,-1.5181,-1.5181,-1.5194,-1.5215,-1.5215,-1.5282,-1.5438,-1.5588,-1.5737,-1.5886,-1.6015,-1.609,-1.6117,-1.6408,-1.6558,-1.6558,-1.6842,-1.6978,-1.6873,-1.3569,-1.0813,-1.0297,-1.0697,-1.1016,-1.0968,-1.1307,-1.1685,-1.1477,-1.1321,-1.1226,-1.1294,-1.1423,-1.1721,-1.2379,-1.2698,-1.3159,-1.4055,-1.4462,-1.478,-1.5133,-1.5445,-1.5689,-1.5839,-1.6049,-1.6185,-1.6185,-1.6123,-1.611,-1.6185,-1.6123,-1.6083,-1.6083,-1.6083,-1.6042,-1.5961,-1.5893,-1.5818,-1.5737,-1.5805,-1.5879,-1.5961,-1.5961,-1.5879,-1.5737,-1.5669,-1.5513,-1.5282,-1.5215,-1.5181,-1.5181,-1.5181,-1.5181,-1.5181,-1.5181,-1.5181,-1.5181,-1.5181,-1.5181,-1.5181,-1.5181,-1.5181,-1.5181,-1.5181,-1.5181,-1.5181,-1.5181,-1.5181,-1.5181,-1.5181,-1.5181,-1.5181,-1.5181,-1.5181,-1.5181,-1.5181,-1.5181,-1.5181,-1.5181,-1.5181,-1.5181,-1.5181,-1.5181,-1.5181,-1.5181,-1.5181,-1.5181,-1.5181,-1.5181,-1.5181,-1.5181,-1.5181,-1.5181,-1.5181,-1.5181,-1.5181,-1.5181,-1.5181,-1.5248,-1.5398,-1.5554,-1.5703,-1.5845,-1.592,-1.5995,-1.6083,-1.6293,-1.6442,-1.6524,-1.6748,-1.6897,-1.6978,-1.3996,-1.1978,-1.0236,-1.0521,-1.0799,-1.1131,-1.1538,-1.1964,-1.2108,-1.183,-1.1667,-1.1843,-1.1965,-1.2169,-1.2583,-1.3057,-1.3641,-1.4434,-1.4794,-1.5018,-1.516,-1.5418,-1.5642,-1.5784,-1.5934,-1.6042,-1.6076,-1.6083,-1.6083,-1.6083,-1.6083,-1.6069,-1.6029,-1.6062,-1.5995,-1.5811,-1.5805,-1.5737,-1.5588,-1.5547,-1.5642,-1.5852,-1.5818,-1.5764,-1.5689,-1.5615,-1.5459,-1.5235,-1.5201,-1.5181,-1.5181,-1.5181,-1.5181,-1.5181,-1.5181,-1.5181,-1.5181,-1.5181,-1.5181,-1.5181,-1.5181,-1.5181,-1.5181,-1.5181,-1.516,-1.514,-1.5174,-1.516,-1.514,-1.5174,-1.5181,-1.5181,-1.5181,-1.5181,-1.5181,-1.5181,-1.5181,-1.5181,-1.5181,-1.5181,-1.5181,-1.5181,-1.5181,-1.5181,-1.5181,-1.5181,-1.5181,-1.5181,-1.5181,-1.5181,-1.5181,-1.5181,-1.5181,-1.5181,-1.5181,-1.5181,-1.5181,-1.5181,-1.5228,-1.535,-1.5499,-1.5635,-1.5744,-1.5818,-1.5906,-1.6029,-1.6246,-1.6415,-1.6524,-1.6714,-1.6863,-1.6978,-1.4739,-1.3353,-1.0358,-1.0595,-1.0826,-1.1267,-1.1301,-1.1446,-1.1932,-1.183,-1.1816,-1.2508,-1.2657,-1.2759,-1.3071,-1.3607,-1.4163,-1.4645,-1.4862,-1.5018,-1.516,-1.5323,-1.5486,-1.5635,-1.5784,-1.5927,-1.6069,-1.6083,-1.6083,-1.6083,-1.6083,-1.6022,-1.5879,-1.6001,-1.5947,-1.5662,-1.5655,-1.5581,-1.5432,-1.5289,-1.5432,-1.5852,-1.5716,-1.5716,-1.5825,-1.5554,-1.5418,-1.5384,-1.5242,-1.5181,-1.5181,-1.5181,-1.5181,-1.5181,-1.5181,-1.5181,-1.5181,-1.5181,-1.5181,-1.5181,-1.5181,-1.5181,-1.5181,-1.5181,-1.5092,-1.5011,-1.514,-1.5092,-1.5011,-1.5147,-1.5181,-1.5181,-1.5181,-1.5181,-1.5181,-1.5181,-1.5181,-1.5181,-1.5181,-1.5181,-1.5181,-1.5181,-1.5181,-1.5181,-1.5181,-1.5181,-1.5181,-1.5181,-1.5181,-1.5181,-1.5181,-1.5181,-1.5181,-1.5181,-1.5181,-1.5181,-1.5181,-1.5181,-1.5187,-1.5201,-1.5343,-1.5432,-1.5445,-1.5703,-1.5859,-1.5866,-1.6286,-1.651,-1.6524,-1.6822,-1.6971,-1.6978,-1.6768,-1.5271,-1.0263,-1.0609,-1.0948,-1.1301,-1.1484,-1.1714,-1.2216,-1.2325,-1.2467,-1.303,-1.3146,-1.3207,-1.3417,-1.3946,-1.4373,-1.4455,-1.4753,-1.4991,-1.5045,-1.5255,-1.5432,-1.5493,-1.5628,-1.5744,-1.5798,-1.5805,-1.5805,-1.5805,-1.5805,-1.5778,-1.5723,-1.5778,-1.571,-1.5506,-1.5499,-1.5425,-1.5269,-1.5208,-1.5316,-1.5574,-1.5527,-1.5527,-1.5574,-1.5459,-1.5357,-1.5262,-1.5208,-1.5181,-1.5181,-1.5181,-1.5181,-1.5181,-1.5181,-1.5126,-1.5059,-1.5153,-1.5181,-1.5181,-1.5181,-1.5181,-1.5181,-1.5181,-1.5147,-1.5113,-1.5167,-1.5147,-1.5113,-1.5167,-1.5181,-1.5181,-1.5181,-1.5181,-1.5181,-1.5181,-1.5113,-1.5072,-1.516,-1.5038,-1.4964,-1.5147,-1.5113,-1.5079,-1.5167,-1.5181,-1.5181,-1.5181,-1.5181,-1.5181,-1.5181,-1.5181,-1.5181,-1.5181,-1.5181,-1.5181,-1.5181,-1.5181,-1.5181,-1.5181,-1.5235,-1.5357,-1.5547,-1.5662,-1.5805,-1.5995,-1.6157,-1.6341,-1.6524,-1.6639,-1.6795,-1.6978,-1.6978,-1.6446,-1.0263,-1.0609,-1.0968,-1.1362,-1.1613,-1.1932,-1.2569,-1.2759,-1.2969,-1.3566,-1.3607,-1.36,-1.3804,-1.4089,-1.4312,-1.436,-1.4665,-1.4916,-1.4964,-1.5181,-1.5357,-1.5404,-1.5506,-1.5588,-1.5635,-1.5642,-1.5642,-1.5642,-1.5642,-1.5615,-1.5567,-1.5615,-1.5547,-1.5343,-1.5384,-1.5337,-1.5181,-1.5181,-1.5235,-1.5337,-1.5337,-1.5364,-1.5411,-1.5364,-1.5282,-1.5181,-1.5181,-1.5181,-1.5181,-1.5133,-1.5086,-1.5045,-1.5045,-1.4984,-1.4909,-1.5004,-1.5045,-1.5052,-1.5099,-1.5113,-1.512,-1.5167,-1.5153,-1.5113,-1.5113,-1.5079,-1.5052,-1.5099,-1.5079,-1.5052,-1.5106,-1.5147,-1.516,-1.5065,-1.5004,-1.4997,-1.5092,-1.4957,-1.4875,-1.5079,-1.5072,-1.5052,-1.5106,-1.5153,-1.5181,-1.5181,-1.5181,-1.5181,-1.5181,-1.5181,-1.5181,-1.5181,-1.5181,-1.5181,-1.5181,-1.5181,-1.5181,-1.5181,-1.5181,-1.5276,-1.5486,-1.5588,-1.5737,-1.594,-1.6035,-1.6205,-1.6456,-1.6544,-1.67,-1.691,-1.6958,-1.6978,-1.0412,-1.0602,-1.0867,-1.147,-1.1626,-1.1904,-1.2942,-1.3064,-1.322,-1.4116,-1.4055,-1.3939,-1.4245,-1.4048,-1.3994,-1.4434,-1.4638,-1.4794,-1.4943,-1.5086,-1.5235,-1.5391,-1.5404,-1.5466,-1.5622,-1.5635,-1.5635,-1.5635,-1.5635,-1.5567,-1.5418,-1.5554,-1.5493,-1.5194,-1.533,-1.5337,-1.5181,-1.5181,-1.5181,-1.5181,-1.5181,-1.5262,-1.5404,-1.5248,-1.5181,-1.5181,-1.5181,-1.5181,-1.5167,-1.5025,-1.4875,-1.474,-1.474,-1.474,-1.474,-1.474,-1.474,-1.476,-1.4916,-1.497,-1.4991,-1.5133,-1.5086,-1.497,-1.497,-1.4862,-1.4774,-1.493,-1.4862,-1.4774,-1.493,-1.5072,-1.5106,-1.4808,-1.4855,-1.497,-1.497,-1.497,-1.497,-1.497,-1.5086,-1.514,-1.4997,-1.5086,-1.5181,-1.5181,-1.5181,-1.5181,-1.5181,-1.5181,-1.5181,-1.5181,-1.5181,-1.5181,-1.5181,-1.5181,-1.5181,-1.5181,-1.5181,-1.5181,-1.5181,-1.5479,-1.5642,-1.5642,-1.5927,-1.6157,-1.6307,-1.6605,-1.6748,-1.6754,-1.6904,-1.6978,-1.0317,-1.0683,-1.1124,-1.1518,-1.2094,-1.2698,-1.3214,-1.3302,-1.3464,-1.4156,-1.4224,-1.4156,-1.4143,-1.415,-1.417,-1.4197,-1.4414,-1.4597,-1.4638,-1.4774,-1.493,-1.5086,-1.5099,-1.516,-1.5303,-1.5316,-1.5316,-1.5316,-1.5316,-1.5296,-1.5255,-1.5296,-1.5276,-1.5187,-1.5228,-1.5228,-1.5181,-1.5181,-1.5133,-1.5031,-1.5031,-1.5113,-1.5248,-1.5201,-1.5181,-1.5181,-1.5181,-1.5126,-1.5025,-1.4869,-1.478,-1.474,-1.474,-1.4672,-1.459,-1.4699,-1.474,-1.4746,-1.4794,-1.4882,-1.4977,-1.5018,-1.5072,-1.5099,-1.5004,-1.4936,-1.4909,-1.4957,-1.4862,-1.4753,-1.4794,-1.4841,-1.4848,-1.476,-1.4692,-1.4679,-1.4787,-1.4726,-1.4679,-1.4787,-1.493,-1.5018,-1.4977,-1.5086,-1.5181,-1.5181,-1.5181,-1.5147,-1.5045,-1.512,-1.5147,-1.5045,-1.512,-1.5181,-1.5181,-1.5181,-1.5181,-1.5181,-1.5282,-1.5343,-1.5343,-1.5432,-1.5574,-1.5784,-1.5872,-1.6049,-1.6307,-1.6395,-1.649,-1.6592,-1.6639,-1.6659,-1.0568,-1.0934,-1.1396,-1.1999,-1.2515,-1.301,-1.3546,-1.3715,-1.3858,-1.4224,-1.4251,-1.4197,-1.417,-1.419,-1.4197,-1.417,-1.436,-1.4509,-1.4509,-1.4645,-1.4774,-1.4869,-1.4936,-1.5004,-1.5092,-1.5147,-1.5181,-1.5181,-1.5181,-1.5181,-1.5181,-1.5181,-1.5181,-1.5181,-1.5126,-1.5099,-1.5099,-1.5038,-1.4964,-1.4875,-1.4875,-1.4923,-1.5004,-1.5004,-1.5072,-1.5181,-1.5181,-1.5031,-1.4787,-1.4753,-1.4672,-1.4563,-1.4563,-1.4509,-1.4441,-1.4529,-1.4563,-1.457,-1.4631,-1.4713,-1.4801,-1.4862,-1.4936,-1.4977,-1.4835,-1.4787,-1.4801,-1.4862,-1.4767,-1.4665,-1.4726,-1.4692,-1.4631,-1.4577,-1.4536,-1.4557,-1.4706,-1.4618,-1.4577,-1.4787,-1.4855,-1.4875,-1.4875,-1.4997,-1.5099,-1.5099,-1.5147,-1.5133,-1.4991,-1.5092,-1.5106,-1.4903,-1.5059,-1.516,-1.5106,-1.5153,-1.5181,-1.5181,-1.5269,-1.5316,-1.5316,-1.5377,-1.5493,-1.5676,-1.5737,-1.5886,-1.613,-1.6252,-1.6354,-1.6435,-1.6497,-1.6524,-1.0975,-1.1253,-1.1633,-1.2664,-1.2874,-1.3051,-1.3899,-1.4197,-1.4299,-1.4299,-1.419,-1.4136,-1.4272,-1.4183,-1.4136,-1.4278,-1.4407,-1.4489,-1.4489,-1.4611,-1.4706,-1.4719,-1.4841,-1.4936,-1.495,-1.5065,-1.514,-1.514,-1.514,-1.514,-1.514,-1.5153,-1.5153,-1.514,-1.5031,-1.4964,-1.495,-1.4808,-1.4733,-1.4719,-1.4719,-1.4719,-1.4719,-1.4733,-1.4889,-1.514,-1.5126,-1.4896,-1.4543,-1.4652,-1.455,-1.4319,-1.4306,-1.4299,-1.4299,-1.4299,-1.4299,-1.4319,-1.4448,-1.4502,-1.4536,-1.4672,-1.4726,-1.4713,-1.4557,-1.4509,-1.4543,-1.4699,-1.4618,-1.4529,-1.4699,-1.4618,-1.4462,-1.4333,-1.4401,-1.4529,-1.4672,-1.4604,-1.459,-1.4855,-1.4821,-1.4733,-1.4719,-1.4862,-1.4977,-1.4991,-1.5099,-1.5126,-1.497,-1.5072,-1.5052,-1.4753,-1.497,-1.5092,-1.4984,-1.5086,-1.5167,-1.5181,-1.5181,-1.5181,-1.5181,-1.5316,-1.5404,-1.5432,-1.5567,-1.5716,-1.5872,-1.6151,-1.6286,-1.6293,-1.6422,-1.6483,-1.0751,-1.1097,-1.1586,-1.24,-1.3105,-1.3715,-1.415,-1.4278,-1.4299,-1.4299,-1.4272,-1.4265,-1.4292,-1.4272,-1.4265,-1.4292,-1.4326,-1.4346,-1.4346,-1.4373,-1.4434,-1.455,-1.459,-1.4658,-1.478,-1.4814,-1.4835,-1.4835,-1.4835,-1.4835,-1.4835,-1.495,-1.4957,-1.4841,-1.4923,-1.4909,-1.4794,-1.4753,-1.4679,-1.4563,-1.4563,-1.4563,-1.4563,-1.4685,-1.4774,-1.4828,-1.4706,-1.4665,-1.4672,-1.4475,-1.4421,-1.4455,-1.4346,-1.4299,-1.4299,-1.4299,-1.4299,-1.4306,-1.4333,-1.4421,-1.4516,-1.455,-1.4638,-1.4713,-1.4557,-1.4509,-1.4543,-1.4699,-1.455,-1.4407,-1.4672,-1.4543,-1.434,-1.4306,-1.4326,-1.4353,-1.4387,-1.4455,-1.4496,-1.4455,-1.4604,-1.4699,-1.4584,-1.4787,-1.5011,-1.512,-1.516,-1.5086,-1.4821,-1.4923,-1.4903,-1.459,-1.4726,-1.4869,-1.4964,-1.4997,-1.5065,-1.5174,-1.5181,-1.5181,-1.5181,-1.5215,-1.5343,-1.5588,-1.5622,-1.5771,-1.6035,-1.6096,-1.613,-1.613,-1.6164,-1.6178,-1.1955,-1.176,-1.1714,-1.2603,-1.3336,-1.3885,-1.4041,-1.4136,-1.419,-1.419,-1.4251,-1.4299,-1.4299,-1.4299,-1.4299,-1.4299,-1.4299,-1.4299,-1.4299,-1.4299,-1.4326,-1.4401,-1.4468,-1.4543,-1.4624,-1.4699,-1.474,-1.474,-1.474,-1.474,-1.474,-1.4814,-1.4821,-1.474,-1.4746,-1.4713,-1.4631,-1.4563,-1.4489,-1.4414,-1.4414,-1.4414,-1.4421,-1.4638,-1.4665,-1.4529,-1.459,-1.4584,-1.4523,-1.4434,-1.4407,-1.4401,-1.4326,-1.4299,-1.4299,-1.4299,-1.4299,-1.4299,-1.4299,-1.4346,-1.4414,-1.4414,-1.4462,-1.4516,-1.4434,-1.4414,-1.4441,-1.459,-1.4523,-1.4434,-1.459,-1.4516,-1.4387,-1.4319,-1.4299,-1.4319,-1.4387,-1.4407,-1.4428,-1.4496,-1.4523,-1.4523,-1.4516,-1.4706,-1.493,-1.5153,-1.5181,-1.5099,-1.4875,-1.4984,-1.493,-1.455,-1.4713,-1.4855,-1.4862,-1.493,-1.5031,-1.5174,-1.5181,-1.5181,-1.5181,-1.5255,-1.5364,-1.5527,-1.5601,-1.575,-1.5974,-1.6049,-1.6083,-1.6083,-1.6083,-1.6083,-1.3353,-1.254,-1.1932,-1.2929,-1.3471,-1.3777,-1.3831,-1.3939,-1.4041,-1.4068,-1.419,-1.4299,-1.4299,-1.4299,-1.4299,-1.4299,-1.4299,-1.4299,-1.4299,-1.4299,-1.4299,-1.4299,-1.4407,-1.4475,-1.4475,-1.459,-1.4665,-1.4665,-1.4665,-1.4665,-1.4665,-1.4685,-1.4685,-1.4665,-1.4563,-1.4502,-1.4475,-1.436,-1.4299,-1.4299,-1.4299,-1.4299,-1.4306,-1.4557,-1.4529,-1.4312,-1.4557,-1.4523,-1.4306,-1.4428,-1.4407,-1.4299,-1.4299,-1.4299,-1.4299,-1.4299,-1.4299,-1.4299,-1.4299,-1.4299,-1.4299,-1.4299,-1.4299,-1.4299,-1.4299,-1.4299,-1.4333,-1.4468,-1.4496,-1.4482,-1.4502,-1.4496,-1.4448,-1.4326,-1.4299,-1.4333,-1.4448,-1.438,-1.4373,-1.4618,-1.4468,-1.4353,-1.4523,-1.4658,-1.4835,-1.5106,-1.5147,-1.5086,-1.4916,-1.4991,-1.4916,-1.4516,-1.4699,-1.4821,-1.4746,-1.4855,-1.5004,-1.5174,-1.5181,-1.5181,-1.5181,-1.5303,-1.5384,-1.5411,-1.5588,-1.575,-1.5893,-1.6022,-1.6083,-1.6083,-1.6083,-1.6069,-1.3238,-1.2519,-1.2189,-1.2976,-1.3315,-1.3526,-1.3783,-1.3858,-1.3912,-1.4041,-1.419,-1.4299,-1.4299,-1.4299,-1.4299,-1.4299,-1.4299,-1.4299,-1.4299,-1.4299,-1.4299,-1.4299,-1.4319,-1.4326,-1.4326,-1.4346,-1.436,-1.436,-1.436,-1.436,-1.436,-1.4475,-1.4482,-1.4367,-1.4462,-1.4455,-1.4333,-1.4306,-1.4299,-1.4299,-1.4299,-1.4299,-1.4299,-1.434,-1.434,-1.4299,-1.434,-1.434,-1.4299,-1.4319,-1.4319,-1.4299,-1.4299,-1.4299,-1.4299,-1.4299,-1.4299,-1.4299,-1.4299,-1.4299,-1.4299,-1.4299,-1.4299,-1.4299,-1.4299,-1.4299,-1.4333,-1.4468,-1.4421,-1.4353,-1.4482,-1.4421,-1.4326,-1.4306,-1.4299,-1.4306,-1.4326,-1.4312,-1.4312,-1.4353,-1.4326,-1.4387,-1.4665,-1.4726,-1.4801,-1.497,-1.4997,-1.4896,-1.4611,-1.459,-1.4529,-1.4346,-1.4367,-1.4482,-1.4719,-1.476,-1.4889,-1.5167,-1.5181,-1.5181,-1.5181,-1.5201,-1.5276,-1.5411,-1.5683,-1.59,-1.6049,-1.6069,-1.6083,-1.6083,-1.6083,-1.6008,-1.3748,-1.3191,-1.3155,-1.2968,-1.3037,-1.3234,-1.3526,-1.3661,-1.3743,-1.381,-1.3939,-1.4095,-1.4272,-1.4299,-1.4299,-1.4299,-1.4299,-1.4299,-1.4299,-1.4299,-1.4299,-1.4299,-1.4299,-1.4299,-1.4299,-1.4299,-1.4299,-1.4299,-1.4299,-1.4299,-1.4299,-1.436,-1.4367,-1.4299,-1.436,-1.4367,-1.4299,-1.4299,-1.4299,-1.4299,-1.4299,-1.4299,-1.4299,-1.4299,-1.4299,-1.4299,-1.4299,-1.4299,-1.4299,-1.4299,-1.4299,-1.4299,-1.4299,-1.4299,-1.4299,-1.4299,-1.4299,-1.4299,-1.4299,-1.4299,-1.4299,-1.4299,-1.4299,-1.4299,-1.4299,-1.4299,-1.4312,-1.4373,-1.4346,-1.4312,-1.438,-1.4346,-1.4299,-1.4299,-1.4299,-1.4299,-1.4299,-1.4299,-1.4299,-1.4299,-1.4299,-1.4367,-1.4577,-1.4611,-1.4665,-1.4821,-1.4841,-1.4794,-1.4658,-1.4638,-1.4584,-1.4434,-1.4421,-1.4509,-1.4719,-1.474,-1.4869,-1.516,-1.5181,-1.5181,-1.5181,-1.5262,-1.5343,-1.5411,-1.554,-1.5683,-1.5832,-1.5913,-1.5913,-1.5839,-1.5913,-1.5872,-1.5025,-1.4173,-1.3681,-1.3268,-1.2984,-1.2888,-1.3261,-1.3431,-1.3532,-1.3614,-1.3715,-1.3865,-1.4136,-1.4217,-1.4251,-1.4292,-1.4299,-1.4299,-1.4299,-1.4299,-1.4299,-1.4299,-1.4299,-1.4299,-1.4299,-1.4299,-1.4299,-1.4299,-1.4299,-1.4299,-1.4299,-1.4299,-1.4299,-1.4299,-1.4299,-1.4299,-1.4299,-1.4299,-1.4299,-1.4299,-1.4299,-1.4299,-1.4299,-1.4299,-1.4299,-1.4299,-1.4299,-1.4299,-1.4299,-1.4299,-1.4299,-1.4299,-1.4299,-1.4299,-1.4299,-1.4299,-1.4299,-1.4299,-1.4299,-1.4299,-1.4299,-1.4299,-1.4299,-1.4299,-1.4299,-1.4299,-1.4299,-1.4299,-1.4299,-1.4299,-1.4299,-1.4299,-1.4299,-1.4299,-1.4299,-1.4299,-1.4299,-1.4299,-1.4299,-1.4299,-1.4299,-1.4346,-1.4489,-1.4509,-1.455,-1.4665,-1.4679,-1.4672,-1.4631,-1.4624,-1.4584,-1.4468,-1.4462,-1.4516,-1.4672,-1.4719,-1.4848,-1.5113,-1.5126,-1.5126,-1.5126,-1.5242,-1.5296,-1.5296,-1.5337,-1.5445,-1.5642,-1.5744,-1.5744,-1.5642,-1.575,-1.5716,-1.7467,-1.5435,-1.3385,-1.4326,-1.3477,-1.2474,-1.3051,-1.3193,-1.3275,-1.3566,-1.3634,-1.3688,-1.3838,-1.3987,-1.4129,-1.4278,-1.4299,-1.4299,-1.4299,-1.4299,-1.4299,-1.4299,-1.4299,-1.4299,-1.4299,-1.4299,-1.4299,-1.4299,-1.4299,-1.4299,-1.4299,-1.4299,-1.4299,-1.4299,-1.4299,-1.4299,-1.4299,-1.4299,-1.4299,-1.4299,-1.4299,-1.4299,-1.4299,-1.4299,-1.4299,-1.4299,-1.4299,-1.4299,-1.4299,-1.4299,-1.4299,-1.4299,-1.4299,-1.4299,-1.4299,-1.4299,-1.4299,-1.4299,-1.4299,-1.4299,-1.4299,-1.4299,-1.4299,-1.4299,-1.4299,-1.4299,-1.4299,-1.4299,-1.4299,-1.4299,-1.4299,-1.4299,-1.4299,-1.4299,-1.4299,-1.4299,-1.4299,-1.4299,-1.4299,-1.4299,-1.4299,-1.4346,-1.4489,-1.4509,-1.4516,-1.4523,-1.4523,-1.4475,-1.434,-1.4326,-1.4319,-1.4312,-1.4312,-1.4367,-1.4509,-1.4658,-1.4808,-1.497,-1.4984,-1.4984,-1.4984,-1.4991,-1.4991,-1.4991,-1.5126,-1.5343,-1.5642,-1.5649,-1.5649,-1.5642,-1.5649,-1.5567,-1.7349,-1.6633,-1.5836,-1.5797,-1.4779,-1.3958,-1.4345,-1.3756,-1.3207,-1.3315,-1.3417,-1.3526,-1.3675,-1.3824,-1.3939,-1.3994,-1.4089,-1.4156,-1.4156,-1.4238,-1.4299,-1.4299,-1.4299,-1.4299,-1.4299,-1.4299,-1.4299,-1.4299,-1.4299,-1.4299,-1.4299,-1.4299,-1.4299,-1.4299,-1.4299,-1.4299,-1.4299,-1.4299,-1.4299,-1.4299,-1.4299,-1.4299,-1.4299,-1.4299,-1.4299,-1.4299,-1.4299,-1.4299,-1.4299,-1.4299,-1.4299,-1.4299,-1.4299,-1.4299,-1.4299,-1.4299,-1.4299,-1.4299,-1.4299,-1.4299,-1.4299,-1.4299,-1.4299,-1.4299,-1.4299,-1.4299,-1.4299,-1.4299,-1.4299,-1.4299,-1.4299,-1.4299,-1.4299,-1.4299,-1.4299,-1.4299,-1.4299,-1.4299,-1.4299,-1.4299,-1.4299,-1.4748,-1.6367,-1.664,-1.664,-1.664,-1.664,-1.6095,-1.4483,-1.4299,-1.4299,-1.4299,-1.4299,-1.436,-1.4502,-1.4563,-1.4658,-1.4814,-1.4821,-1.4869,-1.497,-1.497,-1.5011,-1.5106,-1.5153,-1.5235,-1.5343,-1.5445,-1.5445,-1.535,-1.5445,-1.5411,-1.784,-1.7529,-1.7202,-1.7343,-1.6228,-1.5145,-1.5311,-1.4516,-1.3641,-1.3295,-1.3254,-1.337,-1.3526,-1.3627,-1.3729,-1.3824,-1.3926,-1.3994,-1.3994,-1.4082,-1.4163,-1.4217,-1.4224,-1.4245,-1.4292,-1.4299,-1.4299,-1.4299,-1.4299,-1.4299,-1.4299,-1.4299,-1.4299,-1.4299,-1.4299,-1.4299,-1.4299,-1.4299,-1.4299,-1.4299,-1.4299,-1.4299,-1.4299,-1.4299,-1.4299,-1.4299,-1.4299,-1.4299,-1.4299,-1.4299,-1.4299,-1.4299,-1.4299,-1.4299,-1.4299,-1.4299,-1.4299,-1.4299,-1.4299,-1.4299,-1.4299,-1.4299,-1.4299,-1.4299,-1.4299,-1.4299,-1.4299,-1.4299,-1.4299,-1.4299,-1.4299,-1.4299,-1.4299,-1.4299,-1.4299,-1.4299,-1.4299,-1.4299,-1.4557,-1.5344,-1.5513,-1.621,-1.854,-1.8976,-1.8976,-1.8976,-1.8976,-1.8366,-1.6817,-1.5946,-1.5513,-1.5513,-1.4734,-1.434,-1.4434,-1.4529,-1.4611,-1.4658,-1.476,-1.4841,-1.4889,-1.4943,-1.5018,-1.5113,-1.516,-1.5181,-1.5181,-1.5282,-1.5282,-1.5181,-1.5289,-1.5282,0.0,0.0,0.0,-1.9014,-1.7682,-1.5953,-1.5885,-1.543,-1.4634,-1.35,-1.3227,-1.3282,-1.3356,-1.339,-1.3485,-1.3777,-1.3831,-1.3745,-1.3745,-1.3838,-1.3899,-1.4048,-1.4061,-1.4122,-1.4278,-1.438,-1.438,-1.4299,-1.4387,-1.4387,-1.4299,-1.4299,-1.4299,-1.4299,-1.4299,-1.4299,-1.4299,-1.4299,-1.4299,-1.4299,-1.4299,-1.4299,-1.4299,-1.4299,-1.4299,-1.4299,-1.4299,-1.4299,-1.4299,-1.4299,-1.4299,-1.4299,-1.4299,-1.4299,-1.4299,-1.4299,-1.4299,-1.4299,-1.4299,-1.4299,-1.4299,-1.4299,-1.4299,-1.4299,-1.4299,-1.4299,-1.4299,-1.4299,-1.4299,-1.4299,-1.4299,-1.4299,-1.4299,-1.4299,-1.4299,-1.4299,-1.4387,-1.4387,-1.508,-1.7326,-1.7851,-1.8627,-2.0875,-2.1307,-2.1307,-2.1307,-2.1307,-2.1307,-2.1221,-1.9228,-1.7842,-1.7851,-1.577,-1.4387,-1.4299,-1.4563,-1.4665,-1.4516,-1.4787,-1.4896,-1.4746,-1.4889,-1.497,-1.4977,-1.5106,-1.5181,-1.5181,-1.5181,-1.5181,-1.5181,-1.5181,-1.5181,-1.8317,0.0,0.0,0.0,0.0,0.0,-1.8047,-1.7215,-1.6021,-1.4726,-1.4532,-1.4241,-1.3272,-1.3166,-1.3261,-1.3342,-1.3546,-1.3688,-1.3688,-1.3777,-1.3858,-1.3899,-1.3905,-1.3966,-1.4122,-1.5685,-1.5992,-1.438,-1.5858,-1.6122,-1.4387,-1.4299,-1.4299,-1.4299,-1.4299,-1.4299,-1.4299,-1.4299,-1.4299,-1.4299,-1.4299,-1.4299,-1.4299,-1.4299,-1.4299,-1.4299,-1.4299,-1.4299,-1.4299,-1.4299,-1.4299,-1.4299,-1.4299,-1.4299,-1.4299,-1.4299,-1.4299,-1.4299,-1.4299,-1.4299,-1.4299,-1.4299,-1.4299,-1.4299,-1.4299,-1.4299,-1.4299,-1.4299,-1.4299,-1.4299,-1.4299,-1.4299,-1.4299,-1.4299,-1.4299,-1.4734,-1.6466,-1.6809,-1.6984,-1.7676,-1.915,-2.0962,-2.3298,-2.3738,-2.3738,-2.3738,-2.3738,-2.3126,-2.1394,-2.0616,-1.9662,-1.8017,-1.7247,-1.6122,-1.4476,-1.4373,-1.4401,-1.436,-1.4536,-1.4665,-1.4733,-1.4889,-1.5018,-1.512,-1.5065,-1.5079,-1.5181,-1.5181,-1.5181,-1.5181,-1.5181,-1.5181,-1.8328,-1.8878,-1.9618,-2.0334,0.0,0.0,-1.8551,-1.7565,-1.6268,-1.4204,-1.3862,-1.3699,-1.2961,-1.2888,-1.301,-1.3071,-1.3281,-1.3458,-1.3526,-1.3607,-1.3682,-1.3743,-1.3749,-1.381,-1.396,-1.5167,-1.5463,-1.4189,-1.5461,-1.6133,-1.577,-1.577,-1.577,-1.577,-1.4822,-1.4299,-1.4299,-1.4299,-1.4299,-1.4299,-1.5256,-1.5256,-1.4387,-1.6298,-1.6122,-1.4387,-1.5337,-1.5168,-1.4299,-1.4299,-1.4299,-1.4299,-1.4299,-1.4299,-1.4299,-1.4299,-1.4299,-1.4299,-1.4299,-1.4299,-1.4299,-1.4299,-1.4299,-1.4299,-1.4299,-1.4299,-1.4299,-1.4299,-1.4299,-1.4299,-1.4299,-1.4299,-1.4299,-1.4299,-1.4299,-1.4911,-1.7326,-1.854,-1.9488,-2.0529,-2.1739,-2.3384,-2.5726,-2.6151,-2.6151,-2.6151,-2.6151,-2.5629,-2.4326,-2.3298,-2.1739,-1.9488,-1.8366,-1.6809,-1.4476,-1.4353,-1.4367,-1.4306,-1.4496,-1.4645,-1.4733,-1.4828,-1.497,-1.5181,-1.4977,-1.495,-1.5092,-1.5092,-1.5126,-1.5181,-1.5181,-1.5181,-1.8905,-1.9212,-1.9773,-2.1145,-2.1069,0.0,-1.8298,-1.7524,-1.638,-1.3593,-1.3057,-1.3032,-1.2977,-1.3155,-1.3312,-1.344,-1.3486,-1.3445,-1.3376,-1.3403,-1.3451,-1.3587,-1.3607,-1.3661,-1.3718,-1.3981,-1.4074,-1.3838,-1.3987,-1.5162,-1.7634,-1.7746,-1.7763,-1.7763,-1.5778,-1.4646,-1.4646,-1.4646,-1.4822,-1.508,-1.7159,-1.7071,-1.5168,-1.9324,-1.8976,-1.5168,-1.7247,-1.6984,-1.508,-1.4822,-1.4557,-1.4299,-1.4299,-1.4299,-1.4299,-1.4299,-1.4299,-1.4299,-1.4299,-1.4299,-1.4299,-1.4299,-1.4299,-1.4299,-1.4299,-1.4299,-1.4299,-1.4299,-1.4299,-1.4299,-1.4299,-1.4299,-1.4299,-1.4299,-1.4476,-1.5344,-1.7676,-2.0009,-2.2256,-2.4605,-2.5117,-2.5726,-2.7883,-2.8221,-2.8221,-2.8221,-2.8221,-2.8221,-2.8221,-2.6418,-2.4081,-2.148,-1.9401,-1.7159,-1.4564,-1.4414,-1.4434,-1.4306,-1.4563,-1.4713,-1.4713,-1.4733,-1.4862,-1.5126,-1.4875,-1.4801,-1.4923,-1.4957,-1.5045,-1.5181,-1.5181,-1.5174,-1.9332,-1.9666,-2.0134,-2.0414,-2.0762,0.0,-2.0463,-2.0499,-2.0108,-1.8132,-1.766,-1.7372,-1.6149,-1.6305,-1.6508,-1.6232,-1.5718,-1.4838,-1.3611,-1.3403,-1.341,-1.3444,-1.3444,-1.3505,-1.3654,-1.5325,-1.5708,-1.3916,-1.3987,-1.5111,-1.7457,-1.7679,-1.7763,-1.7763,-1.7326,-1.7159,-1.7159,-1.7159,-1.8025,-1.9836,-2.0356,-2.0269,-1.9836,-2.0789,-2.0702,-1.9836,-2.0356,-2.0269,-1.9671,-1.7851,-1.6034,-1.4299,-1.4299,-1.4299,-1.4299,-1.4299,-1.4299,-1.4299,-1.4299,-1.4299,-1.4299,-1.4299,-1.4299,-1.4299,-1.4299,-1.4299,-1.4299,-1.4299,-1.4299,-1.4299,-1.4299,-1.4299,-1.4299,-1.4299,-1.5778,-1.7763,-2.0009,-2.2342,-2.4679,-2.7096,-2.7532,-2.7617,-2.8136,-2.8221,-2.8221,-2.8221,-2.8221,-2.8221,-2.8221,-2.7799,-2.5884,-2.1653,-2.0789,-1.8802,-1.4646,-1.4326,-1.4333,-1.4299,-1.4462,-1.4557,-1.4557,-1.4672,-1.4767,-1.4828,-1.4767,-1.4692,-1.4604,-1.4848,-1.5045,-1.5181,-1.5181,-1.512,-1.992,-2.012,-2.0521,-2.0815,-2.1002,0.0,0.0,-2.0163,-1.974,-1.8227,-1.7125,-1.6206,-1.5626,-1.4937,-1.4745,-1.5696,-1.4818,-1.4094,-1.4343,-1.3707,-1.3692,-1.4661,-1.4824,-1.4944,-1.4863,-1.6081,-1.5961,-1.3892,-1.4971,-1.6207,-1.7398,-1.8781,-1.9488,-1.9488,-1.9488,-1.9488,-1.9488,-1.9488,-2.0096,-2.1221,-2.2428,-2.2342,-2.1307,-2.3641,-2.3384,-2.1307,-2.2428,-2.2256,-2.1048,-1.8714,-1.7071,-1.5946,-1.4734,-1.4299,-1.4299,-1.4299,-1.4299,-1.4299,-1.4299,-1.4299,-1.4299,-1.4299,-1.4299,-1.4299,-1.4299,-1.4299,-1.4299,-1.4299,-1.4299,-1.4299,-1.4299,-1.4299,-1.4299,-1.4299,-1.6122,-1.8453,-2.0702,-2.3041,-2.5373,-2.7714,-2.8221,-2.8221,-2.8221,-2.8221,-2.8221,-2.8221,-2.8221,-2.8221,-2.8221,-2.7194,-2.5117,-2.1566,-2.0183,-1.8113,-1.4564,-1.4299,-1.4299,-1.4299,-1.4367,-1.4434,-1.4509,-1.4516,-1.4523,-1.4523,-1.459,-1.459,-1.4509,-1.4665,-1.4814,-1.4964,-1.4964,-1.4923,-2.0548,-2.0615,-2.0949,-2.1427,-2.1376,-2.0978,0.0,0.0,0.0,-1.7868,-1.6098,-1.4891,-1.5456,-1.4095,-1.3518,-1.56,-1.4709,-1.4303,-1.5861,-1.4913,-1.4571,-1.5938,-1.622,-1.6495,-1.6771,-1.6921,-1.6196,-1.4307,-1.5881,-1.7289,-1.8101,-2.0095,-2.1343,-2.1825,-2.1825,-2.1825,-2.1825,-2.1825,-2.2084,-2.26,-2.4508,-2.4423,-2.2686,-2.6491,-2.6139,-2.2686,-2.4508,-2.4337,-2.2342,-2.0096,-1.915,-1.8802,-1.5601,-1.4299,-1.4299,-1.4299,-1.4299,-1.4299,-1.4299,-1.4299,-1.4299,-1.4299,-1.4299,-1.4299,-1.4299,-1.4299,-1.4299,-1.4299,-1.4299,-1.4299,-1.4299,-1.4299,-1.4387,-1.4911,-1.6729,-1.9054,-2.1394,-2.3727,-2.5896,-2.7799,-2.8221,-2.8221,-2.8221,-2.8221,-2.8221,-2.8221,-2.8221,-2.8221,-2.8221,-2.6588,-2.4508,-2.2084,-1.9836,-1.7501,-1.5168,-1.4564,-1.4299,-1.4299,-1.4299,-1.4353,-1.4468,-1.436,-1.4299,-1.4299,-1.4414,-1.4468,-1.4468,-1.4468,-1.4563,-1.474,-1.474,-1.4726,-2.1096,-2.1229,-2.1467,-2.1203,-2.1523,-2.1698,-2.1054,0.0,-2.1161,-2.0708,0.0,-1.8477,-2.0003,0.0,0.0,-2.0142,-1.9734,-1.9085,-1.8827,-1.7744,-1.6749,-1.5905,-1.5951,-1.6898,-1.8906,-1.8671,-1.7775,-1.6401,-1.6007,-1.7179,-2.0229,-2.0807,-2.2044,-2.424,-2.4337,-2.4337,-2.4337,-2.4337,-2.5373,-2.7448,-2.7714,-2.7617,-2.7448,-2.7968,-2.7883,-2.7448,-2.7701,-2.7617,-2.7194,-2.4861,-2.3909,-2.3309,-1.6817,-1.4299,-1.4299,-1.4299,-1.4299,-1.4299,-1.4299,-1.4299,-1.4299,-1.4299,-1.4299,-1.4299,-1.4299,-1.4299,-1.4299,-1.4299,-1.4299,-1.4299,-1.4299,-1.4299,-1.4822,-1.6896,-1.915,-2.148,-2.3824,-2.6151,-2.7883,-2.8136,-2.8221,-2.8221,-2.8221,-2.8221,-2.8221,-2.8221,-2.8221,-2.8221,-2.8221,-2.7968,-2.6927,-2.4508,-2.217,-1.9922,-1.7588,-1.5513,-1.4299,-1.4299,-1.4299,-1.4306,-1.4326,-1.4306,-1.4299,-1.4299,-1.4319,-1.4326,-1.4326,-1.4326,-1.4468,-1.474,-1.474,-1.4665,-2.1189,-2.1323,-2.1588,-2.1403,-2.155,-2.167,-2.143,-2.1336,-2.1309,-2.1363,0.0,0.0,0.0,0.0,0.0,0.0,-1.8764,-1.8241,-1.9071,-1.7956,-1.7434,-1.8407,-1.8512,-1.9062,-2.0473,-1.8125,-1.6458,-1.6292,-1.5872,-1.6415,-1.8257,-2.0036,-2.2033,-2.4371,-2.5895,-2.6758,-2.6758,-2.6758,-2.7194,-2.8221,-2.8221,-2.8221,-2.8221,-2.8221,-2.8221,-2.8221,-2.8221,-2.8221,-2.8052,-2.5641,-2.4691,-2.4252,-2.0019,-1.8287,-1.8113,-1.6817,-1.629,-1.6122,-1.4734,-1.4299,-1.4299,-1.4299,-1.4299,-1.4299,-1.4299,-1.4299,-1.4299,-1.4299,-1.4299,-1.4299,-1.4299,-1.4299,-1.4911,-1.7247,-1.9575,-2.1825,-2.4166,-2.6503,-2.8221,-2.8221,-2.8221,-2.8221,-2.8221,-2.8221,-2.8221,-2.8221,-2.8221,-2.8221,-2.8221,-2.7012,-2.5811,-2.4776,-2.1394,-1.8802,-1.7851,-1.569,-1.4299,-1.4299,-1.4299,-1.4299,-1.4299,-1.4299,-1.4299,-1.4299,-1.4299,-1.4299,-1.4299,-1.4299,-1.4367,-1.4482,-1.4482,-1.4448,-2.1336,-2.1443,-2.1695,-2.147,-2.1561,-2.1601,-2.1443,-2.1323,-2.1269,-2.1403,-1.995,0.0,0.0,0.0,-1.7271,-1.9225,0.0,-1.8272,-1.9549,-1.8778,-1.8666,-2.0085,-2.0816,-2.1533,-2.2103,-1.9202,-1.7331,-1.7539,-1.7148,-1.7009,-1.7511,-2.0163,-2.2536,-2.4207,-2.6871,-2.8221,-2.8221,-2.8221,-2.8221,-2.8221,-2.8221,-2.8221,-2.8221,-2.8221,-2.8221,-2.8221,-2.8221,-2.8221,-2.8052,-2.6333,-2.5641,-2.5458,-2.3812,-2.3115,-2.2686,-1.9141,-1.7413,-1.6641,-1.4911,-1.4299,-1.4299,-1.4299,-1.4299,-1.4299,-1.4299,-1.4299,-1.4299,-1.4299,-1.4299,-1.4299,-1.4299,-1.4299,-1.4911,-1.7247,-1.9063,-2.0875,-2.3212,-2.5105,-2.6321,-2.6321,-2.6321,-2.6321,-2.6321,-2.7363,-2.8221,-2.8221,-2.8221,-2.8221,-2.8221,-2.6151,-2.4691,-2.4691,-2.0529,-1.7763,-1.7763,-1.569,-1.4299,-1.4299,-1.4299,-1.4299,-1.4299,-1.4299,-1.4299,-1.4299,-1.4299,-1.4299,-1.4299,-1.4299,-1.4299,-1.4299,-1.4299,-1.4299,-2.1762,-2.175,-2.183,-2.1269,-2.1336,-2.1547,-2.1189,-2.1336,-2.1456,-2.1176,-1.9963,-1.9403,-2.0781,-1.961,-1.896,-2.0729,-2.1235,0.0,0.0,-2.1261,-2.1005,-1.9787,-2.202,-2.3803,-2.4109,-2.321,-2.2357,-2.1679,-2.055,-1.9933,-1.9826,-2.2181,-2.3786,-2.4448,-2.6871,-2.8221,-2.8221,-2.8221,-2.8221,-2.8221,-2.8221,-2.8221,-2.8221,-2.8221,-2.8221,-2.8221,-2.8221,-2.8221,-2.8221,-2.8136,-2.8052,-2.8052,-2.7968,-2.7968,-2.7181,-2.0356,-1.6378,-1.4387,-1.4299,-1.4299,-1.4299,-1.4299,-1.4299,-1.4299,-1.4299,-1.4299,-1.4299,-1.4299,-1.4299,-1.4299,-1.4299,-1.4299,-1.4911,-1.7247,-1.7851,-1.854,-2.0789,-2.1394,-2.1394,-2.1394,-2.1394,-2.1394,-2.1394,-2.5191,-2.8221,-2.8221,-2.8221,-2.8221,-2.8221,-2.6151,-2.4691,-2.4691,-2.0529,-1.7763,-1.7763,-1.569,-1.4299,-1.4299,-1.4299,-1.4299,-1.4299,-1.4299,-1.4299,-1.4299,-1.4299,-1.4299,-1.4299,-1.4299,-1.4299,-1.4299,-1.4299,-1.4299,0.0,0.0,-2.2138,-2.155,0.0,-2.171,-2.1216,-2.1336,-2.1534,-2.1176,-2.0888,-2.0799,-2.1036,-2.0589,-2.0386,-2.0982,-2.1189,-2.1229,0.0,-2.1189,-2.121,-2.0926,-2.104,-2.1565,-2.2629,-2.0488,-1.9591,-2.0947,-1.9508,-1.9328,-2.1223,-2.2543,-2.4082,-2.5942,-2.7258,-2.7949,-2.8221,-2.8221,-2.8221,-2.8221,-2.8221,-2.8221,-2.8221,-2.8221,-2.8221,-2.8221,-2.8221,-2.8221,-2.8221,-2.8221,-2.8221,-2.8221,-2.8221,-2.7279,-2.5641,-2.3212,-2.1836,-2.0712,-1.7676,-1.5601,-1.4299,-1.4299,-1.4299,-1.4299,-1.4299,-1.4299,-1.4299,-1.4299,-1.4299,-1.4299,-1.4299,-1.4299,-1.4911,-1.7247,-1.7763,-1.8453,-2.0702,-2.1221,-2.1221,-2.1221,-2.1221,-2.1221,-2.1221,-2.2514,-2.4069,-2.5629,-2.5896,-2.5896,-2.5896,-2.3812,-2.2353,-2.2353,-1.9662,-1.7763,-1.7763,-1.569,-1.4299,-1.4299,-1.4299,-1.4299,-1.4299,-1.4299,-1.4299,-1.4299,-1.4299,-1.4299,-1.4299,-1.4299,-1.4299,-1.4299,-1.4299,-1.4299,-2.2325,-2.2352,0.0,-2.183,-2.1844,0.0,-2.1376,-2.1496,-2.1617,-2.1323,-2.1416,-2.1588,-2.1443,-2.1256,-2.1149,-2.1256,-2.1176,-2.1109,0.0,-2.1109,-2.1176,-2.1376,-2.0841,-2.0619,-2.1073,-1.9613,-1.9162,-2.0567,-1.9949,-2.0195,-2.1714,-2.329,-2.4627,-2.566,-2.6964,-2.7843,-2.8221,-2.8221,-2.8221,-2.8221,-2.8221,-2.8221,-2.8221,-2.8221,-2.8221,-2.8221,-2.8221,-2.8221,-2.8221,-2.8221,-2.8221,-2.8221,-2.8221,-2.7279,-2.5811,-2.5032,-2.3652,-2.1663,-1.7851,-1.5601,-1.4299,-1.4299,-1.4299,-1.4299,-1.4299,-1.4299,-1.4299,-1.4299,-1.4299,-1.4299,-1.4299,-1.4299,-1.4646,-1.621,-1.6553,-1.6984,-1.8462,-1.8723,-1.8723,-1.8723,-1.8723,-1.8723,-1.8723,-1.9411,-2.0789,-2.3126,-2.347,-2.347,-2.347,-2.1394,-2.0009,-2.0009,-1.7938,-1.6553,-1.6553,-1.5168,-1.4299,-1.4299,-1.4299,-1.4299,-1.4299,-1.4299,-1.4299,-1.4299,-1.4299,-1.4299,-1.4299,-1.4299,-1.4299,-1.4299,-1.4299,-1.4299]},{"header":{"parameterUnit":"m.s-1","parameterCategory":1,"la1":30.6,"la2":29.2853,"lo1":-89.7004,"lo2":-87.6739,"dy":0.0162,"dx":0.0183,"nx":112,"ny":82,"refTime":"2024-09-06T06:00:00:Z","depth":0,"parameterNumber":3,"parameterNumberName":"V-component_of_WINDS"},"data":[0.0,0.0,0.0,0.0,0.0,0.0,0.0,0.0,0.0,0.0,0.0,0.0,0.0,0.0,0.0,0.0,0.0,0.0,0.0,0.0,0.0,0.0,0.0,0.0,0.0,0.0,0.0,0.0,0.0,0.0,0.0,0.0,0.0,0.0,0.0,0.0,0.0,0.0,0.0,0.0,0.0,0.0,0.0,0.0,0.0,0.0,0.0,0.0,0.0,0.0,0.0,0.0,0.0,0.0,0.0,0.0,0.0,0.0,0.0,0.0,0.0,0.0,0.0,0.0,0.0,0.0,0.0,0.0,0.0,0.0,0.0,0.0,0.0,0.0,0.0,0.0,0.0,0.0,0.0,0.0,0.0,0.0,0.0,0.0,0.0,0.0,0.0,0.0,0.0,0.0,5.6126,5.9896,6.2358,6.3589,6.332,6.2666,6.0396,5.5972,0.0,0.0,0.0,0.0,0.0,0.0,0.0,0.0,0.0,0.0,0.0,0.0,0.0,0.0,0.0,0.0,0.0,0.0,0.0,0.0,0.0,0.0,0.0,0.0,0.0,0.0,0.0,0.0,0.0,0.0,0.0,0.0,0.0,0.0,0.0,0.0,0.0,0.0,0.0,0.0,0.0,0.0,0.0,0.0,0.0,0.0,0.0,0.0,0.0,0.0,0.0,0.0,0.0,0.0,0.0,0.0,0.0,0.0,0.0,0.0,0.0,0.0,0.0,0.0,0.0,0.0,0.0,0.0,0.0,0.0,0.0,0.0,0.0,0.0,0.0,0.0,0.0,0.0,0.0,0.0,0.0,0.0,0.0,0.0,0.0,0.0,0.0,0.0,0.0,0.0,0.0,0.0,0.0,0.0,0.0,0.0,0.0,0.0,0.0,0.0,0.0,0.0,0.0,0.0,5.7665,6.3243,6.482,6.4897,6.3435,6.3205,6.1012,5.6011,0.0,0.0,0.0,0.0,0.0,0.0,0.0,0.0,0.0,0.0,0.0,0.0,0.0,0.0,0.0,0.0,0.0,0.0,0.0,0.0,0.0,0.0,0.0,0.0,0.0,0.0,0.0,0.0,0.0,0.0,0.0,0.0,0.0,0.0,0.0,0.0,0.0,0.0,0.0,0.0,0.0,0.0,0.0,0.0,0.0,0.0,0.0,0.0,0.0,0.0,0.0,0.0,0.0,0.0,0.0,0.0,0.0,0.0,0.0,0.0,0.0,0.0,0.0,0.0,0.0,0.0,0.0,0.0,0.0,0.0,0.0,0.0,0.0,0.0,0.0,0.0,0.0,0.0,0.0,0.0,0.0,0.0,0.0,0.0,0.0,0.0,0.0,0.0,0.0,0.0,0.0,0.0,0.0,0.0,0.0,0.0,0.0,0.0,0.0,0.0,0.0,0.0,0.0,5.7434,6.005,6.4166,6.5397,6.5205,6.3474,6.3308,6.0935,5.5395,5.4241,0.0,0.0,0.0,0.0,0.0,0.0,0.0,0.0,0.0,0.0,0.0,0.0,0.0,0.0,0.0,0.0,0.0,0.0,0.0,0.0,0.0,0.0,0.0,0.0,0.0,0.0,0.0,0.0,0.0,0.0,0.0,0.0,0.0,0.0,0.0,0.0,0.0,0.0,0.0,0.0,0.0,0.0,0.0,0.0,0.0,0.0,0.0,0.0,0.0,0.0,0.0,0.0,0.0,0.0,0.0,0.0,0.0,0.0,0.0,0.0,0.0,0.0,0.0,0.0,0.0,0.0,0.0,0.0,0.0,0.0,0.0,0.0,0.0,0.0,0.0,0.0,0.0,0.0,0.0,0.0,0.0,0.0,0.0,0.0,0.0,0.0,0.0,0.0,0.0,0.0,0.0,0.0,0.0,0.0,0.0,0.0,0.0,0.0,0.0,0.0,0.0,0.0,6.0473,6.2281,6.4666,6.5513,6.5205,6.3474,6.2731,6.0127,5.4818,5.3126,0.0,0.0,0.0,0.0,0.0,0.0,0.0,0.0,0.0,0.0,0.0,0.0,0.0,0.0,0.0,0.0,0.0,0.0,0.0,0.0,0.0,0.0,0.0,0.0,0.0,0.0,0.0,0.0,0.0,0.0,0.0,0.0,0.0,0.0,0.0,0.0,0.0,0.0,0.0,0.0,0.0,0.0,0.0,0.0,0.0,0.0,0.0,0.0,0.0,0.0,0.0,0.0,0.0,0.0,0.0,0.0,0.0,0.0,0.0,0.0,0.0,0.0,0.0,0.0,0.0,0.0,0.0,0.0,0.0,0.0,0.0,0.0,0.0,0.0,0.0,0.0,0.0,0.0,0.0,0.0,0.0,0.0,0.0,0.0,0.0,0.0,0.0,0.0,0.0,0.0,0.0,0.0,0.0,0.0,0.0,0.0,0.0,0.0,0.0,0.0,0.0,0.0,6.1166,6.382,6.5628,6.5859,6.5205,6.3474,6.1127,5.8242,5.4703,5.1471,0.0,0.0,0.0,0.0,0.0,0.0,0.0,0.0,0.0,0.0,0.0,0.0,0.0,0.0,0.0,0.0,0.0,0.0,0.0,0.0,0.0,0.0,0.0,0.0,0.0,0.0,0.0,0.0,0.0,0.0,0.0,0.0,0.0,0.0,0.0,0.0,0.0,0.0,0.0,0.0,0.0,0.0,0.0,0.0,0.0,0.0,0.0,0.0,0.0,0.0,0.0,0.0,0.0,0.0,0.0,0.0,0.0,0.0,0.0,0.0,0.0,0.0,0.0,0.0,0.0,0.0,0.0,0.0,0.0,0.0,0.0,0.0,0.0,0.0,0.0,0.0,0.0,0.0,0.0,0.0,0.0,0.0,0.0,0.0,0.0,0.0,0.0,0.0,0.0,0.0,0.0,0.0,0.0,0.0,0.0,0.0,0.0,0.0,0.0,0.0,0.0,0.0,6.0781,6.3397,6.5667,6.5897,6.5205,6.3474,6.2435,5.955,5.4049,0.0,0.0,0.0,0.0,0.0,0.0,0.0,0.0,0.0,0.0,0.0,0.0,0.0,0.0,0.0,0.0,0.0,0.0,0.0,0.0,0.0,0.0,0.0,0.0,0.0,0.0,0.0,0.0,0.0,0.0,0.0,0.0,0.0,0.0,0.0,0.0,0.0,0.0,0.0,0.0,0.0,0.0,0.0,0.0,0.0,0.0,0.0,0.0,0.0,0.0,0.0,0.0,0.0,0.0,0.0,0.0,0.0,0.0,0.0,0.0,0.0,0.0,0.0,0.0,0.0,0.0,0.0,0.0,0.0,0.0,0.0,0.0,0.0,0.0,0.0,0.0,0.0,0.0,0.0,0.0,0.0,0.0,0.0,0.0,0.0,0.0,0.0,0.0,0.0,0.0,0.0,0.0,0.0,0.0,0.0,0.0,0.0,0.0,0.0,0.0,0.0,0.0,5.8242,6.1166,6.3666,6.5667,6.5897,6.5205,6.3474,6.2551,5.955,5.3587,0.0,0.0,0.0,0.0,0.0,0.0,0.0,0.0,0.0,0.0,0.0,0.0,0.0,0.0,0.0,0.0,0.0,0.0,0.0,0.0,0.0,0.0,0.0,0.0,0.0,0.0,0.0,0.0,0.0,0.0,0.0,0.0,0.0,0.0,0.0,0.0,0.0,0.0,0.0,0.0,0.0,0.0,0.0,0.0,0.0,0.0,0.0,0.0,0.0,0.0,0.0,0.0,0.0,0.0,0.0,0.0,0.0,0.0,0.0,0.0,0.0,0.0,0.0,0.0,0.0,0.0,0.0,0.0,0.0,0.0,0.0,0.0,0.0,0.0,0.0,0.0,0.0,0.0,0.0,0.0,0.0,0.0,0.0,0.0,0.0,0.0,0.0,0.0,0.0,0.0,0.0,0.0,0.0,0.0,0.0,0.0,0.0,0.0,0.0,0.0,0.0,0.0,5.9088,6.2474,6.4936,6.582,6.5897,6.5205,6.3474,6.1012,5.7742,0.0,0.0,0.0,0.0,0.0,0.0,0.0,0.0,0.0,0.0,0.0,0.0,0.0,0.0,0.0,0.0,0.0,0.0,0.0,0.0,0.0,0.0,0.0,0.0,0.0,0.0,0.0,0.0,0.0,0.0,0.0,0.0,0.0,0.0,0.0,0.0,0.0,0.0,0.0,0.0,0.0,0.0,0.0,0.0,0.0,0.0,0.0,0.0,0.0,0.0,0.0,0.0,0.0,0.0,0.0,0.0,0.0,0.0,0.0,0.0,0.0,0.0,0.0,0.0,0.0,0.0,0.0,0.0,0.0,0.0,0.0,0.0,0.0,0.0,0.0,0.0,0.0,0.0,0.0,0.0,0.0,0.0,0.0,0.0,0.0,0.0,0.0,0.0,0.0,0.0,0.0,0.0,0.0,0.0,0.0,0.0,0.0,0.0,0.0,0.0,0.0,0.0,0.0,5.9319,6.3012,6.5628,6.5859,6.5897,6.5205,6.3474,6.2627,5.9627,5.3587,0.0,0.0,0.0,0.0,0.0,0.0,0.0,0.0,0.0,0.0,0.0,0.0,0.0,0.0,0.0,0.0,0.0,0.0,0.0,0.0,0.0,0.0,0.0,0.0,0.0,0.0,0.0,0.0,0.0,0.0,0.0,0.0,0.0,0.0,0.0,0.0,0.0,0.0,0.0,0.0,0.0,0.0,0.0,0.0,0.0,0.0,0.0,0.0,0.0,0.0,0.0,0.0,0.0,0.0,0.0,0.0,0.0,0.0,0.0,0.0,0.0,0.0,0.0,0.0,0.0,0.0,0.0,0.0,0.0,0.0,0.0,0.0,0.0,0.0,0.0,0.0,0.0,0.0,0.0,0.0,0.0,0.0,0.0,0.0,0.0,0.0,0.0,0.0,0.0,0.0,0.0,0.0,0.0,0.0,0.0,0.0,0.0,0.0,0.0,0.0,0.0,0.0,6.0281,6.3666,6.6013,6.632,6.609,6.532,6.3935,6.3512,6.0704,5.4587,0.0,0.0,0.0,0.0,0.0,0.0,0.0,0.0,0.0,0.0,0.0,0.0,0.0,0.0,0.0,0.0,0.0,0.0,0.0,0.0,0.0,0.0,0.0,0.0,0.0,0.0,0.0,0.0,0.0,0.0,0.0,0.0,0.0,0.0,0.0,0.0,0.0,0.0,0.0,0.0,0.0,0.0,0.0,0.0,0.0,0.0,0.0,0.0,0.0,0.0,0.0,0.0,0.0,0.0,0.0,0.0,0.0,0.0,0.0,0.0,0.0,0.0,0.0,0.0,0.0,0.0,0.0,0.0,0.0,0.0,0.0,0.0,0.0,0.0,0.0,0.0,0.0,0.0,0.0,0.0,0.0,0.0,0.0,0.0,0.0,0.0,0.0,0.0,0.0,0.0,0.0,0.0,0.0,0.0,0.0,0.0,0.0,0.0,0.0,0.0,0.0,0.0,6.1793,6.4436,6.6282,6.7013,6.6436,6.5628,6.4666,6.382,6.1204,5.6242,0.0,0.0,0.0,0.0,0.0,0.0,0.0,0.0,0.0,0.0,0.0,0.0,0.0,0.0,0.0,0.0,0.0,0.0,0.0,0.0,0.0,0.0,0.0,0.0,0.0,0.0,0.0,0.0,0.0,0.0,0.0,0.0,0.0,0.0,0.0,0.0,0.0,0.0,0.0,0.0,0.0,0.0,0.0,0.0,0.0,0.0,0.0,0.0,0.0,0.0,0.0,0.0,0.0,0.0,0.0,0.0,0.0,0.0,0.0,0.0,5.1395,4.9586,0.0,0.0,0.0,0.0,0.0,0.0,0.0,0.0,0.0,0.0,0.0,0.0,0.0,0.0,0.0,0.0,0.0,0.0,0.0,0.0,0.0,0.0,0.0,0.0,0.0,0.0,0.0,0.0,0.0,0.0,0.0,0.0,0.0,0.0,0.0,0.0,0.0,0.0,0.0,0.0,6.2704,6.5282,6.6898,6.709,6.6936,6.6244,6.4743,6.382,6.1704,5.7973,5.6126,0.0,0.0,0.0,0.0,0.0,0.0,0.0,0.0,0.0,0.0,0.0,0.0,0.0,0.0,0.0,0.0,0.0,0.0,0.0,0.0,0.0,0.0,0.0,0.0,0.0,0.0,0.0,0.0,0.0,0.0,0.0,0.0,0.0,0.0,0.0,0.0,0.0,0.0,0.0,0.0,0.0,0.0,0.0,0.0,0.0,0.0,0.0,0.0,0.0,0.0,0.0,0.0,0.0,0.0,0.0,0.0,0.0,0.0,0.0,5.4934,5.3097,0.0,0.0,0.0,0.0,0.0,0.0,0.0,0.0,0.0,0.0,0.0,0.0,0.0,0.0,0.0,0.0,0.0,0.0,0.0,0.0,0.0,0.0,0.0,0.0,0.0,0.0,0.0,0.0,0.0,0.0,0.0,0.0,0.0,0.0,0.0,0.0,0.0,0.0,0.0,0.0,6.3551,6.5782,6.7398,6.8244,6.759,6.6744,6.5859,6.4666,6.2666,5.9704,5.7896,0.0,0.0,0.0,0.0,0.0,0.0,0.0,0.0,0.0,0.0,0.0,0.0,0.0,0.0,0.0,0.0,0.0,0.0,0.0,0.0,0.0,0.0,0.0,0.0,0.0,0.0,0.0,0.0,0.0,0.0,0.0,0.0,0.0,0.0,0.0,0.0,0.0,0.0,0.0,0.0,0.0,0.0,0.0,0.0,0.0,0.0,0.0,0.0,0.0,0.0,0.0,0.0,0.0,5.9704,6.0473,6.1704,6.1704,6.2166,6.2755,5.9254,5.7665,5.7484,5.5088,0.0,0.0,0.0,0.0,0.0,0.0,0.0,0.0,0.0,0.0,0.0,0.0,0.0,0.0,0.0,0.0,0.0,0.0,0.0,0.0,0.0,0.0,6.0666,6.0781,6.2435,6.2666,5.7934,0.0,0.0,0.0,0.0,0.0,0.0,0.0,0.0,0.0,0.0,0.0,6.4628,6.6513,6.809,6.9552,6.8398,6.7436,6.7128,6.5705,6.3858,6.1589,5.9742,5.7703,0.0,0.0,0.0,0.0,0.0,0.0,0.0,0.0,0.0,0.0,0.0,0.0,0.0,0.0,0.0,0.0,0.0,0.0,0.0,0.0,0.0,0.0,0.0,0.0,0.0,0.0,0.0,0.0,0.0,0.0,0.0,0.0,5.3741,5.3972,0.0,0.0,0.0,0.0,0.0,0.0,0.0,0.0,0.0,0.0,0.0,0.0,0.0,5.955,6.11,6.2666,6.3551,6.3782,6.5243,6.5705,6.5243,6.5243,6.5667,6.6397,6.582,0.0,6.0165,5.8357,0.0,0.0,0.0,0.0,0.0,0.0,0.0,0.0,0.0,0.0,0.0,0.0,0.0,0.0,0.0,0.0,0.0,0.0,0.0,0.0,0.0,0.0,6.5243,6.5936,6.6359,6.659,6.659,6.3281,5.9935,5.8742,5.8127,5.7434,0.0,0.0,0.0,0.0,0.0,0.0,6.6436,6.8282,6.9436,6.9667,6.9475,6.8744,6.7205,6.6244,6.5243,6.4166,6.182,5.9973,5.8896,5.6626,0.0,0.0,0.0,0.0,0.0,0.0,0.0,0.0,0.0,0.0,0.0,0.0,0.0,0.0,0.0,0.0,0.0,0.0,0.0,0.0,0.0,0.0,0.0,0.0,0.0,0.0,0.0,0.0,0.0,5.4241,5.6434,5.5972,5.7049,5.6819,0.0,0.0,0.0,0.0,0.0,0.0,0.0,0.0,0.0,6.3705,6.4243,6.5089,6.6359,6.7552,6.8398,6.8859,6.9629,7.0052,7.0167,7.0167,7.036,7.0667,7.0167,6.8898,6.6936,6.332,6.132,6.0308,0.0,0.0,0.0,0.0,5.9561,5.9985,6.0666,6.0819,6.0396,5.8627,0.0,0.0,0.0,0.0,0.0,0.0,0.0,6.1358,6.3205,6.582,6.8244,6.9052,6.9975,7.0821,7.1168,6.9513,6.6974,6.3743,6.3589,6.2781,5.905,5.9204,0.0,0.0,0.0,6.4936,6.7513,6.8936,6.986,7.0321,6.9975,6.9398,6.8629,6.7321,6.6205,6.5397,6.382,6.232,6.1012,5.9435,5.778,0.0,0.0,0.0,0.0,0.0,0.0,0.0,0.0,0.0,0.0,0.0,0.0,0.0,0.0,0.0,0.0,0.0,0.0,0.0,0.0,0.0,0.0,0.0,0.0,0.0,0.0,0.0,0.0,5.728,5.9281,5.8407,5.9973,6.005,0.0,0.0,0.0,0.0,0.0,0.0,6.3897,6.4628,6.6128,6.8667,6.936,7.0206,7.1283,7.1898,7.2437,7.2822,7.2822,7.3168,7.3822,7.3577,7.363,7.3783,7.2899,7.2514,7.2206,6.7744,6.5397,6.4385,6.2281,6.1704,6.2166,6.2832,6.3217,6.364,6.532,6.559,6.4936,6.3012,6.2127,6.132,5.9011,0.0,0.0,0.0,0.0,6.3986,6.6513,6.859,7.0283,7.1321,7.2552,7.363,7.4053,7.413,7.2822,6.8359,6.8359,6.7552,6.2897,6.3012,0.0,6.282,6.4551,6.659,6.8513,6.9667,7.0475,7.086,7.0552,7.0167,6.9744,6.8321,6.709,6.6244,6.5205,6.4051,6.2781,6.1897,6.0666,5.8973,0.0,0.0,0.0,0.0,0.0,0.0,0.0,0.0,0.0,0.0,0.0,0.0,0.0,0.0,0.0,0.0,0.0,0.0,0.0,0.0,0.0,0.0,0.0,0.0,0.0,0.0,0.0,0.0,0.0,6.1947,6.4051,0.0,0.0,0.0,0.0,6.4166,6.5013,6.6628,6.9167,6.936,7.0552,7.3091,7.3245,7.4053,7.5668,7.5707,7.5361,7.4591,7.4591,7.4591,7.463,7.386,7.3937,7.4591,7.3783,7.3437,7.3245,7.0552,6.8936,6.8052,6.709,6.6282,6.5628,6.5705,6.6205,6.6744,6.6128,6.6359,6.6936,6.6821,6.5705,6.4512,6.5205,6.4243,0.0,0.0,6.6205,6.7436,6.9975,7.0744,7.1283,7.2976,7.3437,7.3937,7.5515,7.5861,7.5091,7.2399,7.1283,7.0437,6.936,0.0,6.809,6.8013,6.8821,6.9475,6.9629,7.1052,7.1783,7.0975,7.1591,7.1437,6.986,6.8859,6.7975,6.709,6.5513,6.4551,6.4474,6.3628,6.2397,6.0704,5.9781,0.0,0.0,0.0,0.0,0.0,0.0,0.0,0.0,0.0,0.0,0.0,0.0,0.0,0.0,0.0,0.0,0.0,0.0,0.0,0.0,0.0,0.0,0.0,0.0,0.0,0.0,0.0,0.0,6.4628,6.7244,0.0,6.5128,6.5897,6.7167,6.8552,6.9475,7.1052,7.363,7.4284,7.5245,7.6669,7.6707,7.7015,7.7592,7.7592,7.7438,7.713,7.713,7.713,7.713,7.6861,7.6861,7.713,7.6823,7.6707,7.663,7.5745,7.3899,7.1591,7.0706,7.0552,7.0706,7.0167,7.0475,7.1168,7.0898,7.0975,7.1014,6.9898,6.8783,6.7936,6.8244,6.7898,6.7782,6.9475,7.0167,7.0706,7.2206,7.2976,7.363,7.4822,7.5553,7.6245,7.7361,7.7592,7.7323,7.6438,7.513,7.3399,7.0898,7.0667,7.0667,7.009,7.0283,7.0898,7.2014,7.1706,7.1475,7.1706,7.1514,7.1129,7.0514,6.9206,6.8013,6.7167,6.5513,6.4359,6.3782,6.2974,6.2243,6.1639,6.0242,5.8511,0.0,0.0,0.0,0.0,0.0,0.0,0.0,0.0,0.0,0.0,0.0,0.0,0.0,0.0,0.0,0.0,0.0,0.0,0.0,0.0,0.0,0.0,0.0,0.0,0.0,6.6167,6.8629,6.809,7.0744,7.1745,6.9475,7.0283,7.1552,7.2937,7.3591,7.4784,7.6746,7.74,7.8092,7.89,7.8938,7.9092,7.9361,7.9361,7.9208,7.8938,7.8938,7.8938,7.8938,7.8631,7.8669,7.89,7.8631,7.8477,7.8477,7.8477,7.7169,7.5053,7.3937,7.3668,7.3822,7.2937,7.3014,7.3514,7.3514,7.3514,7.3322,7.2168,7.1437,7.0975,7.0975,7.0975,7.1206,7.2322,7.2629,7.2822,7.3668,7.4514,7.5361,7.6245,7.7092,7.7938,7.8746,7.8938,7.8938,7.8938,7.7784,7.613,7.386,7.3707,7.363,7.2745,7.236,7.2514,7.3399,7.2745,7.2283,7.2591,7.236,7.1937,7.1398,6.9552,6.8167,6.759,6.5705,6.4359,6.3782,6.3243,6.2666,6.2101,6.0973,6.0089,5.955,0.0,0.0,0.0,0.0,0.0,0.0,0.0,0.0,0.0,0.0,0.0,0.0,0.0,0.0,0.0,0.0,0.0,0.0,0.0,0.0,0.0,0.0,0.0,6.6244,6.9706,7.2322,7.236,7.4553,7.5438,7.3822,7.513,7.6438,7.7323,7.7361,7.7707,7.8515,7.8592,7.8977,7.9823,7.9862,8.0246,8.1093,8.1093,8.0669,7.9862,7.9862,7.9862,7.9823,7.8977,7.9054,7.9785,7.8938,7.8592,7.8592,7.8592,7.8592,7.84,7.6746,7.5553,7.4707,7.3937,7.3577,7.3591,7.3591,7.3591,7.3591,7.3553,7.3538,7.3538,7.3538,7.3538,7.3538,7.3591,7.3577,7.3822,7.4591,7.5438,7.6284,7.7169,7.7977,7.8784,7.9669,7.9862,7.9862,7.9862,7.9169,7.8554,7.8515,7.7823,7.7015,7.6169,7.5284,0.0,7.3668,7.4207,7.4361,7.363,7.4207,7.3976,7.2322,6.9898,6.8436,6.8359,6.5974,6.4589,6.4666,6.4628,6.3858,6.2293,6.2255,6.3051,6.4628,0.0,0.0,0.0,0.0,0.0,0.0,0.0,0.0,0.0,0.0,0.0,0.0,0.0,0.0,0.0,0.0,0.0,0.0,0.0,0.0,0.0,6.8859,7.1668,7.1437,7.3476,7.5168,7.5822,7.7015,7.763,7.7169,7.7553,7.8169,7.9054,7.9131,7.9477,8.0323,8.04,8.0477,8.0746,8.0746,8.0862,8.1093,8.1093,8.0977,8.0746,8.0746,8.0746,8.0746,8.0477,8.0516,8.0746,8.0477,8.04,8.04,8.04,8.04,8.0208,7.8477,7.7669,7.7361,7.6553,7.5861,7.5322,7.5322,7.5322,7.5207,7.4591,7.4361,7.4361,7.4361,7.4361,7.4514,7.513,7.5784,7.6322,7.6515,7.7207,7.8015,7.89,7.9285,7.9669,8.0554,8.0746,8.0746,8.0746,8.0554,7.9977,7.8707,7.7823,7.7207,7.6976,7.5668,7.4861,7.5245,7.4437,7.3976,7.4322,7.4053,7.3399,7.2283,7.0437,6.8783,6.7552,6.5089,6.4474,6.632,6.5243,6.4936,6.5705,6.5718,6.5667,0.0,0.0,0.0,0.0,0.0,0.0,0.0,0.0,0.0,0.0,0.0,0.0,0.0,0.0,0.0,0.0,0.0,0.0,0.0,0.0,0.0,0.0,7.3206,7.5861,7.6592,7.7207,7.7938,7.8784,7.9285,7.9592,7.9592,7.9592,7.9939,8.0785,8.0554,8.0708,8.1554,8.1285,8.1093,8.1093,8.1093,8.1093,8.1093,8.1439,8.1439,8.1093,8.1439,8.1439,8.1093,8.1093,8.1093,8.1093,8.1093,8.1093,8.1093,8.1093,8.1093,8.0977,0.0,0.0,0.0,0.0,7.7476,7.7015,7.6669,7.6553,7.6399,7.5515,7.5245,7.5245,7.5245,7.5245,7.5438,7.6284,7.6899,7.7361,7.7707,7.84,7.9169,7.9669,8.0092,8.0477,8.0977,8.1093,8.1093,8.1093,8.1093,0.0,7.9746,7.89,7.8207,7.7861,7.663,7.5822,7.5976,7.5168,7.4745,7.5207,7.4822,7.4207,7.3322,7.1706,0.0,0.0,0.0,6.6667,6.8129,6.6898,0.0,0.0,0.0,0.0,0.0,0.0,0.0,0.0,7.0975,7.1168,0.0,0.0,0.0,0.0,0.0,0.0,0.0,0.0,0.0,0.0,0.0,0.0,0.0,0.0,0.0,0.0,7.7476,7.9246,8.0977,8.0554,8.0323,8.1016,8.1093,8.1131,8.1246,8.1246,8.1554,8.2401,8.1785,8.1708,8.2401,8.1785,0.0,0.0,0.0,8.1362,8.1362,8.2093,8.2093,8.14,8.2093,8.2016,8.1246,8.1246,8.1208,8.1093,8.1093,8.1093,8.1093,8.1093,8.1093,8.1016,8.0246,7.99,7.9708,7.8938,7.8592,7.8415,7.7728,0.0,0.0,7.6605,7.6297,7.622,7.6178,7.6202,7.6342,7.7107,7.7438,7.7746,7.8438,7.9285,7.9939,7.9939,8.0554,8.1093,8.1093,8.1093,8.1093,8.1093,8.1093,8.1093,8.1093,8.04,7.9554,7.8746,7.7938,7.7169,7.6361,7.6207,7.6169,7.6284,7.6207,0.0,7.5053,7.3553,7.2245,7.1398,7.0744,7.036,7.0283,6.9821,7.0552,7.2706,7.286,7.4361,7.7284,7.7592,7.8092,7.8669,7.4168,7.3668,0.0,0.0,0.0,0.0,0.0,0.0,0.0,0.0,0.0,0.0,0.0,0.0,0.0,0.0,0.0,7.5745,7.8015,8.0131,8.1823,8.19,8.1631,8.117,8.1093,8.1362,8.2016,8.2054,8.2401,8.3285,8.3208,8.317,8.3324,8.3208,8.3131,8.3131,8.3131,8.3131,8.3131,8.3247,8.3247,8.3131,8.3247,0.0,8.2054,8.2054,8.1708,8.1093,8.1093,8.1093,8.1093,8.1093,8.1093,8.1093,8.09,8.0439,7.9785,7.9631,7.9092,7.8498,7.8528,7.8498,7.8507,7.8592,7.8103,7.7485,7.7351,7.7299,0.0,7.7295,7.8284,7.9361,7.9515,8.0208,8.0862,8.0862,8.0977,8.1093,8.1093,8.1093,8.1093,8.1093,8.1093,8.1093,8.1093,8.04,7.9746,7.9592,7.8823,7.8207,7.8054,7.7438,7.7284,7.7938,7.7438,7.6976,7.6823,7.5861,7.4899,7.4014,7.4476,7.4476,7.3745,7.5553,7.6476,7.6322,7.6938,7.7284,7.7284,7.9361,8.0439,8.0554,7.9592,7.9477,0.0,0.0,0.0,0.0,0.0,0.0,0.0,0.0,0.0,0.0,0.0,7.0734,7.2119,0.0,7.6905,7.9122,8.0473,8.1655,8.2905,8.3002,8.2785,8.2401,8.2362,8.2516,8.2901,8.2939,8.3478,8.4747,8.4478,8.4439,8.4824,8.4478,8.4055,8.3593,8.3593,8.3593,8.3593,8.4016,8.4016,8.3593,8.4055,8.3785,8.2939,8.2939,8.2708,8.2324,8.19,8.1708,8.1685,8.1393,8.1298,8.1407,8.1407,8.1078,8.0601,8.0689,8.0489,8.0047,7.9728,7.9611,7.9562,7.9291,7.8893,7.8528,7.8423,7.8417,7.8457,7.8751,7.9443,8.0218,8.0632,8.1058,8.1407,8.1407,8.1407,8.1359,8.1271,8.1231,8.1214,8.1139,8.1093,8.1116,8.1242,8.0883,8.0428,7.9892,7.9438,7.8977,7.8554,7.8227,7.8166,7.8468,7.8361,7.8185,7.8052,7.7388,7.6936,7.6936,7.6936,7.6936,7.6936,7.8563,7.9261,7.8873,8.0085,8.055,8.0152,8.1856,8.2708,8.2708,8.3134,8.2947,0.0,0.0,0.0,0.0,0.0,0.0,0.0,6.7395,6.9039,7.0462,7.2519,7.4768,7.7144,7.831,7.9855,8.2801,8.3087,8.3242,8.4106,8.4069,8.403,8.4185,8.3857,8.367,8.3824,8.3978,8.4709,8.6247,8.5901,8.594,8.6555,8.5978,8.5324,8.4593,8.4439,8.4324,8.4324,8.4863,8.4786,8.4093,8.4786,8.467,8.3862,8.3862,8.3795,8.3618,8.2806,8.2449,8.24,8.1743,8.1553,8.1688,8.1725,8.1679,8.1524,8.1631,8.1688,8.161,8.0953,8.0695,8.0624,8.0,7.97,7.9538,7.9507,7.9494,7.9604,8.0224,8.052,8.0793,8.1532,8.1688,8.1688,8.1688,8.1688,8.1679,8.1512,8.1458,8.143,8.1269,8.1214,8.1271,8.1414,8.1458,8.1147,8.0291,8.0172,7.9941,7.9208,7.9102,7.9133,7.9133,7.9292,7.9407,7.9357,7.8915,7.8939,7.9633,7.9017,7.9017,7.9905,8.0574,8.0963,8.115,8.252,8.3338,8.3486,8.4186,8.4622,8.4817,8.5463,8.5095,5.9017,6.1772,6.4532,6.6023,6.7205,6.9374,0.0,7.5006,7.5041,7.8379,7.989,8.0987,8.2061,8.2956,8.3665,8.407,8.4132,8.4388,8.5196,8.5287,8.5581,8.6349,8.4765,8.3901,8.467,8.5401,8.6209,8.7171,8.7902,8.8286,8.8402,8.8325,8.8209,8.8132,8.7363,8.6978,8.6978,8.6286,8.594,8.5824,8.594,8.5555,8.4747,8.4747,8.4411,8.3822,8.3194,8.2906,8.2867,8.199,8.1664,8.1703,8.1889,8.1967,8.1899,8.1778,8.1688,8.171,8.1777,8.182,8.1836,8.1901,8.1442,8.0773,8.0605,8.0536,8.0505,8.0415,8.0948,8.1571,8.1688,8.1688,8.1688,8.1688,8.1688,8.168,8.1656,8.1687,8.164,8.1653,8.1653,8.1653,8.164,8.1687,8.164,8.1498,8.1498,8.1459,8.1342,8.0706,8.052,8.1265,8.0692,8.0551,8.1306,8.1322,8.1337,8.1415,8.1337,8.1688,8.2552,8.2668,8.3058,8.3844,8.4077,8.4506,8.5214,8.5315,8.5774,8.6522,8.663,8.6169,6.3648,6.615,6.8257,6.9377,7.1794,7.446,7.654,7.7257,7.8137,8.0637,8.1859,8.2745,8.3744,8.4223,8.4678,8.5293,8.5288,8.5465,8.6323,8.631,8.6194,8.6069,8.5698,8.5789,8.6693,8.7069,8.7771,8.8987,8.9436,8.9563,8.9419,8.9402,8.9171,8.8709,8.8363,8.7902,8.7401,8.7055,8.6594,8.6094,8.6094,8.5992,8.5829,8.5829,8.5487,8.4777,8.4021,8.3506,8.3126,8.2229,8.1923,8.2059,8.2127,8.2173,8.2171,8.2068,8.2056,8.2059,8.2166,8.2173,8.2176,8.2265,8.2031,8.1757,8.1672,8.1628,8.1623,8.1522,8.1783,8.2056,8.2056,8.2056,8.2056,8.2056,8.2056,8.2159,8.2557,8.2229,8.2005,8.2372,8.2038,8.1718,8.1861,8.1873,8.1904,8.2046,8.1855,8.1688,8.1688,8.1468,8.1519,8.201,8.1611,8.1519,8.2014,8.2056,8.2251,8.2759,8.2798,8.3188,8.4089,8.4597,8.4792,8.4636,8.6119,8.6786,8.6669,8.7642,8.8305,8.8657,8.8146,8.799,6.6735,6.9128,7.1249,7.2309,7.545,7.8182,7.7806,7.9091,8.0701,8.1951,8.2931,8.3776,8.4558,8.4882,8.5288,8.6054,8.6237,8.648,8.7105,8.6882,8.6389,8.5759,8.6032,8.6701,8.7838,8.825,8.8973,9.028,9.0617,9.0663,9.0464,9.045,9.0179,8.9615,8.9344,8.8919,8.8301,8.807,8.7529,8.6626,8.6626,8.661,8.6572,8.6659,8.6406,8.5896,8.5085,8.4498,8.4023,8.2888,8.2523,8.2617,8.2383,8.2304,8.2304,8.2304,8.2304,8.2304,8.2304,8.2304,8.2304,8.2304,8.2304,8.2304,8.2304,8.2304,8.2304,8.2304,8.2304,8.2304,8.2304,8.2304,8.2344,8.2617,8.2656,8.285,8.3565,8.3239,8.2872,8.3103,8.2652,8.2177,8.2098,8.2068,8.2125,8.2265,8.2056,8.1867,8.1867,8.1988,8.2125,8.2265,8.2173,8.2127,8.2304,8.2539,8.2929,8.3554,8.3828,8.4336,8.5234,8.5859,8.6015,8.5625,8.7656,8.8515,8.8203,8.9414,9.0117,9.0351,8.9453,8.9531,6.6691,6.9592,7.331,7.4878,7.7241,7.9416,8.0376,8.1914,8.3266,8.3473,8.4257,8.4843,8.4883,8.5586,8.6172,8.6172,8.6914,8.7461,8.7461,8.6757,8.6211,8.6171,8.5468,8.5625,8.7343,8.8579,8.9618,9.0513,9.137,9.1867,9.1858,9.1858,9.1819,9.1819,9.0972,9.0544,9.0505,8.9727,8.8909,8.8053,8.8053,8.7586,8.6817,8.6997,8.7057,8.7026,8.6396,8.6132,8.5976,8.4258,8.3554,8.3476,8.2617,8.2304,8.2304,8.2304,8.2304,8.2304,8.2304,8.2304,8.2304,8.2304,8.2304,8.2304,8.2304,8.2304,8.2304,8.2304,8.2304,8.2304,8.2304,8.2304,8.25,8.3359,8.3554,8.3789,8.4648,8.4844,8.457,8.375,8.3554,8.3281,8.2422,8.2304,8.2304,8.2304,8.2304,8.2265,8.2265,8.2304,8.2304,8.2304,8.2304,8.2304,8.2304,8.3086,8.3554,8.3594,8.4375,8.5234,8.6133,8.6172,8.6601,8.7422,8.8242,8.9101,8.9922,8.9961,9.0429,9.125,9.0351,9.0429,7.0292,7.3345,7.6163,7.7829,7.9775,8.1341,8.167,8.2648,8.3509,8.3593,8.3828,8.4023,8.4023,8.4297,8.4648,8.5234,8.6562,8.75,8.75,8.8203,8.789,8.5625,8.6562,8.6992,8.5898,8.7172,8.888,9.0713,9.1136,9.1749,9.271,9.2195,9.2157,9.274,9.1923,9.1184,9.06,9.0327,8.9791,8.8974,8.8514,8.8446,8.8724,8.8326,8.8155,8.8116,8.7382,8.6719,8.6094,8.4922,8.4453,8.4414,8.414,8.4023,8.4023,8.4023,8.3672,8.3086,8.25,8.2304,8.2304,8.2304,8.2304,8.2304,8.2304,8.2304,8.2304,8.2304,8.2734,8.3047,8.2461,8.2734,8.3242,8.3515,8.3594,8.3984,8.5469,8.5312,8.4961,8.5273,8.4844,8.4375,8.4062,8.4023,8.4023,8.4023,8.3047,8.2304,8.2304,8.2304,8.2304,8.2304,8.2812,8.3164,8.3164,8.3945,8.4726,8.5273,8.5586,8.6133,8.7031,8.707,8.7461,8.8281,8.914,9.0,9.0859,9.1445,9.1875,9.2148,9.1289,9.1328,7.3242,7.5898,7.8125,8.0117,8.1484,8.2304,8.2304,8.2969,8.3437,8.2812,8.2656,8.2578,8.2265,8.2226,8.2695,8.4179,8.5898,8.7226,8.7851,8.8867,8.8711,8.6523,8.7461,8.7617,8.5976,8.6836,8.8239,9.0044,9.0745,9.1659,9.2908,9.2747,9.2864,9.3415,9.2903,9.2201,9.1309,9.1309,9.0724,8.9593,8.8575,8.8522,8.9344,8.8903,8.8867,8.9101,8.8281,8.7617,8.6992,8.5859,8.5351,8.5312,8.5039,8.4842,8.4793,8.4793,8.4392,8.3713,8.3005,8.2578,8.2304,8.2304,8.2304,8.2304,8.2304,8.2304,8.2344,8.2695,8.3164,8.3476,8.289,8.3398,8.4062,8.4062,8.4297,8.4922,8.6367,8.6211,8.5898,8.6133,8.5742,8.5273,8.4961,8.4883,8.4883,8.4883,8.3945,8.3242,8.3242,8.2969,8.2773,8.2773,8.3281,8.3594,8.3594,8.4687,8.5586,8.6172,8.6484,8.6914,8.7461,8.7773,8.8164,8.8672,8.9844,9.0742,9.1289,9.2187,9.2617,9.2578,9.2031,9.207,7.5312,7.7344,7.9258,8.1719,8.2304,8.2304,8.2304,8.289,8.2969,8.1211,8.0859,8.0547,7.9609,7.9531,8.0469,8.3047,8.5039,8.6836,8.8515,8.8867,8.8945,8.8828,8.8203,8.7695,8.7578,8.7617,8.7929,8.8633,9.0273,9.164,9.2617,9.3398,9.3867,9.3906,9.3867,9.3437,9.2617,9.2617,9.1758,9.0039,8.8398,8.8047,8.8789,8.8711,8.9179,8.9961,8.9062,8.8672,8.8554,8.6914,8.6249,8.6132,8.5311,8.4862,8.4711,8.4711,8.4506,8.4209,8.3841,8.3124,8.2343,8.2304,8.2304,8.2304,8.2304,8.2304,8.2461,8.3281,8.3594,8.3672,8.3594,8.4297,8.4961,8.4961,8.5586,8.6445,8.7304,8.75,8.7265,8.6445,8.6289,8.6015,8.5195,8.5039,8.5039,8.5039,8.5039,8.5,8.4922,8.4179,8.3672,8.3672,8.3711,8.3711,8.3711,8.5273,8.6289,8.6328,8.7109,8.7578,8.7617,8.8359,8.8789,8.8828,9.0469,9.1328,9.1367,9.2187,9.2617,9.2617,9.2617,9.2617,7.7305,7.9531,8.1484,8.2148,8.2304,8.2304,8.2304,8.1953,8.1172,7.9492,7.8633,7.7695,7.6172,7.75,7.9414,8.1367,8.4765,8.7734,8.9414,9.1367,9.2109,9.0781,9.1015,9.0547,8.8594,8.8984,8.9179,8.8711,8.9726,9.1289,9.3437,9.3164,9.3242,9.3867,9.3281,9.2812,9.2617,9.2617,9.2031,9.0976,8.9883,8.9453,8.9648,8.8984,8.9179,8.9961,8.9062,8.8626,8.8393,8.7297,8.6784,8.6611,8.6416,8.6274,8.6232,8.6232,8.5767,8.5143,8.5052,8.4142,8.2921,8.2299,8.2175,8.2304,8.2304,8.2304,8.2344,8.2578,8.3554,8.4414,8.3789,8.4726,8.5859,8.5859,8.6054,8.6445,8.7304,8.75,8.7422,8.7226,8.7187,8.7109,8.6875,8.6836,8.6836,8.6836,8.6836,8.6367,8.5078,8.4726,8.457,8.457,8.5156,8.5547,8.5547,8.6523,8.7422,8.8008,8.8281,8.8672,8.9336,8.957,8.9961,9.0625,9.1054,9.1601,9.2265,9.25,9.2617,9.2617,9.2617,9.2617,7.914,8.0937,8.2304,8.2304,8.2304,8.1914,8.039,7.9961,7.9101,7.625,7.5547,7.5078,7.3711,7.5586,7.793,7.9648,8.3515,8.707,8.914,9.1679,9.3125,9.25,9.3203,9.2851,9.0625,9.0859,9.0937,9.0469,9.0508,9.1367,9.3242,9.3242,9.3398,9.3867,9.3437,9.3008,9.2617,9.2226,9.1797,9.1289,9.0039,8.9648,8.9961,8.9101,8.9139,8.9828,8.8969,8.8461,8.8188,8.7331,8.6884,8.6817,8.6817,8.6756,8.6651,8.6651,8.6256,8.5715,8.5366,8.4738,8.3937,8.2812,8.2504,8.256,8.2244,8.2445,8.284,8.332,8.4414,8.5351,8.4883,8.5742,8.6679,8.6289,8.6484,8.6914,8.7383,8.75,8.75,8.75,8.75,8.75,8.75,8.75,8.75,8.75,8.75,8.7148,8.6172,8.5703,8.5469,8.5469,8.5898,8.6211,8.6211,8.7304,8.8203,8.8672,8.9062,8.9492,8.9961,9.0351,9.0781,9.1289,9.1679,9.2109,9.2617,9.2617,9.2617,9.2617,9.2617,9.2617,8.0742,8.1719,8.2304,8.2304,8.2148,8.1133,7.793,7.7422,7.6484,7.25,7.2187,7.2383,7.164,7.3711,7.6211,7.8164,8.1992,8.5742,8.8633,9.1211,9.3125,9.414,9.4922,9.4765,9.3242,9.3008,9.2969,9.2969,9.2226,9.2109,9.2734,9.3398,9.3711,9.3711,9.3711,9.3359,9.2617,9.1836,9.1406,9.1289,8.9648,8.9179,8.9764,8.8905,8.8846,8.9428,8.8565,8.8131,8.7988,8.7124,8.6756,8.6719,8.6719,8.6616,8.6455,8.6455,8.6288,8.6017,8.5286,8.5158,8.5049,8.3446,8.2971,8.291,8.2323,8.2596,8.3323,8.4523,8.5389,8.6015,8.6172,8.6836,8.7304,8.6562,8.6953,8.75,8.75,8.75,8.75,8.75,8.75,8.7539,8.7656,8.7578,8.7578,8.7812,8.7656,8.7539,8.7656,8.6914,8.6367,8.6367,8.6367,8.6406,8.6523,8.7851,8.8789,8.9023,8.9648,9.0117,9.0351,9.0976,9.1367,9.1484,9.2226,9.2617,9.2617,9.2617,9.2617,9.2617,9.2617,9.2617,8.1797,8.2187,8.2304,8.2304,8.1211,7.9648,7.7656,7.5078,7.2539,7.039,6.9492,6.9023,6.8906,7.1523,7.4805,7.7969,8.1484,8.5469,9.0195,9.2461,9.4258,9.5859,9.6172,9.6172,9.5859,9.5156,9.4765,9.4765,9.4609,9.4297,9.3711,9.3125,9.2812,9.2812,9.2812,9.2734,9.2617,9.2461,9.1992,9.1289,9.0273,8.9407,8.8657,8.7755,8.7736,8.832,8.7456,8.733,8.7701,8.6875,8.6442,8.6238,8.6238,8.6192,8.6168,8.6168,8.6159,8.6094,8.594,8.5912,8.5576,8.3384,8.2835,8.2995,8.2878,8.2426,8.2357,8.4134,8.475,8.508,8.5975,8.6836,8.7461,8.7304,8.7383,8.75,8.75,8.75,8.75,8.75,8.75,8.7695,8.8398,8.7929,8.7969,8.9375,8.8398,8.7734,8.8398,8.7773,8.7265,8.7265,8.7265,8.7539,8.8203,8.8515,8.9297,9.0742,9.0312,9.0664,9.2109,9.1601,9.164,9.2344,9.2539,9.2617,9.2617,9.2617,9.2617,9.2617,9.2617,9.2617,8.2187,8.2304,8.2187,8.1758,8.0664,7.8672,7.4726,7.2539,7.0469,6.7422,6.7187,6.7539,6.7539,7.0312,7.3164,7.4844,7.8008,8.207,8.7226,8.9453,9.1875,9.539,9.6211,9.6484,9.6484,9.6133,9.5818,9.568,9.5248,9.487,9.4609,9.4179,9.375,9.3281,9.3281,9.3047,9.2617,9.245,9.2163,9.1773,9.0793,8.9793,8.8826,8.8008,8.7472,8.7252,8.6814,8.6723,8.6829,8.6428,8.6231,8.6094,8.6094,8.6094,8.6094,8.6094,8.6094,8.6094,8.6094,8.6094,8.578,8.3784,8.3527,8.3835,8.3035,8.2815,8.296,8.3597,8.4483,8.5403,8.591,8.6752,8.75,8.75,8.75,8.75,8.75,8.75,8.75,8.75,8.75,8.7617,8.8008,8.8086,8.8398,8.9219,8.9023,8.8945,8.9336,8.8633,8.7969,8.7539,8.7851,8.8281,8.8672,8.9531,9.039,9.125,9.1328,9.1719,9.2578,9.2187,9.2187,9.2578,9.2617,9.2617,9.2617,9.2617,9.2617,9.2617,9.3086,9.3281,8.2187,8.2304,8.2109,8.1211,7.9922,7.7461,7.1953,7.0116,6.8552,6.4997,6.5349,6.6402,6.6747,6.9174,7.1363,7.206,7.4949,7.8897,8.4098,8.6749,8.9832,9.4292,9.5887,9.6624,9.6624,9.6624,9.6523,9.6318,9.5644,9.5183,9.5057,9.4866,9.4476,9.3773,9.3577,9.3148,9.2445,9.2225,9.2139,9.2134,9.1101,9.0137,8.9197,8.841,8.7442,8.6403,8.6403,8.6274,8.6094,8.6094,8.6094,8.6094,8.6094,8.6094,8.6094,8.6094,8.6094,8.6094,8.6094,8.6094,8.5901,8.4555,8.4478,8.4658,8.323,8.3283,8.3822,8.3767,8.4738,8.5794,8.6081,8.6767,8.7419,8.75,8.75,8.75,8.75,8.75,8.75,8.75,8.75,8.7539,8.7734,8.8281,8.8828,8.9219,8.9531,8.9804,8.9961,8.9101,8.8164,8.7496,8.8046,8.8594,8.8945,9.0234,9.1172,9.1562,9.2031,9.2422,9.2578,9.2422,9.25,9.2851,9.2695,9.2695,9.289,9.2695,9.2695,9.289,9.3594,9.3984,8.1875,8.2304,8.2109,8.1211,7.8594,7.5273,7.1562,6.8191,6.5538,6.4361,6.4247,6.4772,6.6185,6.743,6.926,7.224,7.4937,7.8503,8.3887,8.7927,9.1151,9.3387,9.5622,9.6957,9.6957,9.6957,9.6949,9.6931,9.6845,9.6114,9.4565,9.3795,9.3367,9.325,9.2479,9.2059,9.1981,9.1957,9.1949,9.191,9.1028,9.0042,8.9021,8.8118,8.7149,8.6143,8.6143,8.6126,8.6094,8.6094,8.6094,8.6094,8.6094,8.6094,8.6094,8.6094,8.6094,8.6094,8.6094,8.6094,8.6055,8.594,8.544,8.4709,8.3795,8.3541,8.398,8.5694,8.5739,8.5533,8.6696,8.7073,8.7219,8.7459,8.75,8.75,8.75,8.75,8.75,8.75,8.75,8.7734,8.8476,8.8633,8.9258,9.082,8.9765,8.9101,8.9883,8.8594,8.7496,8.7166,8.7411,8.8242,8.9765,9.0039,9.0781,9.2383,9.1797,9.1758,9.2578,9.1836,9.2148,9.375,9.3008,9.3008,9.3789,9.3008,9.3008,9.3789,9.3867,9.4336,8.0117,8.1133,8.1328,8.0429,7.7964,7.4668,7.0684,6.7429,6.4963,6.4101,6.3906,6.4437,6.6088,6.6713,6.7748,7.0071,7.1303,7.3789,7.9055,8.2026,8.5502,9.045,9.276,9.4725,9.6817,9.7012,9.6944,9.6769,9.6137,9.5506,9.4796,9.4729,9.4249,9.3237,9.2857,9.2429,9.1914,9.1721,9.1672,9.1672,9.1192,9.0199,8.883,8.8467,8.7487,8.6132,8.6671,8.6863,8.6863,8.6863,8.6863,8.6824,8.6286,8.6094,8.6094,8.6094,8.6094,8.6094,8.6094,8.6094,8.6017,8.5555,8.5478,8.5478,8.4632,8.4016,8.3756,8.4526,8.4971,8.5301,8.5806,8.6546,8.7116,8.7228,8.7375,8.75,8.75,8.75,8.75,8.75,8.75,8.7617,8.7929,8.8398,8.8905,8.9468,8.9852,8.9991,8.9696,8.9018,8.8373,8.7767,8.8014,8.867,8.974,9.0281,9.1101,9.2273,9.1909,9.1827,9.2178,9.1971,9.2156,9.2859,9.3199,9.3554,9.3906,9.4062,9.4336,9.4687,9.5234,9.5664,7.8032,7.9478,7.9953,7.9003,7.6741,7.3727,6.967,6.6797,6.4758,6.3934,6.3934,6.4542,6.5995,6.6268,6.6834,6.848,6.9162,7.1215,7.6202,7.8707,8.2175,8.7856,8.9973,9.22,9.5371,9.633,9.6695,9.6521,9.5829,9.5172,9.4634,9.4906,9.444,9.3042,9.2732,9.2305,9.1711,9.1514,9.1427,9.1412,9.1286,9.0325,8.8709,8.8709,8.7748,8.6132,8.6748,8.7017,8.7017,8.7017,8.7017,8.694,8.6324,8.6094,8.6094,8.6094,8.6094,8.6094,8.6094,8.6094,8.6017,8.544,8.5478,8.567,8.5363,8.4824,8.4324,8.4324,8.4937,8.5589,8.5589,8.6298,8.7008,8.7008,8.7155,8.7275,8.7275,8.7275,8.7275,8.7275,8.7275,8.7275,8.7275,8.798,8.8468,8.8316,8.9543,9.021,8.9457,8.9121,8.8698,8.805,8.8066,8.8426,8.9169,9.0017,9.083,9.1655,9.1848,9.1914,9.1914,9.2054,9.2351,9.2858,9.3412,9.3962,9.4562,9.4914,9.5231,9.5586,9.6211,9.664,7.5803,7.7428,7.7953,7.6885,7.4729,7.1919,6.8501,6.6213,6.456,6.3776,6.425,6.5035,6.5779,6.6014,6.6601,6.8155,6.9796,7.2444,7.6964,8.0291,8.334,8.6171,8.7827,8.9727,9.2305,9.4844,9.6306,9.6288,9.6288,9.5518,9.3787,9.3728,9.3344,9.2536,9.1689,9.1227,9.1227,9.121,9.121,9.121,9.121,9.0325,8.8709,8.8709,8.7748,8.6094,8.6094,8.6094,8.6094,8.6094,8.6094,8.6094,8.6094,8.6094,8.6094,8.6094,8.6094,8.6094,8.6094,8.6094,8.6094,8.6094,8.5555,8.5055,8.5863,8.6094,8.6055,8.6055,8.6274,8.648,8.648,8.663,8.6778,8.6778,8.6825,8.6825,8.6825,8.6825,8.6825,8.6825,8.6825,8.6825,8.6825,8.7525,8.8117,8.8117,8.881,8.9307,8.9307,8.8607,8.8002,8.7718,8.7176,8.7175,8.8031,8.8849,8.9705,9.0569,9.1417,9.1914,9.1914,9.1884,9.2701,9.4327,9.3627,9.4162,9.608,9.5222,9.5391,9.6484,9.6484,9.6914,7.0659,7.2078,7.2724,7.236,7.1124,6.9412,6.7191,6.5625,6.459,6.4347,6.4502,6.4902,6.5769,6.6369,6.7716,7.0527,7.1437,7.3108,7.6853,7.9759,8.264,8.5845,9.0757,9.421,9.5018,9.5826,9.6288,9.6288,9.5211,9.4287,9.371,9.2595,9.1864,9.1633,9.1325,9.121,9.121,9.121,9.121,9.121,9.0594,8.9748,8.8671,8.8094,8.7171,8.6132,8.6748,8.6978,8.6978,8.6978,8.6978,8.694,8.6324,8.6094,8.6094,8.6094,8.6094,8.6094,8.6094,8.6094,8.6094,8.6094,8.594,8.5786,8.6017,8.5709,8.5401,8.594,8.6153,8.6208,8.6208,8.6416,8.6594,8.6594,8.67,8.6817,8.6817,8.6817,8.6817,8.6817,8.6817,8.6817,8.6817,8.7011,8.7154,8.7015,8.768,8.8142,8.8025,8.8292,8.8248,8.7573,8.7331,8.7397,8.7786,8.8068,8.8844,9.0291,9.0494,9.0803,9.1383,9.2135,9.2751,9.3294,9.4348,9.521,9.5829,9.6141,9.659,9.7106,9.7106,9.7327,6.695,6.849,6.9196,6.911,6.8346,6.7286,6.5923,6.5064,6.4589,6.4589,6.4859,6.5243,6.5782,6.6551,6.7898,7.036,7.1552,7.3283,7.6361,7.9285,8.2477,8.617,9.1479,9.4864,9.4864,9.5441,9.5826,9.5826,9.448,9.3557,9.3249,9.2249,9.1556,9.121,9.121,9.121,9.121,9.121,9.121,9.121,9.0325,8.9479,8.8671,8.7786,8.6901,8.6132,8.6671,8.6901,0.0,8.6901,8.6901,8.6863,8.6324,8.6094,8.6094,8.6094,8.6094,8.6094,8.6094,8.6094,8.6094,8.6094,8.6094,8.6094,8.6094,8.5747,8.5478,8.5978,8.6094,8.6094,8.6094,8.6208,8.636,8.636,8.6442,8.656,8.656,8.656,8.656,8.656,8.656,8.656,8.656,8.656,8.649,8.6349,8.7055,8.7548,8.7435,8.7863,8.7979,8.744,8.7094,8.7093,8.7543,8.7905,8.8523,8.962,9.013,9.0633,9.1171,9.1863,9.2488,9.3106,9.4317,9.5297,9.6033,9.6692,9.7091,9.7246,9.7348,9.7483,0.0,6.6174,6.6892,6.6716,6.6128,6.5436,6.4628,6.4474,0.0,6.4512,6.5205,6.5859,6.6051,6.6705,6.759,6.8744,7.0937,7.336,7.5899,7.9361,8.317,8.7286,9.0671,9.2672,9.2672,9.4018,9.4903,9.498,9.4134,9.3287,9.2556,9.2441,9.2056,9.1248,9.121,9.121,9.121,9.121,9.121,9.121,9.0325,8.9479,8.8671,8.7786,8.6901,8.6094,8.6094,8.6094,8.6094,8.6094,8.6094,8.6094,8.6094,8.6094,8.6094,8.6094,8.6094,8.6094,8.6094,8.6094,8.6094,8.6094,8.6094,8.6094,8.6094,8.6094,8.6094,8.6094,8.6094,8.6094,8.6094,8.6094,8.6094,8.6094,8.6094,8.6094,8.6094,8.6094,8.6094,8.6094,8.6094,8.6094,8.6094,8.6094,8.6094,8.6094,8.6786,8.7325,8.7401,8.7401,8.7401,8.7401,8.6671,8.6517,8.7248,8.8094,8.8671,8.8786,9.0248,9.1133,9.121,9.1248,9.2018,9.3595,9.371,9.4668,9.6469,9.6788,9.6964,9.6993,9.7246,9.7363,6.0742,0.0,6.2348,6.2305,6.2627,6.2947,0.0,6.3166,6.3628,6.3628,6.432,6.5513,6.7436,6.7975,6.9436,7.3553,7.4707,7.6015,7.8554,8.3516,8.8017,9.0941,9.3133,9.4403,9.4403,9.4172,9.4287,9.4941,9.3633,9.271,9.2518,9.1864,9.1402,9.121,9.121,9.121,9.121,9.121,9.121,9.121,9.0325,8.9479,8.8671,8.7786,8.6901,8.6094,8.6094,8.6094,8.6094,8.6094,8.6094,8.6094,8.6094,8.6094,8.6094,8.6094,8.6094,8.6094,8.6094,8.6094,8.6094,8.6094,8.6094,8.6094,8.6094,8.6094,8.6094,8.6094,8.6094,8.6094,8.6094,8.6094,8.6094,8.6094,8.6094,8.6094,8.6094,8.6094,8.6094,8.6094,8.6094,8.6094,8.6094,8.6094,8.6094,8.6094,8.6286,8.6632,8.7325,8.7401,8.7401,8.7401,8.7209,8.6901,8.644,8.7209,8.8248,8.9556,8.9979,9.0517,9.1171,9.1825,9.2364,9.2787,9.4018,9.4937,9.5388,9.6106,9.6545,9.6682,9.6984,9.722,5.8858,6.0435,6.1935,6.1935,6.2281,6.2743,6.3166,6.2974,6.2858,6.3243,6.4012,6.5128,6.6936,6.8513,7.0591,7.3745,7.5861,7.8438,8.217,8.617,8.9633,9.221,9.3633,9.4403,9.4403,9.3633,9.3364,9.3826,9.2633,9.1902,9.1902,9.1479,9.121,9.121,9.121,9.121,9.121,9.121,9.121,9.121,9.0325,8.9479,8.8671,8.7786,8.6901,8.6094,8.6094,8.6094,8.6094,8.6094,8.6094,8.6094,8.6094,8.6094,8.6094,8.6094,8.6094,8.6094,8.6094,8.6094,8.6094,8.6094,8.6094,8.6094,8.6094,8.6094,8.6094,8.6094,8.6094,8.6094,8.6094,8.6094,8.6094,8.6094,8.6094,8.6094,8.6094,8.6094,8.6094,8.6094,8.6094,8.6094,8.6094,8.6094,8.6094,8.6094,8.6094,8.6286,8.6748,8.6786,8.6786,8.6786,8.6786,8.6786,8.6709,8.7132,8.794,8.9286,8.971,9.0287,9.1171,9.1633,9.2095,9.2479,9.4134,9.498,9.498,9.5865,9.6338,9.649,9.6827,9.7082,5.8204,6.0935,6.3397,6.3012,6.3128,6.3435,6.3897,6.2897,6.2139,6.2935,6.382,6.4859,6.6359,6.8975,7.1398,7.2899,7.6399,8.0592,8.544,8.7594,8.9556,9.1825,9.2941,9.3518,9.3518,9.2787,9.2364,9.2479,9.171,9.121,9.121,9.121,9.121,9.121,9.1056,9.1018,9.1018,9.1133,9.121,9.121,9.0441,8.9671,8.8863,8.7979,8.7132,8.6286,8.617,8.6094,8.6094,8.6094,8.6094,8.6094,8.6094,8.6094,8.6094,8.6094,8.6094,8.6094,8.6094,8.6094,8.6094,8.6094,8.6094,8.6094,8.6094,8.6094,8.6094,8.6094,8.6094,8.6094,8.6094,8.6094,8.6094,8.6094,8.6094,8.6094,8.6094,8.6094,8.6094,8.6094,8.6094,8.6094,8.6094,8.6094,8.6094,8.6094,8.6094,8.6094,8.6094,8.6094,8.6094,8.6094,8.6094,8.6401,8.7132,8.7209,8.7555,8.844,8.9286,9.0094,9.0979,9.1133,9.1556,9.2287,9.3941,9.4788,9.4788,9.5826,9.6288,9.6306,9.6734,9.6974,5.8896,6.182,6.3897,6.1704,6.2243,6.2974,6.1666,6.1166,6.1243,6.2089,6.2935,6.4859,6.9321,7.0552,7.236,7.6823,7.9323,8.1977,8.5593,8.7594,8.9094,9.0171,9.171,9.2672,9.2672,9.1902,9.171,9.2441,9.171,9.121,9.121,9.121,9.121,9.121,9.0479,9.0094,9.0094,9.0825,9.121,9.121,9.1056,9.0556,8.971,8.8863,8.8017,8.7171,8.644,8.6094,8.6094,8.6094,8.6094,8.6094,8.6094,8.6094,8.6094,8.6094,8.6094,8.6094,8.6094,8.6094,8.6094,8.6094,8.6094,8.6094,8.6094,8.6094,8.6094,8.6094,8.6094,8.6094,8.6094,8.6094,8.6094,8.6094,8.6094,8.6094,8.6094,8.6094,8.6094,8.6094,8.6094,8.6094,8.6094,8.6094,8.6094,8.6094,8.6094,8.6094,8.6094,8.6094,8.6094,8.6094,8.6094,8.617,8.6286,8.6286,8.6671,8.7555,8.8402,8.9248,9.0094,9.0825,9.1248,9.1402,9.3056,9.3903,9.3903,9.5518,9.6288,9.6306,9.6551,9.678,5.8396,6.0666,6.2474,6.2204,6.4128,6.5846,6.5089,6.4205,6.3666,6.4051,6.4782,6.6474,7.0206,7.2014,7.463,7.9708,8.2016,8.3824,8.5824,8.7594,8.8979,8.9825,9.1018,9.1787,9.1787,9.1441,9.1364,9.1787,9.1441,9.121,9.121,9.121,9.0979,9.0517,9.0133,8.971,8.9248,8.9633,9.0056,9.0517,9.0517,9.0056,8.9248,8.8863,8.7979,8.6671,8.6286,8.6094,8.6094,8.6094,8.6094,8.6094,8.6094,8.6094,8.6094,8.6094,8.6094,8.6094,8.6094,8.6094,8.6094,8.6094,8.6094,8.6094,8.6094,8.6094,8.6094,8.6094,8.6094,8.6094,8.6094,8.6094,8.6094,8.6094,8.6094,8.6094,8.6094,8.6094,8.6094,8.6094,8.6094,8.6094,8.6094,8.6094,8.6094,8.6094,8.6094,8.6094,8.6094,8.6094,8.6094,8.6094,8.6094,8.6094,8.6094,8.6094,8.6478,8.7325,8.8209,8.9056,8.9863,9.0287,9.071,9.121,9.2402,9.3249,9.371,9.498,9.5826,9.6288,9.6529,9.6682,5.805,5.9665,6.1243,6.3128,6.5436,6.7423,6.8231,6.709,6.6167,6.7167,6.7859,6.9013,7.136,7.4053,7.7361,8.1862,8.3901,8.517,8.5978,8.744,8.8709,8.9517,9.0364,9.0979,9.1171,9.121,9.121,9.121,9.121,9.1133,9.0902,9.1095,9.071,8.9671,8.9633,8.9248,8.8402,8.8171,8.8709,8.9902,8.971,8.9402,8.8979,8.8556,8.7671,8.6401,8.6209,8.6094,8.6094,8.6094,8.6094,8.6094,8.6094,8.6094,8.6094,8.6094,8.6094,8.6094,8.6094,8.6094,8.6094,8.6094,8.5978,8.5863,8.6055,8.5978,8.5863,8.6055,8.6094,8.6094,8.6094,8.6094,8.6094,8.6094,8.6094,8.6094,8.6094,8.6094,8.6094,8.6094,8.6094,8.6094,8.6094,8.6094,8.6094,8.6094,8.6094,8.6094,8.6094,8.6094,8.6094,8.6094,8.6094,8.6094,8.6094,8.6094,8.6363,8.7055,8.7902,8.8671,8.9286,8.971,9.021,9.0902,9.2133,9.3095,9.371,9.4788,9.5634,9.6288,9.6458,9.6542,5.8742,6.0089,6.1396,6.3897,6.4089,6.45,6.7667,6.709,6.7013,7.0937,7.1783,7.236,7.413,7.7169,8.0323,8.3054,8.4286,8.517,8.5978,8.6901,8.7825,8.8671,8.9517,9.0325,9.1133,9.121,9.121,9.121,9.121,9.0864,9.0056,9.0748,9.0441,8.8825,8.8786,8.8363,8.7517,8.6709,8.7517,8.9902,8.9133,8.9133,8.9748,8.8209,8.744,8.7248,8.644,8.6094,8.6094,8.6094,8.6094,8.6094,8.6094,8.6094,8.6094,8.6094,8.6094,8.6094,8.6094,8.6094,8.6094,8.6094,8.5593,8.5132,8.5863,8.5593,8.5132,8.5901,8.6094,8.6094,8.6094,8.6094,8.6094,8.6094,8.6094,8.6094,8.6094,8.6094,8.6094,8.6094,8.6094,8.6094,8.6094,8.6094,8.6094,8.6094,8.6094,8.6094,8.6094,8.6094,8.6094,8.6094,8.6094,8.6094,8.6094,8.6094,8.6132,8.6209,8.7017,8.7517,8.7594,8.9056,8.994,8.9979,9.2364,9.3633,9.371,9.5403,9.6249,9.6288,9.6325,9.6415,5.8204,6.0165,6.2089,6.4089,6.5128,6.6436,6.9283,6.9898,7.0706,7.3899,7.4553,7.4899,7.6092,7.9092,8.1516,8.1977,8.367,8.5016,8.5324,8.6517,8.7517,8.7863,8.8632,8.9286,8.9594,8.9633,8.9633,8.9633,8.9633,8.9479,8.9171,8.9479,8.9094,8.794,8.7902,8.7478,8.6594,8.6247,8.6863,8.8325,8.8055,8.8055,8.8325,8.7671,8.7094,8.6555,8.6247,8.6094,8.6094,8.6094,8.6094,8.6094,8.6094,8.5786,8.5401,8.594,8.6094,8.6094,8.6094,8.6094,8.6094,8.6094,8.5901,8.5709,8.6017,8.5901,8.5709,8.6017,8.6094,8.6094,8.6094,8.6094,8.6094,8.6094,8.5709,8.5478,8.5978,8.5286,8.4863,8.5901,8.5709,8.5517,8.6017,8.6094,8.6094,8.6094,8.6094,8.6094,8.6094,8.6094,8.6094,8.6094,8.6094,8.6094,8.6094,8.6094,8.6094,8.6094,8.6401,8.7094,8.8171,8.8825,8.9633,9.071,9.1633,9.2672,9.371,9.4364,9.5249,9.6288,9.6288,9.634,5.8204,6.0165,6.2204,6.4436,6.5859,6.7667,7.1283,7.236,7.3553,7.6938,7.7169,7.713,7.8284,7.99,8.117,8.1439,8.317,8.4593,8.4863,8.6094,8.7094,8.7363,8.794,8.8402,8.8671,8.8709,8.8709,8.8709,8.8709,8.8556,8.8286,8.8556,8.8171,8.7017,8.7248,8.6978,8.6094,8.6094,8.6401,8.6978,8.6978,8.7132,8.7401,8.7132,8.6671,8.6094,8.6094,8.6094,8.6094,8.5824,8.5555,8.5324,8.5324,8.4978,8.4555,8.5093,8.5324,8.5363,8.5632,8.5709,8.5747,8.6017,8.594,8.5709,8.5709,8.5517,8.5363,8.5632,8.5517,8.5363,8.567,8.5901,8.5978,8.544,8.5093,8.5055,8.5593,8.4824,8.4362,8.5517,8.5478,8.5363,8.567,8.594,8.6094,8.6094,8.6094,8.6094,8.6094,8.6094,8.6094,8.6094,8.6094,8.6094,8.6094,8.6094,8.6094,8.6094,8.6094,8.6632,8.7825,8.8402,8.9248,9.0402,9.0941,9.1902,9.3326,9.3826,9.4711,9.5903,9.6172,9.6288,5.905,6.0127,6.1627,6.5051,6.5936,6.7513,7.3399,7.4091,7.4976,8.0054,7.9708,7.9054,8.0785,7.9669,7.9361,8.1862,8.3016,8.3901,8.4747,8.5555,8.6401,8.7286,8.7363,8.7709,8.8594,8.8671,8.8671,8.8671,8.8671,8.8286,8.744,8.8209,8.7863,8.617,8.694,8.6978,8.6094,8.6094,8.6094,8.6094,8.6094,8.6555,8.7363,8.6478,8.6094,8.6094,8.6094,8.6094,8.6017,8.5209,8.4362,8.3593,8.3593,8.3593,8.3593,8.3593,8.3593,8.3708,8.4593,8.4901,8.5016,8.5824,8.5555,8.4901,8.4901,8.4286,8.3785,8.467,8.4286,8.3785,8.467,8.5478,8.567,8.3978,8.4247,8.4901,8.4901,8.4901,8.4901,8.4901,8.5555,8.5863,8.5055,8.5555,8.6094,8.6094,8.6094,8.6094,8.6094,8.6094,8.6094,8.6094,8.6094,8.6094,8.6094,8.6094,8.6094,8.6094,8.6094,8.6094,8.6094,8.7786,8.8709,8.8709,9.0325,9.1633,9.2479,9.4172,9.498,9.5018,9.5865,9.6288,5.8511,6.0589,6.3089,6.532,6.859,7.2014,7.4938,7.5438,7.6361,8.0285,8.0669,8.0285,8.0208,8.0246,8.0362,8.0516,8.1747,8.2785,8.3016,8.3785,8.467,8.5555,8.5632,8.5978,8.6786,8.6863,8.6863,8.6863,8.6863,8.6748,8.6517,8.6748,8.6632,8.6132,8.6363,8.6363,8.6094,8.6094,8.5824,8.5247,8.5247,8.5709,8.6478,8.6209,8.6094,8.6094,8.6094,8.5786,8.5209,8.4324,8.3824,8.3593,8.3593,8.3208,8.2747,8.3362,8.3593,8.3632,8.3901,8.4401,8.4939,8.517,8.5478,8.5632,8.5093,8.4709,8.4555,8.4824,8.4286,8.367,8.3901,8.417,8.4209,8.3708,8.3324,8.3247,8.3862,8.3516,8.3247,8.3862,8.467,8.517,8.4939,8.5555,8.6094,8.6094,8.6094,8.5901,8.5324,8.5747,8.5901,8.5324,8.5747,8.6094,8.6094,8.6094,8.6094,8.6094,8.6671,8.7017,8.7017,8.7517,8.8325,8.9517,9.0017,9.1018,9.2479,9.2979,9.3518,9.4095,9.4364,9.448,5.9935,6.2012,6.4628,6.8052,7.0975,7.3783,7.6823,7.7784,7.8592,8.0669,8.0823,8.0516,8.0362,8.0477,8.0516,8.0362,8.1439,8.2285,8.2285,8.3054,8.3785,8.4324,8.4709,8.5093,8.5593,8.5901,8.6094,8.6094,8.6094,8.6094,8.6094,8.6094,8.6094,8.6094,8.5786,8.5632,8.5632,8.5286,8.4863,8.4362,8.4362,8.4632,8.5093,8.5093,8.5478,8.6094,8.6094,8.5247,8.3862,8.367,8.3208,8.2593,8.2593,8.2285,8.19,8.2401,8.2593,8.2631,8.2978,8.3439,8.3939,8.4286,8.4709,8.4939,8.4132,8.3862,8.3939,8.4286,8.3747,8.317,8.3516,8.3324,8.2978,8.267,8.2439,8.2554,8.3401,8.2901,8.267,8.3862,8.4247,8.4362,8.4362,8.5055,8.5632,8.5632,8.5901,8.5824,8.5016,8.5593,8.567,8.4516,8.5401,8.5978,8.567,8.594,8.6094,8.6094,8.6594,8.6863,8.6863,8.7209,8.7863,8.8902,8.9248,9.0094,9.1479,9.2172,9.2749,9.321,9.3557,9.371,6.2243,6.382,6.5974,7.1822,7.3014,7.4014,7.8823,8.0516,8.1093,8.1093,8.0477,8.0169,8.0939,8.0439,8.0169,8.0977,8.1708,8.217,8.217,8.2862,8.3401,8.3478,8.417,8.4709,8.4786,8.544,8.5863,8.5863,8.5863,8.5863,8.5863,8.594,8.594,8.5863,8.5247,8.4863,8.4786,8.3978,8.3555,8.3478,8.3478,8.3478,8.3478,8.3555,8.4439,8.5863,8.5786,8.4478,8.2477,8.3093,8.2516,8.1208,8.1131,8.1093,8.1093,8.1093,8.1093,8.1208,8.1939,8.2247,8.2439,8.3208,8.3516,8.3439,8.2554,8.2285,8.2477,8.3362,8.2901,8.2401,8.3362,8.2901,8.2016,8.1285,8.167,8.2401,8.3208,8.2824,8.2747,8.4247,8.4055,8.3555,8.3478,8.4286,8.4939,8.5016,8.5632,8.5786,8.4901,8.5478,8.5363,8.367,8.4901,8.5593,8.4978,8.5555,8.6017,8.6094,8.6094,8.6094,8.6094,8.6863,8.7363,8.7517,8.8286,8.9133,9.0017,9.1595,9.2364,9.2402,9.3133,9.348,6.0973,6.2935,6.5705,7.0321,7.4322,7.7784,8.0246,8.0977,8.1093,8.1093,8.0939,8.09,8.1054,8.0939,8.09,8.1054,8.1246,8.1362,8.1362,8.1516,8.1862,8.2516,8.2747,8.3131,8.3824,8.4016,8.4132,8.4132,8.4132,8.4132,8.4132,8.4786,8.4824,8.417,8.4632,8.4555,8.3901,8.367,8.3247,8.2593,8.2593,8.2593,8.2593,8.3285,8.3785,8.4093,8.3401,8.317,8.3208,8.2093,8.1785,8.1977,8.1362,8.1093,8.1093,8.1093,8.1093,8.1131,8.1285,8.1785,8.2324,8.2516,8.3016,8.3439,8.2554,8.2285,8.2477,8.3362,8.2516,8.1708,8.3208,8.2477,8.1323,8.1131,8.1246,8.14,8.1593,8.1977,8.2208,8.1977,8.2824,8.3362,8.2708,8.3862,8.5132,8.5747,8.5978,8.5555,8.4055,8.4632,8.4516,8.2747,8.3516,8.4324,8.4863,8.5055,8.544,8.6055,8.6094,8.6094,8.6094,8.6286,8.7017,8.8402,8.8594,8.944,9.0941,9.1287,9.1479,9.1479,9.1672,9.1748,6.1147,6.3451,6.6436,7.1475,7.563,7.8746,7.9631,8.0169,8.0477,8.0477,8.0823,8.1093,8.1093,8.1093,8.1093,8.1093,8.1093,8.1093,8.1093,8.1093,8.1246,8.167,8.2054,8.2477,8.2939,8.3362,8.3593,8.3593,8.3593,8.3593,8.3593,8.4016,8.4055,8.3593,8.3632,8.3439,8.2978,8.2593,8.217,8.1747,8.1747,8.1747,8.1785,8.3016,8.317,8.2401,8.2747,8.2708,8.2362,8.1862,8.1708,8.167,8.1246,8.1093,8.1093,8.1093,8.1093,8.1093,8.1093,8.1362,8.1747,8.1747,8.2016,8.2324,8.1862,8.1747,8.19,8.2747,8.2362,8.1862,8.2747,8.2324,8.1593,8.1208,8.1093,8.1208,8.1593,8.1708,8.1823,8.2208,8.2362,8.2362,8.2324,8.3401,8.467,8.594,8.6094,8.5632,8.4362,8.4978,8.467,8.2516,8.3439,8.4247,8.4286,8.467,8.5247,8.6055,8.6094,8.6094,8.6094,8.6517,8.7132,8.8055,8.8479,8.9325,9.0594,9.1018,9.121,9.121,9.121,9.121,6.1177,6.4137,6.7667,7.3322,7.6399,7.813,7.8438,7.9054,7.9631,7.9785,8.0477,8.1093,8.1093,8.1093,8.1093,8.1093,8.1093,8.1093,8.1093,8.1093,8.1093,8.1093,8.1708,8.2093,8.2093,8.2747,8.317,8.317,8.317,8.317,8.317,8.3285,8.3285,8.317,8.2593,8.2247,8.2093,8.1439,8.1093,8.1093,8.1093,8.1093,8.1131,8.2554,8.2401,8.117,8.2554,8.2362,8.1131,8.1823,8.1708,8.1093,8.1093,8.1093,8.1093,8.1093,8.1093,8.1093,8.1093,8.1093,8.1093,8.1093,8.1093,8.1093,8.1093,8.1093,8.1285,8.2054,8.2208,8.2131,8.2247,8.2208,8.1939,8.1246,8.1093,8.1285,8.1939,8.1554,8.1516,8.2901,8.2054,8.14,8.2362,8.3131,8.4132,8.567,8.5901,8.5555,8.4593,8.5016,8.4593,8.2324,8.3362,8.4055,8.3632,8.4247,8.5093,8.6055,8.6094,8.6094,8.6094,8.6786,8.7248,8.7401,8.8402,8.9325,9.0133,9.0864,9.121,9.121,9.121,9.1133,5.8802,6.3663,6.9129,7.3591,7.5515,7.6707,7.8169,7.8592,7.89,7.9631,8.0477,8.1093,8.1093,8.1093,8.1093,8.1093,8.1093,8.1093,8.1093,8.1093,8.1093,8.1093,8.1208,8.1246,8.1246,8.1362,8.1439,8.1439,8.1439,8.1439,8.1439,8.2093,8.2131,8.1477,8.2016,8.1977,8.1285,8.1131,8.1093,8.1093,8.1093,8.1093,8.1093,8.1323,8.1323,8.1093,8.1323,8.1323,8.1093,8.1208,8.1208,8.1093,8.1093,8.1093,8.1093,8.1093,8.1093,8.1093,8.1093,8.1093,8.1093,8.1093,8.1093,8.1093,8.1093,8.1093,8.1285,8.2054,8.1785,8.14,8.2131,8.1785,8.1246,8.1131,8.1093,8.1131,8.1246,8.117,8.117,8.14,8.1246,8.1593,8.317,8.3516,8.3939,8.4901,8.5055,8.4478,8.2862,8.2747,8.2401,8.1362,8.1477,8.2131,8.3478,8.3708,8.4439,8.6017,8.6094,8.6094,8.6094,8.6209,8.6632,8.7401,8.894,9.0171,9.1018,9.1133,9.121,9.121,9.121,9.0787,5.9847,6.3767,6.7678,7.2164,7.3937,7.5053,7.6707,7.7476,7.7938,7.8323,7.9054,7.9939,8.0939,8.1093,8.1093,8.1093,8.1093,8.1093,8.1093,8.1093,8.1093,8.1093,8.1093,8.1093,8.1093,8.1093,8.1093,8.1093,8.1093,8.1093,8.1093,8.1439,8.1477,8.1093,8.1439,8.1477,8.1093,8.1093,8.1093,8.1093,8.1093,8.1093,8.1093,8.1093,8.1093,8.1093,8.1093,8.1093,8.1093,8.1093,8.1093,8.1093,8.1093,8.1093,8.1093,8.1093,8.1093,8.1093,8.1093,8.1093,8.1093,8.1093,8.1093,8.1093,8.1093,8.1093,8.117,8.1516,8.1362,8.117,8.1554,8.1362,8.1093,8.1093,8.1093,8.1093,8.1093,8.1093,8.1093,8.1093,8.1093,8.1477,8.267,8.2862,8.317,8.4055,8.417,8.3901,8.3131,8.3016,8.2708,8.1862,8.1785,8.2285,8.3478,8.3593,8.4324,8.5978,8.6094,8.6094,8.6094,8.6555,8.7017,8.7401,8.8132,8.894,8.9787,9.0248,9.0248,8.9825,9.0248,9.0017,5.9983,6.2635,6.5061,6.9884,7.1804,7.3091,7.5207,7.6169,7.6746,7.7207,7.7784,7.8631,8.0169,8.0631,8.0823,8.1054,8.1093,8.1093,8.1093,8.1093,8.1093,8.1093,8.1093,8.1093,8.1093,8.1093,8.1093,8.1093,8.1093,8.1093,8.1093,8.1093,8.1093,8.1093,8.1093,8.1093,8.1093,8.1093,8.1093,8.1093,8.1093,8.1093,8.1093,8.1093,8.1093,8.1093,8.1093,8.1093,8.1093,8.1093,8.1093,8.1093,8.1093,8.1093,8.1093,8.1093,8.1093,8.1093,8.1093,8.1093,8.1093,8.1093,8.1093,8.1093,8.1093,8.1093,8.1093,8.1093,8.1093,8.1093,8.1093,8.1093,8.1093,8.1093,8.1093,8.1093,8.1093,8.1093,8.1093,8.1093,8.1093,8.1362,8.217,8.2285,8.2516,8.317,8.3247,8.3208,8.2978,8.2939,8.2708,8.2054,8.2016,8.2324,8.3208,8.3478,8.4209,8.5709,8.5786,8.5786,8.5786,8.644,8.6748,8.6748,8.6978,8.7594,8.8709,8.9286,8.9286,8.8709,8.9325,8.9133,5.6911,5.9152,6.1649,6.6681,6.8929,7.0744,7.4014,7.4822,7.5284,7.6938,7.7323,7.763,7.8477,7.9323,8.0131,8.0977,8.1093,8.1093,8.1093,8.1093,8.1093,8.1093,8.1093,8.1093,8.1093,8.1093,8.1093,8.1093,8.1093,8.1093,8.1093,8.1093,8.1093,8.1093,8.1093,8.1093,8.1093,8.1093,8.1093,8.1093,8.1093,8.1093,8.1093,8.1093,8.1093,8.1093,8.1093,8.1093,8.1093,8.1093,8.1093,8.1093,8.1093,8.1093,8.1093,8.1093,8.1093,8.1093,8.1093,8.1093,8.1093,8.1093,8.1093,8.1093,8.1093,8.1093,8.1093,8.1093,8.1093,8.1093,8.1093,8.1093,8.1093,8.1093,8.1093,8.1093,8.1093,8.1093,8.1093,8.1093,8.1093,8.1362,8.217,8.2285,8.2324,8.2362,8.2362,8.2093,8.1323,8.1246,8.1208,8.117,8.117,8.1477,8.2285,8.3131,8.3978,8.4901,8.4978,8.4978,8.4978,8.5016,8.5016,8.5016,8.5786,8.7017,8.8709,8.8748,8.8748,8.8709,8.8748,8.8286,5.5025,5.6835,5.8844,6.3655,6.6663,6.8993,7.1306,7.333,7.4899,7.5515,7.6092,7.6707,7.7553,7.84,7.9054,7.9361,7.99,8.0285,8.0285,8.0746,8.1093,8.1093,8.1093,8.1093,8.1093,8.1093,8.1093,8.1093,8.1093,8.1093,8.1093,8.1093,8.1093,8.1093,8.1093,8.1093,8.1093,8.1093,8.1093,8.1093,8.1093,8.1093,8.1093,8.1093,8.1093,8.1093,8.1093,8.1093,8.1093,8.1093,8.1093,8.1093,8.1093,8.1093,8.1093,8.1093,8.1093,8.1093,8.1093,8.1093,8.1093,8.1093,8.1093,8.1093,8.1093,8.1093,8.1093,8.1093,8.1093,8.1093,8.1093,8.1093,8.1093,8.1093,8.1093,8.1093,8.1093,8.1093,8.1093,8.1093,8.1093,8.1052,8.09,8.0884,8.0884,8.0884,8.0884,8.0915,8.11,8.1093,8.1093,8.1093,8.1093,8.1439,8.2247,8.2593,8.3131,8.4016,8.4055,8.4324,8.4901,8.4901,8.5132,8.567,8.594,8.6401,8.7017,8.7594,8.7594,8.7055,8.7594,8.7401,5.3511,5.4968,5.6706,6.1751,6.4191,6.626,6.9785,7.1749,7.3153,7.4447,7.5168,7.5822,7.6707,7.7284,7.7861,7.84,7.8977,7.9361,7.9361,7.9862,8.0323,8.0631,8.0669,8.0785,8.1054,8.1093,8.1093,8.1093,8.1093,8.1093,8.1093,8.1093,8.1093,8.1093,8.1093,8.1093,8.1093,8.1093,8.1093,8.1093,8.1093,8.1093,8.1093,8.1093,8.1093,8.1093,8.1093,8.1093,8.1093,8.1093,8.1093,8.1093,8.1093,8.1093,8.1093,8.1093,8.1093,8.1093,8.1093,8.1093,8.1093,8.1093,8.1093,8.1093,8.1093,8.1093,8.1093,8.1093,8.1093,8.1093,8.1093,8.1093,8.1093,8.1093,8.1093,8.1093,8.1093,8.1093,8.1007,8.0822,8.075,8.0573,7.9908,7.9806,7.9806,7.9806,7.9806,7.9949,8.0409,8.0626,8.075,8.075,8.0975,8.1323,8.1862,8.2401,8.2862,8.3131,8.3708,8.417,8.4439,8.4747,8.517,8.5709,8.5978,8.6094,8.6094,8.6671,8.6671,8.6094,8.6709,8.6671,0.0,0.0,0.0,6.0766,6.1411,6.2528,6.9497,6.9959,6.997,7.3735,7.4538,7.4846,7.5745,7.5938,7.6476,7.813,7.8438,7.8453,7.8453,7.8477,7.8823,7.9669,7.9746,8.0092,8.0977,8.1038,8.1038,8.1093,8.1077,8.1077,8.1093,8.1093,8.1093,8.1093,8.1093,8.1093,8.1093,8.1093,8.1093,8.1093,8.1093,8.1093,8.1093,8.1093,8.1093,8.1093,8.1093,8.1093,8.1093,8.1093,8.1093,8.1093,8.1093,8.1093,8.1093,8.1093,8.1093,8.1093,8.1093,8.1093,8.1093,8.1093,8.1093,8.1093,8.1093,8.1093,8.1093,8.1093,8.1093,8.1093,8.1093,8.1093,8.1093,8.1093,8.1093,8.1093,8.1077,8.1077,8.0871,8.022,8.0105,7.9888,7.929,7.9175,7.9175,7.9175,7.9175,7.9175,7.9198,7.9706,8.0067,8.0105,8.066,8.1077,8.1093,8.2593,8.317,8.2324,8.3862,8.4478,8.3632,8.4439,8.4901,8.4939,8.567,8.6094,8.6094,8.6094,8.6094,8.6094,8.6094,8.6094,5.0325,0.0,0.0,0.0,0.0,0.0,6.346,6.5389,6.7379,7.0031,7.1029,7.2004,7.3856,7.4668,7.5207,7.5668,7.6823,7.763,7.763,7.813,7.8592,7.8823,7.8861,7.9208,8.0092,7.9761,7.9939,8.1038,8.0643,8.0591,8.1077,8.1093,8.1093,8.1093,8.1093,8.1093,8.1093,8.1093,8.1093,8.1093,8.1093,8.1093,8.1093,8.1093,8.1093,8.1093,8.1093,8.1093,8.1093,8.1093,8.1093,8.1093,8.1093,8.1093,8.1093,8.1093,8.1093,8.1093,8.1093,8.1093,8.1093,8.1093,8.1093,8.1093,8.1093,8.1093,8.1093,8.1093,8.1093,8.1093,8.1093,8.1093,8.1093,8.1093,8.1093,8.0975,8.0481,8.037,8.0333,8.0144,7.9765,7.9267,7.8653,7.8562,7.8562,7.8562,7.8562,7.8704,7.9152,7.9358,7.96,8.0028,8.0277,8.0591,8.1061,8.1516,8.167,8.1439,8.2439,8.317,8.3555,8.4439,8.517,8.5747,8.544,8.5517,8.6094,8.6094,8.6094,8.6094,8.6094,8.6094,5.0528,5.1867,5.3717,5.5868,0.0,0.0,6.2378,6.3879,6.555,6.8663,6.9689,7.0478,7.2126,7.3091,7.3783,7.413,7.5322,7.6322,7.6707,7.7169,7.7592,7.7938,7.7977,7.8323,7.9169,7.8947,7.9088,7.9962,8.0004,8.019,8.066,8.066,8.066,8.066,8.0959,8.1093,8.1093,8.1093,8.1093,8.1093,8.0838,8.0838,8.1077,8.0555,8.0591,8.1077,8.0783,8.0855,8.1093,8.1093,8.1093,8.1093,8.1093,8.1093,8.1093,8.1093,8.1093,8.1093,8.1093,8.1093,8.1093,8.1093,8.1093,8.1093,8.1093,8.1093,8.1093,8.1093,8.1093,8.1093,8.1093,8.1093,8.1093,8.1093,8.1093,8.0943,8.022,7.9908,7.9642,7.938,7.9058,7.8628,7.8016,7.7875,7.7875,7.7875,7.7875,7.8007,7.8341,7.8653,7.9058,7.9642,7.9949,8.037,8.1061,8.14,8.1477,8.1131,8.2208,8.3054,8.3555,8.4093,8.4901,8.6094,8.4939,8.4786,8.5593,8.5593,8.5786,8.6094,8.6094,8.6094,5.194,5.2784,5.4326,5.79,5.7886,0.0,6.3551,6.3728,6.3911,6.795,6.8771,6.9054,7.0018,7.0979,7.1824,7.2515,7.3658,7.4817,7.5861,7.6015,7.6284,7.7053,7.7169,7.7476,7.8299,7.8292,7.8316,7.8477,7.9323,7.9862,7.9953,8.0048,8.0125,8.0125,8.0698,8.0991,8.0991,8.0991,8.0959,8.0871,8.0296,8.0315,8.0855,7.9723,7.9806,8.0855,8.0277,8.0333,8.0871,8.0959,8.1007,8.1093,8.1093,8.1093,8.1093,8.1093,8.1093,8.1093,8.1093,8.1093,8.1093,8.1093,8.1093,8.1093,8.1093,8.1093,8.1093,8.1093,8.1093,8.1093,8.1093,8.1093,8.1093,8.1093,8.1061,8.0822,8.0144,7.9513,7.8914,7.8336,7.8173,7.8016,7.7396,7.7273,7.7273,7.7273,7.7273,7.7273,7.7273,7.7826,7.8458,7.9128,7.9663,8.0296,8.1045,8.1747,8.1862,8.1131,8.2593,8.3439,8.3439,8.3555,8.4286,8.5786,8.4362,8.3939,8.4632,8.4824,8.5324,8.6094,8.6094,8.6055,5.3115,5.4032,5.5317,5.6088,5.7042,0.0,5.922,5.9745,6.0537,6.246,6.288,6.3446,6.5379,6.6949,6.7784,6.7288,7.0535,7.3756,7.574,7.6015,7.6053,7.6245,7.6245,7.6592,7.7438,7.7045,7.7207,7.8423,7.9323,7.9594,7.9152,7.9743,8.0125,8.0125,8.022,8.0296,8.0296,8.0296,8.0066,7.9556,7.9425,7.9447,7.9556,7.9313,7.9335,7.9556,7.9425,7.9447,7.9637,8.0105,8.0608,8.1093,8.1093,8.1093,8.1093,8.1093,8.1093,8.1093,8.1093,8.1093,8.1093,8.1093,8.1093,8.1093,8.1093,8.1093,8.1093,8.1093,8.1093,8.1093,8.1093,8.1093,8.1093,8.1093,8.0698,8.0125,7.9513,7.8889,7.8272,7.7592,7.748,7.745,7.7304,7.7273,7.7273,7.7273,7.7273,7.7273,7.7273,7.7426,7.7923,7.9081,7.9313,7.9847,8.0991,8.1246,8.1285,8.1093,8.2016,8.2554,8.2554,8.3208,8.3747,8.4093,8.3747,8.3324,8.2824,8.4209,8.5324,8.6094,8.6094,8.5747,5.473,5.528,5.6381,5.7189,5.7703,0.0,0.0,5.9612,6.0082,6.1781,6.2015,6.2382,6.3858,6.5025,6.583,6.6011,6.8973,7.1674,7.2939,7.4412,7.5249,7.4986,7.4954,7.513,7.5584,7.5653,7.6317,7.7793,7.8388,7.878,7.8885,7.9371,7.9642,7.9642,7.9642,7.9642,7.9642,7.9642,7.9491,7.9198,7.8865,7.8889,7.9175,7.8551,7.8628,7.9175,7.8865,7.8914,7.9244,7.9868,8.0315,8.0626,8.0975,8.1093,8.1093,8.1093,8.1093,8.1093,8.1093,8.1093,8.1093,8.1093,8.1093,8.1093,8.1093,8.1093,8.1093,8.1093,8.1093,8.1093,8.1093,8.1093,8.1093,8.1093,8.0591,7.9929,7.9335,7.8729,7.809,7.7457,7.7273,7.7273,7.7273,7.7273,7.7273,7.7273,7.7273,7.7273,7.7273,7.7599,7.8173,7.9105,7.9469,8.0046,8.1045,8.1093,8.1093,8.1093,8.1477,8.1862,8.2285,8.2324,8.2362,8.2362,8.2747,8.2747,8.2285,8.317,8.4016,8.4863,8.4863,8.4632,5.6455,5.6638,5.7556,5.8671,5.8731,5.8833,0.0,0.0,0.0,6.1805,6.1966,6.2026,6.2572,6.3253,6.3938,6.4668,6.7038,6.8762,6.8701,7.1309,7.3252,7.3407,7.3545,7.3644,7.3742,7.4028,7.4989,7.6724,7.6773,7.7189,7.8406,7.8766,7.8963,7.9034,7.9034,7.9034,7.9034,7.9034,7.8962,7.8816,7.8325,7.8352,7.8791,7.776,7.7838,7.8791,7.8325,7.8379,7.8889,7.9491,7.9765,7.9847,8.0733,8.1093,8.1093,8.1093,8.1093,8.1093,8.1093,8.1093,8.1093,8.1093,8.1093,8.1093,8.1093,8.1093,8.1093,8.1093,8.1093,8.1093,8.1093,8.1093,8.1077,8.0943,8.0427,7.9747,7.9152,7.8525,7.796,7.7426,7.7273,7.7273,7.7273,7.7273,7.7273,7.7273,7.7273,7.7273,7.7273,7.7768,7.8325,7.8962,7.9556,8.0182,8.0855,8.1045,8.1093,8.1093,8.1093,8.14,8.2054,8.1439,8.1093,8.1093,8.1747,8.2054,8.2054,8.2054,8.2593,8.3593,8.3593,8.3516,5.796,5.8327,5.8781,5.8253,5.9134,5.9819,5.864,0.0,5.9141,5.868,0.0,5.9052,5.8717,0.0,0.0,5.9124,6.2588,6.4949,6.3559,6.5935,6.8771,7.1374,7.2324,7.2831,7.3103,7.1872,7.23,7.5145,7.4111,7.441,7.6835,7.7651,7.8162,7.8368,7.8379,7.8379,7.8379,7.8379,7.809,7.751,7.7457,7.745,7.751,7.7365,7.7396,7.751,7.742,7.745,7.7599,7.8255,7.851,7.869,8.0409,8.1093,8.1093,8.1093,8.1093,8.1093,8.1093,8.1093,8.1093,8.1093,8.1093,8.1093,8.1093,8.1093,8.1093,8.1093,8.1093,8.1093,8.1093,8.1093,8.0959,8.0352,7.9765,7.9128,7.8536,7.7875,7.7396,7.7304,7.7273,7.7273,7.7273,7.7273,7.7273,7.7273,7.7273,7.7273,7.7273,7.7365,7.7651,7.8325,7.8938,7.9535,8.0163,8.075,8.1093,8.1093,8.1093,8.1131,8.1246,8.1131,8.1093,8.1093,8.1208,8.1246,8.1246,8.1246,8.2054,8.3593,8.3593,8.317,5.8217,5.8584,5.9111,5.8804,5.9208,5.9538,5.8877,5.8621,5.8547,5.8694,0.0,0.0,0.0,0.0,0.0,0.0,6.1375,6.2836,6.1894,6.3933,6.622,6.8103,6.8196,6.8734,7.0241,7.0399,7.1289,7.3489,7.3101,7.3662,7.568,7.7127,7.7799,7.759,7.7672,7.771,7.771,7.771,7.7599,7.7273,7.7273,7.7273,7.7273,7.7273,7.7273,7.7273,7.7273,7.7273,7.7335,7.8044,7.8309,7.8405,7.9551,8.0007,8.0046,8.0409,8.0517,8.0591,8.0975,8.1093,8.1093,8.1093,8.1093,8.1093,8.1093,8.1093,8.1093,8.1093,8.1093,8.1093,8.1093,8.1093,8.0943,8.0277,7.9621,7.9034,7.8432,7.7797,7.7273,7.7273,7.7273,7.7273,7.7273,7.7273,7.7273,7.7273,7.7273,7.7273,7.7273,7.7622,7.7988,7.8282,7.9152,7.9847,8.0105,8.0716,8.1093,8.1093,8.1093,8.1093,8.1093,8.1093,8.1093,8.1093,8.1093,8.1093,8.1093,8.1093,8.1477,8.2131,8.2131,8.1939,5.8621,5.8914,5.9404,5.8988,5.9038,5.9148,5.8914,5.8584,5.8437,5.8804,5.8983,0.0,0.0,0.0,5.9253,5.9388,0.0,6.0953,6.0391,6.1902,6.3525,6.4933,6.5031,6.5784,6.7776,6.8086,6.919,7.1674,7.1086,7.1882,7.4733,7.6246,7.7004,7.7069,7.7216,7.7273,7.7273,7.7273,7.7273,7.7273,7.7273,7.7273,7.7273,7.7273,7.7273,7.7273,7.7273,7.7273,7.7335,7.7854,7.8044,7.8063,7.8499,7.8666,7.8791,7.9727,8.0201,8.0445,8.0943,8.1093,8.1093,8.1093,8.1093,8.1093,8.1093,8.1093,8.1093,8.1093,8.1093,8.1093,8.1093,8.1093,8.0943,8.0277,7.9785,7.929,7.8678,7.8136,7.7817,7.7817,7.7817,7.7817,7.7817,7.754,7.7273,7.7273,7.7273,7.7273,7.7273,7.7875,7.8309,7.8309,7.938,8.0125,8.0125,8.0716,8.1093,8.1093,8.1093,8.1093,8.1093,8.1093,8.1093,8.1093,8.1093,8.1093,8.1093,8.1093,8.1093,8.1093,8.1093,8.1093,5.9588,5.9758,5.9979,5.8437,5.8621,5.9001,5.8217,5.8621,5.8951,5.818,5.902,5.9494,5.8281,5.8397,5.857,5.8133,5.874,0.0,0.0,5.8814,6.0149,6.2284,6.4179,6.5621,6.6465,6.4423,6.493,6.9551,6.6956,6.7835,7.3991,7.4584,7.544,7.6952,7.7216,7.7273,7.7273,7.7273,7.7273,7.7273,7.7273,7.7273,7.7273,7.7273,7.7273,7.7273,7.7273,7.7273,7.7273,7.7304,7.7335,7.7335,7.7365,7.7365,7.7563,7.9425,8.0499,8.1077,8.1093,8.1093,8.1093,8.1093,8.1093,8.1093,8.1093,8.1093,8.1093,8.1093,8.1093,8.1093,8.1093,8.1093,8.0943,8.0277,8.0105,7.9908,7.9313,7.9152,7.9152,7.9152,7.9152,7.9152,7.9152,7.8108,7.7273,7.7273,7.7273,7.7273,7.7273,7.7875,7.8309,7.8309,7.938,8.0125,8.0125,8.0716,8.1093,8.1093,8.1093,8.1093,8.1093,8.1093,8.1093,8.1093,8.1093,8.1093,8.1093,8.1093,8.1093,8.1093,8.1093,8.1093,0.0,0.0,6.0823,5.9208,0.0,5.9648,5.829,5.8621,5.8964,5.818,5.8782,5.9145,5.8189,5.8142,5.8172,5.8042,5.8217,5.8327,0.0,5.8217,5.8874,6.0135,6.2655,6.3756,6.2598,6.329,6.4839,6.7201,6.6657,6.7685,7.1079,7.2882,7.4115,7.4809,7.5919,7.679,7.7273,7.7273,7.7273,7.7273,7.7273,7.7273,7.7273,7.7273,7.7273,7.7273,7.7273,7.7273,7.7273,7.7273,7.7273,7.7273,7.7273,7.757,7.8044,7.8678,7.9071,7.9373,8.0144,8.0733,8.1093,8.1093,8.1093,8.1093,8.1093,8.1093,8.1093,8.1093,8.1093,8.1093,8.1093,8.1093,8.0943,8.0277,8.0125,7.9929,7.9335,7.9198,7.9198,7.9198,7.9198,7.9198,7.9198,7.884,7.842,7.8007,7.796,7.796,7.796,7.8499,7.8927,7.8927,7.96,8.0125,8.0125,8.0716,8.1093,8.1093,8.1093,8.1093,8.1093,8.1093,8.1093,8.1093,8.1093,8.1093,8.1093,8.1093,8.1093,8.1093,8.1093,8.1093,6.1337,6.141,0.0,5.9979,6.0015,0.0,5.8731,5.9061,5.9391,5.8584,5.8841,5.9111,5.8914,5.84,5.8107,5.84,5.818,5.7997,0.0,5.7997,5.818,5.8731,6.0743,6.1849,6.12,6.197,6.3418,6.5479,6.5506,6.6574,6.9131,7.1415,7.3071,7.3997,7.536,7.6497,7.7273,7.7273,7.7273,7.7273,7.7273,7.7273,7.7273,7.7273,7.7273,7.7273,7.7273,7.7273,7.7273,7.7273,7.7273,7.7273,7.7273,7.757,7.7988,7.82,7.8588,7.9119,8.0105,8.0733,8.1093,8.1093,8.1093,8.1093,8.1093,8.1093,8.1093,8.1093,8.1093,8.1093,8.1093,8.1093,8.0991,8.0573,8.0463,8.0333,7.9967,7.9906,7.9906,7.9906,7.9906,7.9906,7.9906,7.9701,7.9313,7.8704,7.8602,7.8602,7.8602,7.9152,7.9513,7.9513,8.0086,8.0463,8.0463,8.0855,8.1093,8.1093,8.1093,8.1093,8.1093,8.1093,8.1093,8.1093,8.1093,8.1093,8.1093,8.1093,8.1093,8.1093,8.1093,8.1093]}]]